     2.10           OBSERVATION DATA    G (GPS)             RINEX VERSION / TYPE
teqc 2000Feb29 simon 20020108 09:29:06UTC                   PGM / RUN BY / DATE
Solaris 2.7|Ultra 2|cc SC5.0|=+-|*Sparc                     COMMENT
BIT 2 OF LLI FLAGS DATA COLLECTED UNDER A/S CONDITION       COMMENT
GS27                                                        MARKER NAME
gs27                                                        MARKER NUMBER
HEM -Unknown-                                               OBSERVER / AGENCY
500 ASHTECH Z-XII3 4J30                                     REC # / TYPE / VERS
113 ASH701933_M                                             ANT # / TYPE
 -2380864.0000 -4582617.0000  3734135.0000                  APPROX POSITION XYZ
        0.1870        0.0000        0.0000                  ANTENNA: DELTA H/E/N
     1     1                                                WAVELENGTH FACT L1/2
     7    L1    L2    C1    P1    P2    S1    S2            # / TYPES OF OBSERV
    30.0000                                                 INTERVAL
SNR is mapped to RINEX snr flag value [1-9]                 COMMENT
L1: 1 -> 1; 90 -> 5; 210 -> 9                               COMMENT
L2: 1 -> 1; 150 -> 5; 250 -> 9                              COMMENT
Original height was 0.0000                                  COMMENT
New height found assuming measured height 0.2510            COMMENT
and assuming radial 0.0000 vertical -0.0640                 COMMENT
  2001    12    19    20     4    0.0000000     GPS         TIME OF FIRST OBS
                                                            END OF HEADER
 01 12 19 20  4  0.0000000  0 10G28G 2G27G26G31G 7G 8G10G11G13
     -8888.39357                  18114426.610                    18114437.710
       236.000         205.000
       568.03059       255.48057  18729832.011    18729831.526    18729845.437
       241.000         206.000
      2250.51057                  18458695.463                    18458708.882
       237.000         203.000
    -22918.27953                  21290053.187
       218.000          74.000
     14670.76753                  21179180.784
       215.000          74.000
     -5877.87653                  19880714.510
       228.000          74.000
    -19754.99259    -10962.01057  17349085.865    17349084.049    17349096.934
       237.000         206.000
      7521.27953                  22444670.516
       215.000          74.000
     -3744.40853                  21405836.606
       217.000          74.000
      3977.72353                  21633080.849
       206.000          74.000
 01 12 19 20  4 30.0000000  0 10G28G 2G27G26G31G 7G 8G10G11G13
    -64177.48059    -42670.94357  18106176.246    18106175.211    18106187.470
       236.000         204.000
      1279.92559       810.12747  18729967.915    18729967.037    18729981.009
       242.000         207.000
     16372.23559     10944.02957  18460818.891    18460817.774    18460832.274
       239.000         202.000
   -162014.61849   -110216.00945  21268733.323    21268732.358    21268753.844
       217.000         156.000
     70692.49255                  21192863.082                    21192882.647
       214.000         146.000
   -149285.51359   -101329.88456  19857402.947    19857402.404    19857421.440
       230.000         181.000
    -49953.39659    -34493.25747  17343338.951    17343337.524    17343350.531
       236.000         207.000
     36246.32345                  22451686.316                    22451710.974
       217.000         149.000
    -64682.04344                  21390945.632
       204.000         113.000
     68787.36145                  21648910.960
       212.000         134.000
 01 12 19 20  4 59.9990000  0 10G28G 2G27G26G31G 7G 8G10G11G13
   -107312.23949    -76282.43247  20496307.627    20496306.617    20496318.841
       236.000         205.000
      2063.67349      1420.78747  21128456.935    21128455.906    21128469.821
       244.000         209.000
     27826.10849     19869.04047  20861338.162    20861337.117    20861351.572
       234.000         203.000
   -273733.83859   -197269.82055  23645813.401    23645812.538    23645832.139
       214.000         152.000
    175252.36059    126842.81655  23604915.794    23604915.473    23604936.707
       209.000         142.000
   -271560.07749   -196608.48446  22232474.725    22232473.830    22232492.958
       228.000         183.000
    -79835.12949    -57777.71447  19735992.187    19735990.834    19736003.904
       235.000         205.000
     92120.81459     65031.44355  24857055.889    24857054.538    24857080.972
       215.000         150.000
   -174246.86249   -125411.63455  23774454.901    23774454.776    23774474.224
       213.000         150.000
    133567.19645                  24063070.511
       208.000         142.000
 01 12 19 20  5 29.9990000  0 10G28G 2G27G26G31G 7G 8G10G11G13
   -150204.66749   -109705.07847  20488145.524    20488144.482    20488156.672
       237.000         205.000
      2968.54749      2125.84247  21128629.235    21128628.167    21128642.005
       240.000         206.000
     39633.77849     29069.77247  20863585.098    20863584.106    20863598.566
       237.000         203.000
   -385154.62749   -284091.03245  23624610.585    23624609.849    23624629.286
       221.000         157.000
    247567.61949    183192.08745  23618677.418    23618677.448    23618697.974
       214.000         157.000
   -393633.56449   -291730.41446  22209244.942    22209243.989    22209263.040
       229.000         183.000
   -109367.46649    -80789.93947  19730372.403    19730371.095    19730384.138
       237.000         207.000
    129207.86349     93930.20845  24864113.362    24864111.944    24864138.096
       209.000         136.000
   -251912.13959   -185929.86645  23759675.844    23759675.168    23759696.248
       215.000         159.000
    269612.08649    198392.92145  24078901.623    24078902.462    24078924.340
       208.000         142.000
 01 12 19 20  5 59.9990000  0 10G28G 2G27G26G31G 7G 8G10G11G13
   -192807.54049   -142902.10947  20480038.474    20480037.435    20480049.583
       236.000         205.000
      4028.60249      2951.82547  21128831.030    21128829.918    21128843.733
       240.000         206.000
     51826.90349     38570.84747  20865905.373    20865904.379    20865918.923
       237.000         203.000
   -496206.25549   -370624.60145  23603478.062    23603477.424    23603496.800
       222.000         158.000
    320148.36449    239748.20945  23632489.412    23632489.005    23632509.788
       213.000         157.000
   -515432.60249   -386638.45846  22186067.271    22186066.286    22186085.367
       228.000         183.000
   -138505.77449   -103495.12547  19724827.574    19724826.301    19724839.331
       237.000         207.000
    166461.35249    122958.66945  24871202.497    24871200.725    24871227.036
       207.000         135.000
   -329245.31749   -246189.29545  23744959.765    23744958.994    23744980.060
       217.000         160.000
    352871.56859    263270.08055  24094745.437    24094745.474    24094767.572
       209.000         143.000
 01 12 19 20  6 29.9990000  0 10G28G 2G27G26G31G 7G 8G10G11G13
   -235131.14849   -175881.52347  20471984.562    20471983.518    20471995.648
       236.000         204.000
      5233.92149      3891.00247  21129060.460    21129059.319    21129073.099
       242.000         206.000
     64396.44549     48365.22747  20868297.318    20868296.317    20868310.861
       237.000         202.000
   -606895.55749   -456875.79945  23582414.440    23582413.839    23582433.412
       210.000         145.000
    392982.54849    296501.82145  23646349.620    23646348.915    23646369.816
       214.000         158.000
   -636964.24949   -481338.17646  22162940.495    22162939.497    22162958.547
       229.000         184.000
   -167258.45749   -125899.81847  19719356.138    19719354.902    19719367.890
       236.000         207.000
    203869.13249    152107.34245  24878320.993    24878319.372    24878345.522
       210.000         142.000
   -406253.28949   -306195.33045  23730305.612    23730304.776    23730325.937
       216.000         160.000
    436185.24449    328189.48345  24110599.635    24110599.745    24110622.101
       209.000         143.000
 01 12 19 20  6 59.9990000  0 10G28G 2G27G26G31G 7G 8G10G11G13
   -277175.75049   -208643.53047  20463983.704    20463982.674    20463994.820
       236.000         205.000
      6583.73049      4942.76147  21129317.343    21129316.185    21129329.993
       240.000         206.000
     77342.96749     58453.35547  20870760.987    20870759.970    20870774.537
       236.000         201.000
   -717219.90649   -542842.66145  23561420.294    23561419.740    23561439.449
       221.000         162.000
    466067.63449    353450.91145  23660257.335    23660256.482    23660277.490
       213.000         155.000
   -758226.11249   -575827.67246  22139864.976    22139864.028    22139883.096
       230.000         184.000
   -195624.16249   -148002.97847  19713958.374    19713957.114    19713970.088
       237.000         206.000
    241428.54249    181374.21645  24885468.411    24885466.723    24885492.690
       206.000         133.000
   -482933.49249   -365945.94145  23715713.823    23715712.959    23715734.015
       217.000         161.000
    519550.85549    393149.31945  24126463.789    24126463.630    24126486.152
       210.000         142.000
 01 12 19 20  7 29.9990000  0 10G28G 2G27G26G31G 7G 8G10G11G13
   -318927.57449   -241177.39647  20456038.540    20456037.533    20456049.702
       236.000         205.000
      8092.09249      6118.08947  21129604.415    21129603.239    21129617.042
       241.000         207.000
     90681.13249     68846.66747  20873299.199    20873298.169    20873312.728
       237.000         202.000
   -827162.35149   -628511.91045  23540498.794    23540498.263    23540518.028
       216.000         158.000
    539415.19549    410604.59845  23674215.126    23674214.120    23674235.207
       214.000         158.000
   -879201.68549   -670094.07946  22116843.980    22116843.066    22116862.091
       231.000         185.000
   -223587.19449   -169792.35847  19708637.243    19708635.958    19708648.907
       237.000         206.000
    279150.79649    210767.94645  24892646.883    24892645.185    24892671.102
       209.000         140.000
   -559268.83949   -425427.86445  23701187.641    23701186.778    23701207.825
       216.000         160.000
    602980.41049    458159.04645  24142340.196    24142339.925    24142362.347
       207.000         143.000
 01 12 19 20  7 59.9990000  0 10G28G 2G27G26G31G 7G 8G10G11G13
   -360389.60449   -273485.46047  20448148.567    20448147.548    20448159.727
       236.000         204.000
      9756.16249      7414.73447  21129921.174    21129919.947    21129933.728
       241.000         207.000
    104409.11249     79543.70747  20875911.613    20875910.556    20875925.097
       237.000         202.000
   -936722.61649   -713883.37145  23519650.049    23519649.574    23519669.440
       215.000         157.000
    613020.25649    467958.92045  23688222.011    23688220.805    23688241.841
       213.000         157.000
   -999890.95349   -764137.41446  22093877.581    22093876.614    22093895.565
       230.000         184.000
   -251149.04449   -191269.13647  19703392.408    19703391.141    19703404.064
       238.000         208.000
    317030.74449    240284.58145  24899855.427    24899853.741    24899879.640
       210.000         141.000
   -635259.03949   -484640.86245  23686727.081    23686726.257    23686747.302
       218.000         162.000
    686469.09549    523214.80745  24158227.808    24158227.488    24158249.849
       208.000         142.000
 01 12 19 20  8 29.9990000  0 10G28G 2G27G26G31G 7G 8G10G11G13
   -401559.40049   -305565.80447  20440314.244    20440313.204    20440325.393
       237.000         204.000
     11578.23949      8834.51647  21130268.017    21130266.735    21130280.472
       241.000         207.000
    118530.36349     90547.19547  20878598.853    20878597.783    20878612.304
       237.000         201.000
  -1045895.03949   -798952.60345  23498875.139    23498874.657    23498894.593
       215.000         156.000
    686883.20649    525514.17445  23702277.919    23702276.614    23702297.633
       213.000         155.000
  -1120288.87749   -857953.72546  22070966.519    22070965.565    22070984.438
       231.000         185.000
   -278305.43849   -212429.97647  19698224.726    19698223.476    19698236.392
       237.000         206.000
    355068.80949    269924.40545  24907094.067    24907092.217    24907118.218
       208.000         140.000
   -710898.40349   -543580.47145  23672333.370    23672332.512    23672353.569
       218.000         160.000
    770017.55649    588317.11845  24174126.792    24174126.387    24174148.882
       209.000         142.000
 01 12 19 20  8 59.9990000  0 10G28G 2G27G26G31G 7G 8G10G11G13
   -442461.10249   -337437.24747  20432530.981    20432529.898    20432542.055
       237.000         205.000
     13534.19049     10358.61147  21130640.346    21130638.994    21130652.701
       242.000         207.000
    133021.42049    101838.84847  20881356.449    20881355.386    20881369.908
       237.000         201.000
  -1154700.85349   -883736.17945  23478169.952    23478169.491    23478189.487
       215.000         157.000
    760977.40549    583249.64745  23716377.933    23716376.481    23716397.437
       212.000         157.000
  -1240416.73949   -951559.62146  22048106.850    22048105.926    22048124.685
       232.000         186.000
   -305078.95049   -233292.46747  19693129.961    19693128.672    19693141.576
       237.000         207.000
    393238.41049    299666.69245  24914357.799    24914355.839    24914381.564
       207.000         138.000
   -786208.00949   -602263.14245  23658002.435    23658001.555    23658022.562
       218.000         160.000
    853599.69149    653445.70045  24190032.298    24190031.828    24190054.265
       207.000         141.000
 01 12 19 20  9 29.9980000  0 10G28G 2G27G26G31G 7G 8G10G11G13
   -483101.16249   -369104.80947  20424797.470    20424796.367    20424808.520
       236.000         205.000
     15616.34549     11981.05147  21131036.662    21131035.270    21131048.940
       241.000         207.000
    147874.75449    113412.79447  20884183.032    20884181.936    20884196.457
       237.000         201.000
  -1263141.12449   -968234.92245  23457534.374    23457533.943    23457553.948
       216.000         158.000
    835290.42949    641155.62745  23730519.605    23730517.990    23730538.977
       214.000         159.000
  -1360275.67449  -1044955.95046  22025298.336    22025297.454    22025316.090
       231.000         186.000
   -331474.82249   -253860.68547  19688107.035    19688105.745    19688118.637
       236.000         207.000
    431527.96549    329502.50145  24921644.193    24921642.237    24921668.041
       209.000         137.000
   -861189.95149   -660690.53145  23643733.911    23643732.931    23643753.872
       219.000         161.000
    937203.16349    718590.88445  24205941.801    24205941.192    24205963.667
       208.000         140.000
 01 12 19 20  9 59.9980000  0 10G28G 2G27G26G31G 7G 8G10G11G13
   -523454.41649   -400548.89347  20417118.548    20417117.426    20417129.540
       237.000         205.000
     17852.82249     13723.73847  21131462.258    21131460.886    21131474.563
       241.000         207.000
    163120.42349    125292.44747  20887084.228    20887083.147    20887097.658
       237.000         201.000
  -1371191.98649  -1052430.22745  23436972.864    23436972.507    23436992.512
       217.000         161.000
    909853.01849    699256.05445  23744708.557    23744706.972    23744727.948
       213.000         158.000
  -1479843.02649  -1138125.11646  22002545.399    22002544.463    22002562.962
       231.000         185.000
   -357465.10349   -274112.86747  19683161.253    19683159.979    19683172.850
       237.000         207.000
    469965.71449    359453.78845  24928958.884    24928956.936    24928982.690
       213.000         145.000
   -935818.29049   -718842.36945  23629532.481    23629531.600    23629552.473
       218.000         161.000
   1020859.80049    783777.51045  24221861.429    24221860.715    24221883.082
       206.000         139.000
 01 12 19 20 10 29.9980000  0 10G28G 2G27G26G31G 7G 8G10G11G13
   -563523.36249   -431771.44147  20409493.714    20409492.583    20409504.660
       237.000         205.000
     20239.60149     15583.54947  21131916.486    21131915.110    21131928.788
       241.000         207.000
    178754.96849    137475.11147  20890059.482    20890058.373    20890072.863
       237.000         201.000
  -1478850.75849  -1136320.01245  23416485.906    23416485.617    23416505.644
       217.000         161.000
    984656.74949    757544.37845  23758943.556    23758941.891    23758962.871
       211.000         157.000
  -1599115.80849  -1231064.74746  21979848.397    21979847.503    21979865.904
       232.000         186.000
   -383051.25749   -294050.14347  19678292.386    19678291.118    19678303.962
       237.000         206.000
    508544.13249    389514.64745  24936300.348    24936298.308    24936324.089
       210.000         145.000
  -1010091.20349   -776717.27745  23615398.722    23615397.872    23615418.698
       220.000         161.000
   1104560.76749    848998.65045  24237789.667    24237788.718    24237811.096
       207.000         139.000
 01 12 19 20 10 59.9980000  0 10G28G 2G27G26G31G 7G 8G10G11G13
   -603314.85249   -462777.78547  20401921.663    20401920.527    20401932.605
       237.000         205.000
     22770.11649     17555.35647  21132397.924    21132396.653    21132410.368
       240.000         206.000
    194772.47349    149956.19147  20893107.579    20893106.467    20893120.962
       237.000         201.000
  -1586121.12949  -1219907.15945  23396072.860    23396072.625    23396092.655
       214.000         160.000
   1059692.77049    816013.71645  23773222.598    23773220.917    23773241.920
       211.000         158.000
  -1718098.17049  -1323778.08546  21957206.650    21957205.810    21957224.095
       232.000         186.000
   -408238.44849   -313676.53147  19673499.428    19673498.177    19673511.013
       237.000         207.000
    547253.99149    419677.94245  24943666.715    24943664.687    24943690.542
       210.000         146.000
  -1084012.51349   -834318.20245  23601331.889    23601331.054    23601351.841
       217.000         160.000
   1188297.41149    914247.57945  24253724.541    24253723.514    24253745.898
       208.000         139.000
 01 12 19 20 11 29.9980000  0 10G28G 2G27G26G31G 7G 8G10G11G13
   -642821.40849   -493562.10747  20394403.812    20394402.680    20394414.772
       236.000         205.000
     25451.79249     19644.95247  21132908.234    21132906.961    21132920.719
       241.000         206.000
    211181.32649    162742.20947  20896230.196    20896229.053    20896243.542
       238.000         201.000
  -1692992.38649  -1303183.33845  23375735.853    23375735.587    23375755.642
       217.000         158.000
   1134966.35749    874668.17045  23787546.773    23787545.177    23787566.223
       212.000         156.000
  -1836779.75949  -1416257.07746  21934622.168    21934621.344    21934639.484
       233.000         187.000
   -433017.50249   -332984.89047  19668784.169    19668782.906    19668795.728
       237.000         207.000
    586100.63749    449947.81445  24951059.191    24951057.159    24951083.041
       210.000         145.000
  -1157571.42449   -891636.73845  23587334.088    23587333.240    23587353.941
       219.000         162.000
   1272075.56949    979528.84945  24269667.257    24269666.199    24269688.670
       204.000         139.000
 01 12 19 20 11 59.9980000  0 10G28G 2G27G26G31G 7G 8G10G11G13
   -682047.65649   -524128.01047  20386939.261    20386938.150    20386950.258
       236.000         205.000
     28280.23449     21848.90747  21133446.537    21133445.216    21133458.996
       241.000         207.000
    227977.99549    175830.42147  20899426.582    20899425.422    20899439.926
       237.000         201.000
  -1799465.99349  -1386149.63345  23355474.529    23355474.218    23355494.272
       215.000         158.000
   1210471.06449    933502.71045  23801914.990    23801913.401    23801934.475
       212.000         156.000
  -1955162.41249  -1508503.13247  21912094.556    21912093.763    21912111.812
       232.000         188.000
   -457391.30049   -351977.46547  19664146.021    19664144.744    19664157.565
       237.000         207.000
    625077.42149    480319.09745  24958476.391    24958474.350    24958500.305
       210.000         146.000
  -1230769.33949   -948673.97545  23573404.862    23573404.067    23573424.769
       218.000         162.000
   1355889.00649   1044837.59345  24285616.536    24285615.631    24285638.024
       207.000         141.000
 01 12 19 20 12 29.9980000  0 10G28G 2G27G26G31G 7G 8G10G11G13
   -720997.13949   -554478.25347  20379527.371    20379526.292    20379538.422
       236.000         204.000
     31251.83149     24164.41447  21134012.045    21134010.725    21134024.517
       241.000         207.000
    245159.52549    189218.54947  20902696.185    20902695.022    20902709.568
       236.000         201.000
  -1905542.41449  -1468806.44245  23335288.723    23335288.454    23335308.518
       216.000         158.000
   1286201.10049    992512.82745  23816326.150    23816324.536    23816345.670
       212.000         156.000
  -2073247.02649  -1600516.96347  21889623.676    21889622.880    21889640.846
       233.000         188.000
   -481361.81749   -370655.79047  19659584.582    19659583.328    19659596.151
       237.000         207.000
    664178.12049    510786.93945  24965917.135    24965915.130    24965941.179
       212.000         145.000
  -1303606.98849  -1005430.46845  23559544.172    23559543.474    23559564.128
       220.000         162.000
   1439732.54749   1110169.78245  24301571.787    24301570.693    24301593.083
       210.000         138.000
 01 12 19 20 12 59.9980000  0 10G28G 2G27G26G31G 7G 8G10G11G13
   -759650.18649   -584597.51147  20372171.874    20372170.830    20372182.970
       236.000         204.000
     34386.33649     26606.85147  21134608.578    21134607.231    21134621.037
       241.000         207.000
    262746.24549    202922.39347  20906042.892    20906041.726    20906056.294
       237.000         201.000
  -2011199.16649  -1551136.22545  23315182.724    23315182.520    23315202.585
       217.000         158.000
   1362173.96449   1051712.14845  23830783.497    23830781.855    23830803.039
       212.000         157.000
  -2191011.44449  -1692281.29747  21867213.756    21867212.948    21867230.863
       233.000         188.000
   -504907.88949   -389003.37847  19655103.926    19655102.668    19655115.511
       237.000         207.000
    703420.32149    541365.03945  24973384.879    24973382.844    24973408.908
       212.000         145.000
  -1376061.78149  -1061888.61045  23545756.282    23545755.690    23545776.342
       218.000         162.000
   1523623.21349   1175538.66845  24317536.081    24317534.830    24317557.397
       211.000         139.000
 01 12 19 20 13 29.9980000  0 10G28G 2G27G26G31G 7G 8G10G11G13
   -798021.25149   -614497.04147  20364870.039    20364869.026    20364881.192
       235.000         204.000
     37669.61849     29165.22247  21135233.404    21135232.068    21135245.882
       241.000         207.000
    280724.85549    216931.60947  20909464.179    20909463.012    20909477.615
       237.000         201.000
  -2116447.55449  -1633147.81545  23295154.471    23295154.274    23295174.313
       216.000         160.000
   1438373.16849   1111087.83045  23845284.088    23845282.318    23845303.545
       211.000         155.000
  -2308467.14749  -1783805.07747  21844862.513    21844861.752    21844879.604
       233.000         188.000
   -528042.15749   -407030.07247  19650701.606    19650700.376    19650713.219
       237.000         207.000
    742787.31549    572040.37945  24980876.303    24980874.282    24980900.472
       210.000         144.000
  -1448144.63549  -1118056.91045  23532039.354    23532038.712    23532059.330
       219.000         162.000
   1607545.32349   1240932.05745  24333506.304    24333504.888    24333527.771
       210.000         140.000
 01 12 19 20 13 59.9980000  0 10G28G 2G27G26G31G 7G 8G10G11G13
   -836128.55249   -644191.04247  20357618.433    20357617.425    20357629.613
       235.000         205.000
     41083.67949     31825.49647  21135883.134    21135881.802    21135895.610
       242.000         208.000
    299078.12249    231232.76247  20912956.779    20912955.594    20912970.232
       237.000         200.000
  -2221302.47849  -1714852.81545  23275201.117    23275200.946    23275220.933
       217.000         160.000
   1514778.49449   1170624.11345  23859823.596    23859821.940    23859843.208
       212.000         157.000
  -2425629.41349  -1875100.20947  21822567.163    21822566.404    21822584.202
       233.000         189.000
   -550781.21349   -424748.80747  19646374.501    19646373.284    19646386.118
       237.000         206.000
    782258.29649    602796.77945  24988387.556    24988385.538    24988411.789
       211.000         146.000
  -1519870.61149  -1173947.09946  23518390.291    23518389.626    23518410.207
       221.000         164.000
   1691478.90349   1306334.39445  24349478.731    24349477.163    24349500.102
       211.000         143.000
 01 12 19 20 14 29.9980000  0  9G28G 2G27G26G31G 7G 8G11G13
   -873954.62349   -673665.90447  20350420.368    20350419.352    20350431.589
       236.000         205.000
     44645.79049     34601.12847  21136561.017    21136559.693    21136573.496
       241.000         208.000
    317824.09049    245839.93047  20916524.142    20916522.930    20916537.590
       237.000         200.000
  -2325743.77749  -1796235.49545  23255326.477    23255326.330    23255346.307
       217.000         160.000
   1591405.18249   1230332.87945  23874405.379    23874403.723    23874425.079
       212.000         156.000
  -2542478.45949  -1966151.26347  21800331.412    21800330.648    21800348.412
       234.000         189.000
   -573106.11949   -442144.82847  19642126.194    19642124.982    19642137.844
       237.000         207.000
  -1591219.49749  -1229543.40946  23504812.928    23504812.275    23504832.834
       221.000         163.000
   1775439.34149   1371757.61245  24365456.063    24365454.580    24365477.736
       208.000         138.000
 01 12 19 20 14 59.9980000  0  9G28G 2G27G26G31G 7G 8G11G13
   -911490.02849   -702914.27447  20343277.663    20343276.624    20343288.862
       236.000         205.000
     48365.78849     37499.78547  21137268.944    21137267.607    21137281.433
       242.000         207.000
    336973.06449    260761.13347  20920168.123    20920166.926    20920181.619
       237.000         200.000
  -2429758.60149  -1877285.86645  23235533.002    23235532.838    23235552.854
       215.000         160.000
   1668260.87949   1290220.09445  23889030.674    23889029.071    23889050.476
       209.000         155.000
  -2659001.81149  -2056948.54047  21778157.671    21778156.877    21778174.636
       233.000         190.000
   -595005.52849   -459209.29147  19637958.905    19637957.675    19637970.535
       237.000         207.000
  -1662178.60649  -1284835.98646  23491309.682    23491309.102    23491329.652
       221.000         164.000
   1859434.68149   1437207.96445  24381440.089    24381438.650    24381462.142
       208.000         133.000
 01 12 19 20 15 29.9980000  0  9G28G 2G27G26G31G 7G 8G11G13
   -948735.40749   -731936.65647  20336190.157    20336189.089    20336201.320
       236.000         205.000
     52243.20349     40521.10447  21138006.843    21138005.494    21138019.305
       241.000         208.000
    356525.19049    275996.47247  20923888.861    20923887.651    20923902.365
       237.000         200.000
  -2533344.82449  -1958002.23846  23215821.164    23215820.915    23215840.922
       220.000         163.000
   1745342.78049   1350283.56945  23903699.022    23903697.440    23903718.975
       212.000         156.000
  -2775197.58349  -2147490.55747  21756046.239    21756045.450    21756063.220
       233.000         190.000
   -616478.72449   -475941.64447  19633872.669    19633871.471    19633884.338
       236.000         207.000
  -1732745.65749  -1339823.05046  23477881.078    23477880.519    23477901.073
       221.000         164.000
   1943462.15149   1502683.41445  24397430.439    24397428.879    24397452.395
       206.000         138.000
 01 12 19 20 15 59.9980000  0  9G28G 2G27G26G31G 7G 8G11G13
   -985707.53649   -760746.11347  20329154.674    20329153.560    20329165.770
       236.000         205.000
     56261.27449     43652.02047  21138771.494    21138770.153    21138783.956
       242.000         207.000
    376464.49749    291533.51947  20927683.299    20927682.062    20927696.789
       236.000         199.000
  -2636516.05149  -2038395.24846  23196188.292    23196188.005    23196207.946
       221.000         166.000
   1822631.83749   1410508.47345  23918406.751    23918405.223    23918426.930
       210.000         156.000
  -2891079.90749  -2237788.32647  21733994.408    21733993.656    21734011.453
       234.000         191.000
   -637540.73049   -492353.59047  19629864.741    19629863.521    19629876.397
       237.000         206.000
  -1802934.25049  -1394515.17346  23464524.525    23464523.962    23464544.468
       219.000         164.000
   2027503.48649   1568169.64145  24413423.286    24413421.762    24413445.259
       205.000         137.000
 01 12 19 20 16 29.9980000  0  9G28G 2G27G26G31G 7G 8G11G13
  -1022407.45849   -789343.45847  20322170.930    20322169.822    20322181.990
       235.000         205.000
     60419.19249     46891.90747  21139562.756    21139561.434    21139575.210
       242.000         208.000
    396790.70149    307372.03847  20931551.304    20931550.078    20931564.831
       237.000         199.000
  -2739270.30749  -2118463.35146  23176634.669    23176634.435    23176654.372
       219.000         164.000
   1900124.88449   1470892.33545  23933153.411    23933151.920    23933173.716
       211.000         155.000
  -3006646.96649  -2327840.43547  21712002.591    21712001.849    21712019.680
       234.000         192.000
   -658191.23749   -508444.88847  19625935.058    19625933.867    19625946.740
       237.000         207.000
  -1872742.75049  -1448911.10046  23451240.263    23451239.723    23451260.205
       219.000         165.000
   2111555.74549   1633664.34745  24429418.257    24429416.654    24429440.323
       206.000         134.000
 01 12 19 20 16 59.9980000  0  9G28G 2G27G26G31G 7G 8G11G13
  -1058910.76149   -817787.59147  20315224.582    20315223.479    20315235.635
       236.000         204.000
     64641.54049     50181.99347  21140366.317    21140364.959    21140378.737
       241.000         207.000
    417429.01849    323453.76347  20935478.698    20935477.491    20935492.255
       236.000         199.000
  -2841680.33549  -2198263.19946  23157146.583    23157146.389    23157166.262
       223.000         167.000
   1977744.19349   1531374.59945  23947924.138    23947922.607    23947944.571
       209.000         156.000
  -3121972.03049  -2417703.96347  21690056.775    21690056.084    21690073.955
       233.000         192.000
   -678504.06849   -524273.05947  19622069.694    19622068.477    19622081.337
       238.000         207.000
  -1942243.64549  -1503067.31446  23438014.370    23438013.945    23438034.421
       219.000         165.000
   2195541.71549   1699107.42445  24445400.549    24445398.934    24445422.643
       206.000         135.000
 01 12 19 20 17 29.9980000  0  9G28G 2G27G26G31G 7G 8G11G13
  -1095141.41649   -846019.27347  20308330.101    20308329.016    20308341.159
       235.000         204.000
     69004.45049     53581.60547  21141196.516    21141195.224    21141209.022
       241.000         207.000
    438456.20749    339838.50347  20939480.091    20939478.885    20939493.690
       236.000         199.000
  -2943666.99249  -2277733.17946  23137739.105    23137738.875    23137758.711
       220.000         167.000
   2055563.90349   1592013.02845  23962732.963    23962731.425    23962753.475
       212.000         156.000
  -3236976.19549  -2507317.43547  21668172.018    21668171.373    21668189.292
       234.000         192.000
   -698401.76049   -539777.74447  19618283.314    19618282.086    19618294.954
       238.000         207.000
  -2011357.86549  -1556922.23446  23424862.088    23424861.730    23424882.227
       218.000         165.000
   2279535.30149   1764556.41045  24461384.419    24461382.662    24461406.398
       206.000         134.000
 01 12 19 20 17 59.9980000  0  9G28G 2G27G26G31G 7G 8G11G13
  -1131063.19849   -874010.26547  20301494.376    20301493.321    20301505.463
       235.000         204.000
     73544.39049     57119.16347  21142060.410    21142059.176    21142072.999
       241.000         207.000
    459909.38349    356555.17647  20943562.517    20943561.348    20943576.194
       236.000         199.000
  -3045190.97849  -2356842.61346  23118419.558    23118419.380    23118439.202
       220.000         167.000
   2133618.39349   1652834.39745  23977586.581    23977584.977    23977607.081
       213.000         156.000
  -3351620.42749  -2596650.44747  21646355.795    21646355.164    21646373.085
       235.000         192.000
   -717846.23949   -554929.27947  19614583.165    19614581.937    19614594.797
       237.000         208.000
  -2080046.06949  -1610445.20246  23411790.874    23411790.566    23411811.098
       218.000         165.000
   2363571.27249   1830038.40044  24477376.499    24477374.529    24477398.451
       203.000         131.000
 01 12 19 20 18 29.9980000  0  9G28G 2G27G26G31G 7G 8G11G13
  -1166704.79449   -901782.93247  20294711.963    20294710.929    20294723.096
       235.000         204.000
     78232.88549     60772.47447  21142952.595    21142951.402    21142965.225
       241.000         207.000
    481760.47049    373581.89847  20947720.648    20947719.520    20947734.380
       236.000         199.000
  -3146278.11949  -2435611.64546  23099183.184    23099183.026    23099202.852
       219.000         167.000
   2211876.95049   1713814.79645  23992478.896    23992477.294    23992499.475
       211.000         156.000
  -3465930.92149  -2685723.38447  21624603.101    21624602.483    21624620.382
       235.000         192.000
   -736864.86049   -569748.97447  19610963.988    19610962.802    19610975.684
       237.000         207.000
  -2148334.30349  -1663656.50046  23398795.724    23398795.523    23398816.091
       220.000         167.000
   2447619.10749   1895529.59745  24493370.564    24493368.669    24493392.835
       205.000         133.000
 01 12 19 20 18 59.9980000  0  9G28G 2G27G26G31G 7G 8G11G13
  -1202097.89549   -929361.95947  20287976.867    20287975.843    20287987.998
       235.000         204.000
     83038.25949     64516.85947  21143867.061    21143865.870    21143879.696
       241.000         207.000
    503978.41849    390894.48347  20951948.627    20951947.518    20951962.394
       235.000         199.000
  -3246957.12749  -2514062.64346  23080024.431    23080024.313    23080044.135
       222.000         168.000
   2290305.64049   1774927.76745  24007403.679    24007402.024    24007424.254
       213.000         155.000
  -3579936.77549  -2774558.92947  21602908.394    21602907.760    21602925.656
       233.000         192.000
   -755487.79549   -584260.35047  19607420.119    19607418.960    19607431.863
       237.000         207.000
  -2216251.19649  -1716578.45746  23385871.363    23385871.180    23385891.711
       220.000         166.000
   2531645.28149   1961003.99545  24509360.595    24509358.714    24509382.844
       206.000         134.000
 01 12 19 20 19 29.9980000  0  9G28G 2G27G26G31G 7G 8G11G13
  -1237222.43249   -956731.71347  20281292.903    20281291.864    20281304.020
       235.000         204.000
     87980.90549     68368.21547  21144807.649    21144806.453    21144820.291
       241.000         206.000
    526584.16749    408509.26347  20956250.469    20956249.319    20956264.223
       236.000         199.000
  -3347204.98649  -2592177.68746  23060947.828    23060947.704    23060967.473
       223.000         171.000
   2368922.74749   1836187.57445  24022364.210    24022362.570    24022384.855
       210.000         155.000
  -3693615.27749  -2863139.38147  21581275.924    21581275.317    21581293.229
       236.000         192.000
   -773693.29749   -598446.44947  19603955.722    19603954.576    19603967.490
       238.000         207.000
  -2283773.57649  -1769193.01246  23373022.116    23373021.908    23373042.458
       220.000         167.000
   2615668.24449   2026475.86845  24525350.178    24525348.132    24525372.322
       204.000         133.000
 01 12 19 20 19 59.9980000  0  9G28G 2G27G26G31G 7G 8G11G13
  -1272096.24149   -983906.09847  20274656.619    20274655.605    20274667.738
       235.000         204.000
     93043.11349     72312.73147  21145770.990    21145769.788    21145783.642
       241.000         206.000
    549560.57249    426412.85847  20960622.818    20960621.662    20960636.601
       235.000         198.000
  -3447036.46849  -2669968.27646  23041950.496    23041950.313    23041970.078
       225.000         173.000
   2447708.24249   1897578.59445  24037356.773    24037355.184    24037377.594
       211.000         155.000
  -3806981.64949  -2951476.60447  21559702.882    21559702.275    21559720.187
       236.000         193.000
   -791497.77949   -612320.07047  19600567.651    19600566.495    19600579.429
       237.000         208.000
  -2350916.58949  -1821511.98946  23360244.970    23360244.799    23360265.343
       221.000         167.000
   2699668.35249   2091929.91544  24541335.091    24541333.183    24541357.416
       200.000         131.000
 01 12 19 20 20 29.9980000  0  9G28G 2G27G26G31G 7G 8G11G13
  -1306719.33849  -1010885.11747  20268068.045    20268067.039    20268079.178
       236.000         204.000
     98225.01049     76350.51247  21146757.121    21146755.894    21146769.757
       241.000         206.000
    572908.05849    444605.60147  20965065.790    20965064.624    20965079.589
       236.000         199.000
  -3546448.77649  -2747432.25946  23023032.992    23023032.718    23023052.379
       226.000         174.000
   2526660.17149   1959099.29945  24052380.963    24052379.445    24052401.974
       210.000         153.000
  -3920033.41849  -3039568.68247  21538189.721    21538189.110    21538206.999
       235.000         193.000
   -808899.72749   -625880.02647  19597256.155    19597255.026    19597267.935
       238.000         208.000
  -2417677.29249  -1873533.05746  23347540.608    23347540.442    23347560.956
       221.000         166.000
   2783643.76549   2157364.69444  24557315.524    24557313.506    24557337.988
       205.000         131.000
 01 12 19 20 20 59.9980000  0  9G28G 2G27G26G31G 7G 8G11G13
  -1341101.44249  -1037676.34747  20261525.327    20261524.329    20261536.491
       235.000         205.000
    103516.97249     80474.05447  21147764.116    21147762.934    21147776.824
       241.000         206.000
    596617.48249    463080.36347  20969577.636    20969576.468    20969591.444
       236.000         199.000
  -3645448.85949  -2824575.01246  23004193.777    23004193.542    23004213.126
       223.000         171.000
   2605766.63949   2020740.40145  24067434.830    24067433.137    24067455.761
       211.000         154.000
  -4032777.82449  -3127421.24947  21516735.035    21516734.422    21516752.265
       236.000         194.000
   -825907.59749   -639132.91447  19594019.671    19594018.529    19594031.446
       238.000         207.000
  -2484062.76149  -1925261.75946  23334907.622    23334907.497    23334927.974
       222.000         166.000
   2867582.85249   2222771.17444  24573288.806    24573287.036    24573311.574
       200.000         131.000
 01 12 19 20 21 29.9980000  0  9G28G 2G27G26G31G 7G 8G11G13
  -1375231.99549  -1064271.57147  20255030.500    20255029.525    20255041.655
       235.000         205.000
    108930.00249     84691.93447  21148794.195    21148793.038    21148806.947
       241.000         206.000
    620700.28049    481846.07347  20974160.552    20974159.356    20974174.337
       236.000         198.000
  -3744022.97449  -2901385.81846  22985435.577    22985435.406    22985454.957
       223.000         171.000
   2685036.24949   2082508.62145  24082519.648    24082517.864    24082540.556
       211.000         153.000
  -4145201.39049  -3215023.80747  21495341.448    21495340.792    21495358.600
       236.000         194.000
   -842508.96349   -652069.04647  19590860.576    19590859.406    19590872.326
       237.000         207.000
  -2550059.19149  -1976687.31846  23322348.775    23322348.584    23322369.006
       221.000         167.000
   2951494.79949   2288156.54644  24589257.053    24589255.398    24589279.953
       199.000         130.000
 01 12 19 20 21 59.9980000  0  9G28G 2G27G26G31G 7G 8G11G13
  -1409107.13649  -1090667.76947  20248584.324    20248583.322    20248595.425
       236.000         205.000
    114468.10049     89007.27847  21149848.158    21149846.947    21149860.891
       242.000         206.000
    645161.08449    500906.32347  20978815.304    20978814.156    20978829.185
       235.000         198.000
  -3842164.41149  -2977859.48646  22966759.750    22966759.594    22966779.088
       223.000         171.000
   2764470.90149   2144405.45445  24097635.815    24097633.938    24097656.760
       212.000         154.000
  -4257297.86049  -3302371.48147  21474010.139    21474009.443    21474027.167
       237.000         195.000
   -858698.66349   -664684.40147  19587779.755    19587778.623    19587791.508
       237.000         207.000
  -2615659.93549  -2027804.57346  23309865.151    23309864.985    23309885.312
       221.000         166.000
   3035381.85349   2353522.47245  24605220.774    24605218.999    24605243.878
       204.000         133.000
 01 12 19 20 22 29.9980000  0  9G28G 2G27G26G31G 7G 8G11G13
  -1442751.83749  -1116884.40247  20242181.999    20242180.965    20242193.053
       236.000         205.000
    120106.60949     93400.85947  21150921.265    21150919.982    21150933.937
       241.000         207.000
    669975.36349    520241.99847  20983537.384    20983536.238    20983551.282
       235.000         198.000
  -3939895.31349  -3054013.25846  22948162.038    22948161.924    22948181.331
       225.000         172.000
   2844043.57149   2206409.82945  24112778.183    24112776.320    24112799.317
       211.000         152.000
  -4369089.58149  -3389481.68447  21452736.823    21452736.066    21452753.704
       237.000         195.000
   -874500.17449   -676997.27547  19584772.832    19584771.684    19584784.585
       237.000         207.000
  -2680887.23149  -2078630.84346  23297452.673    23297452.465    23297472.699
       221.000         167.000
   3119217.00649   2418847.99545  24621174.592    24621172.617    24621197.670
       202.000         133.000
 01 12 19 20 22 59.9980000  0  9G28G 2G27G26G31G 7G 8G11G13
  -1476129.16749  -1142892.70147  20235830.537    20235829.498    20235841.556
       236.000         205.000
    125882.63749     97901.59847  21152020.485    21152019.186    21152033.134
       242.000         206.000
    695180.69249    539882.39947  20988333.875    20988332.731    20988347.794
       235.000         197.000
  -4037175.86049  -3129816.11346  22929650.127    22929649.980    22929669.297
       225.000         172.000
   2923789.21249   2268548.98645  24127953.391    24127951.613    24127974.685
       209.000         152.000
  -4480537.16049  -3476323.73447  21431528.953    21431528.181    21431545.730
       237.000         195.000
   -889875.19449   -688977.82947  19581847.037    19581845.905    19581858.819
       237.000         206.000
  -2745700.96549  -2129134.86446  23285118.810    23285118.632    23285138.819
       220.000         167.000
   3203035.56949   2484160.56844  24637125.200    24637123.067    24637148.670
       205.000         127.000
 01 12 19 20 23 29.9980000  0  9G28G 2G27G26G31G 7G 8G11G13
  -1509240.21849  -1168693.51247  20229529.694    20229528.671    20229540.724
       235.000         205.000
    131795.49449    102508.96247  21153145.700    21153144.404    21153158.379
       241.000         207.000
    720776.72849    559827.23847  20993204.745    20993203.586    20993218.658
       235.000         198.000
  -4134004.16749  -3205266.53846  22911224.150    22911224.037    22911243.329
       223.000         172.000
   3003704.74549   2330820.52645  24143160.962    24143159.225    24143182.396
       212.000         153.000
  -4591639.16449  -3562896.49847  21410386.813    21410386.049    21410403.496
       238.000         196.000
   -904823.05249   -700625.52547  19579002.475    19579001.383    19579014.334
       237.000         206.000
  -2810099.59049  -2179315.43146  23272864.018    23272863.803    23272883.919
       222.000         167.000
   3286834.73849   2549458.06144  24653072.149    24653069.976    24653095.600
       201.000         128.000
 01 12 19 20 23 59.9980000  0  9G28G 2G27G26G31G 7G 8G11G13
  -1542104.92549  -1194302.35647  20223275.711    20223274.708    20223286.778
       235.000         205.000
    137825.43549    107207.56147  21154293.224    21154291.911    21154305.904
       241.000         207.000
    746744.19349    580061.50247  20998146.255    20998145.098    20998160.202
       235.000         197.000
  -4230397.19749  -3280377.80646  22892881.024    22892880.940    22892900.185
       225.000         173.000
   3083768.45549   2393207.49645  24158396.754    24158395.063    24158418.338
       209.000         151.000
  -4702412.86349  -3649213.44447  21389307.178    21389306.380    21389323.737
       237.000         196.000
   -919362.30949   -711954.83547  19576235.730    19576234.642    19576247.624
       237.000         206.000
  -2874100.29449  -2229185.96946  23260684.929    23260684.720    23260704.719
       221.000         166.000
   3370592.99749   2614723.69044  24669011.233    24669009.044    24669034.889
       195.000         131.000
 01 12 19 20 24 29.9980000  0  9G28G 2G27G26G31G 7G 8G11G13
  -1574705.52049  -1219705.40747  20217071.951    20217070.990    20217083.082
       235.000         205.000
    143990.31549    112011.30747  21155466.378    21155465.104    21155479.115
       242.000         207.000
    773101.16549    600599.26547  21003161.902    21003160.735    21003175.852
       236.000         197.000
  -4326334.83549  -3355134.21346  22874624.553    22874624.473    22874643.669
       226.000         174.000
   3163995.83249   2455722.04545  24173663.775    24173662.066    24173685.390
       209.000         151.000
  -4812838.26749  -3735259.00447  21368293.798    21368292.993    21368310.217
       238.000         196.000
   -933474.05049   -722951.02347  19573550.369    19573549.279    19573562.251
       237.000         206.000
  -2937682.70049  -2278730.57346  23248585.503    23248585.244    23248605.135
       223.000         167.000
   3454325.91649   2679969.55345  24684945.492    24684943.305    24684969.454
       204.000         133.000
 01 12 19 20 24 59.9980000  0  9G28G 2G27G26G31G 7G 8G11G13
  -1607063.02349  -1244919.02847  20210914.477    20210913.537    20210925.633
       235.000         205.000
    150269.64549    116904.23247  21156661.294    21156660.072    21156674.106
       242.000         207.000
    799827.49449    621424.84047  21008247.852    21008246.684    21008261.803
       235.000         197.000
  -4421834.85449  -3429549.62146  22856451.374    22856451.275    22856470.455
       226.000         173.000
   3244364.18549   2518346.44145  24188957.644    24188955.849    24188979.263
       210.000         152.000
  -4922933.55149  -3821047.32547  21347343.197    21347342.400    21347359.533
       238.000         195.000
   -947177.37949   -733628.97047  19570942.714    19570941.629    19570954.600
       238.000         207.000
  -3000864.73049  -2327963.20746  23236562.284    23236561.959    23236581.746
       221.000         168.000
   3538011.04549   2745178.20145  24700870.841    24700868.473    24700894.641
       203.000         133.000
 01 12 19 20 25 29.9980000  0  9G28G 2G27G26G31G 7G 8G11G13
  -1639219.48749  -1269976.00247  20204795.233    20204794.329    20204806.452
       235.000         204.000
    156621.41449    121853.61047  21157870.083    21157868.835    21157882.879
       242.000         207.000
    826881.47049    642505.71247  21013396.175    21013394.980    21013410.100
       235.000         197.000
  -4516936.66349  -3503654.73446  22838353.900    22838353.856    22838372.988
       226.000         173.000
   3324829.32449   2581046.26745  24204269.921    24204268.126    24204291.625
       209.000         150.000
  -5032738.61349  -3906609.51547  21326447.796    21326447.026    21326464.082
       237.000         195.000
   -960513.56249   -744020.83547  19568404.963    19568403.846    19568416.825
       237.000         206.000
  -3063686.05049  -2376914.78946  23224607.548    23224607.314    23224627.075
       221.000         168.000
   3621604.86849   2810315.67245  24716778.520    24716776.218    24716802.801
       199.000         132.000
 01 12 19 20 25 59.9980000  0  9G28G 2G27G26G31G 7G 8G11G13
  -1671145.87649  -1294853.68947  20198719.828    20198718.921    20198731.058
       235.000         205.000
    163075.01149    126882.34147  21159098.188    21159096.967    21159111.012
       241.000         207.000
    854292.60549    663864.90747  21018612.477    21018611.252    21018626.368
       235.000         197.000
  -4611608.34749  -3577424.69346  22820338.388    22820338.290    22820357.385
       227.000         172.000
   3405418.58749   2643842.81845  24219605.848    24219603.939    24219627.499
       210.000         150.000
  -5142221.86349  -3991920.93747  21305613.622    21305612.880    21305629.882
       237.000         195.000
   -973451.78049   -754102.60247  19565942.928    19565941.799    19565954.784
       238.000         207.000
  -3126114.76749  -2425560.45146  23212727.622    23212727.398    23212747.103
       222.000         169.000
   3705134.34949   2875403.03944  24732673.902    24732671.705    24732698.435
       200.000         130.000
 01 12 19 20 26 29.9980000  0  9G28G 2G27G26G31G 7G 8G11G13
  -1702839.33749  -1319549.87947  20192688.774    20192687.846    20192699.986
       235.000         205.000
    169633.70449    131992.95847  21160346.301    21160345.082    21160359.145
       241.000         207.000
    882064.67049    685505.34847  21023897.464    21023896.216    21023911.312
       236.000         196.000
  -4705844.14949  -3650854.99846  22802405.729    22802405.675    22802424.685
       226.000         172.000
   3486132.89249   2706736.81245  24234965.589    24234963.623    24234987.238
       211.000         150.000
  -5251377.70349  -4076977.24747  21284841.747    21284841.045    21284857.970
       237.000         196.000
   -985987.68349   -763870.88647  19563557.493    19563556.317    19563569.294
       238.000         207.000
  -3188144.87849  -2473895.51246  23200923.524    23200923.305    23200942.987
       222.000         168.000
   3788600.97749   2940441.39344  24748557.400    24748555.237    24748582.145
       201.000         129.000
 01 12 19 20 26 59.9980000  0  9G28G 2G27G26G31G 7G 8G11G13
  -1734299.85549  -1344064.54847  20186702.051    20186701.100    20186713.226
       236.000         205.000
    176297.33449    137185.34347  21161614.362    21161613.165    21161627.236
       241.000         207.000
    910197.65649    707427.02847  21029251.094    21029249.843    21029264.953
       235.000         196.000
  -4799641.58849  -3723943.73746  22784556.538    22784556.462    22784575.391
       225.000         171.000
   3566969.97749   2769726.49345  24250348.580    24250346.677    24250370.229
       210.000         148.000
  -5360204.02049  -4161776.79347  21264132.602    21264131.905    21264148.805
       237.000         196.000
   -998120.18549   -773324.82947  19561248.806    19561247.612    19561260.574
       238.000         206.000
  -3249773.97549  -2521918.09946  23189195.908    23189195.584    23189215.202
       223.000         168.000
   3872002.67149   3005429.18844  24764428.552    24764426.506    24764453.511
       197.000         130.000
 01 12 19 20 27 29.9980000  0  8G28G 2G27G26G31G 7G 8G11
  -1765532.71349  -1368401.82047  20180758.639    20180757.669    20180769.783
       235.000         205.000
    183061.07149    142455.73347  21162901.484    21162900.287    21162914.376
       241.000         206.000
    938686.96049    729626.35647  21034672.520    21034671.260    21034686.383
       235.000         195.000
  -4893003.02749  -3796692.72746  22766790.338    22766790.228    22766809.097
       224.000         171.000
   3647922.80249   2832806.34745  24265753.643    24265751.733    24265775.288
       210.000         148.000
  -5468703.41349  -4246321.59847  21243485.672    21243484.979    21243501.851
       237.000         197.000
  -1009853.12149   -782467.42247  19559016.143    19559014.930    19559027.881
       238.000         206.000
  -3311004.53149  -2569630.13546  23177543.983    23177543.666    23177563.267
       221.000         167.000
 01 12 19 20 27 59.9980000  0  8G28G 2G27G26G31G 7G 8G11
  -1796518.96449  -1392546.92947  20174862.093    20174861.155    20174873.260
       234.000         205.000
    189944.05849    147819.04647  21164211.322    21164210.120    21164224.224
       241.000         207.000
    967551.86249    752118.36047  21040165.393    21040164.170    21040179.291
       234.000         195.000
  -4985906.91349  -3869085.19746  22749111.077    22749111.053    22749129.881
       225.000         173.000
   3729008.28849   2895989.60245  24281184.084    24281182.096    24281205.678
       208.000         146.000
  -5576854.76149  -4330595.20247  21222904.938    21222904.278    21222921.167
       236.000         197.000
  -1021166.22449   -791282.87147  19556863.327    19556862.140    19556875.085
       238.000         207.000
  -3371815.17449  -2617014.94046  23165971.909    23165971.617    23165991.263
       220.000         167.000
 01 12 19 20 28 29.9980000  0  8G28G 2G27G26G31G 7G 8G11
  -1827287.71549  -1416522.55447  20169006.930    20169006.018    20169018.150
       234.000         205.000
    196917.74349    153253.03147  21165538.416    21165537.211    21165551.338
       241.000         206.000
    996764.02549    774880.96647  21045724.392    21045723.149    21045738.300
       234.000         195.000
  -5078379.60749  -3941141.67046  22731513.924    22731513.904    22731532.713
       224.000         174.000
   3810195.27349   2959251.93045  24296633.626    24296631.701    24296655.344
       209.000         146.000
  -5684684.65549  -4414618.33347  21202385.439    21202384.755    21202401.635
       237.000         197.000
  -1032087.00849   -799792.61447  19554785.212    19554784.010    19554796.969
       238.000         207.000
  -3432232.07449  -2664092.92846  23154474.825    23154474.542    23154494.187
       222.000         168.000
 01 12 19 20 28 59.9980000  0  8G28G 2G27G26G31G 7G 8G11
  -1857843.48749  -1440332.22047  20163192.344    20163191.420    20163203.557
       235.000         204.000
    203977.79949    158754.32847  21166881.915    21166880.743    21166894.878
       241.000         206.000
   1026319.29549    797910.92747  21051348.630    21051347.419    21051362.612
       234.000         195.000
  -5170422.75649  -4012863.41946  22713998.587    22713998.535    22714017.300
       225.000         174.000
   3891477.51149   3022588.51745  24312101.396    24312099.461    24312123.094
       209.000         145.000
  -5792195.06249  -4498392.52147  21181926.738    21181926.045    21181942.891
       237.000         197.000
  -1042618.91649   -807999.34047  19552781.104    19552779.888    19552792.846
       238.000         207.000
  -3492257.28849  -2710865.69346  23143052.354    23143052.025    23143071.684
       221.000         168.000
 01 12 19 20 29 29.9980000  0  8G28G 2G27G26G31G 7G 8G11
  -1888180.31649  -1463971.27947  20157419.390    20157418.488    20157430.639
       235.000         204.000
    211130.45849    164327.78647  21168243.068    21168241.892    21168256.037
       241.000         206.000
   1056223.90449    821213.10347  21057039.381    21057038.150    21057053.402
       234.000         195.000
  -5262027.82649  -4084243.82246  22696566.569    22696566.545    22696585.249
       224.000         174.000
   3972858.88849   3086002.30845  24327587.756    24327585.966    24327609.723
       208.000         144.000
  -5899377.69149  -4581911.29547  21161530.430    21161529.724    21161546.524
       238.000         198.000
  -1052754.39949   -815897.15547  19550852.461    19550851.222    19550864.166
       238.000         207.000
  -3551882.17949  -2757326.50246  23131706.040    23131705.685    23131725.321
       222.000         169.000
 01 12 19 20 29 59.9980000  0  8G28G 2G27G26G31G 7G 8G11
  -1918279.38349  -1487425.07047  20151691.726    20151690.804    20151702.984
       234.000         204.000
    218394.84449    169988.29947  21169625.524    21169624.309    21169638.439
       241.000         206.000
   1086497.10149    844802.49047  21062800.251    21062799.048    21062814.327
       234.000         195.000
  -5353173.21249  -4155266.03746  22679222.085    22679222.056    22679240.685
       224.000         174.000
   4054356.15149   3149506.42345  24343096.378    24343094.628    24343118.391
       206.000         143.000
  -6006211.41149  -4665158.20347  21141200.541    21141199.811    21141216.584
       238.000         198.000
  -1062473.53549   -823470.53747  19549003.008    19549001.767    19549014.717
       238.000         207.000
  -3611085.24649  -2803458.61646  23120440.093    23120439.674    23120459.237
       222.000         168.000
 01 12 19 20 30 29.9980000  0  8G28G 2G27G26G31G 7G 8G11
  -1948154.60049  -1510704.44147  20146006.610    20146005.708    20146017.910
       235.000         204.000
    225757.28349    175725.22047  21171026.659    21171025.373    21171039.509
       241.000         206.000
   1117125.41249    868668.59347  21068628.725    21068627.524    21068642.843
       234.000         195.000
  -5443870.20749  -4225938.86646  22661962.903    22661962.875    22661981.420
       224.000         173.000
   4135953.60749   3213088.58745  24358623.972    24358622.317    24358646.165
       210.000         144.000
  -6112707.93749  -4748142.36847  21120934.850    21120934.081    21120950.823
       239.000         199.000
  -1071789.10349   -830729.45647  19547230.370    19547229.124    19547242.061
       238.000         207.000
  -3669877.97049  -2849270.98346  23109252.146    23109251.719    23109271.219
       223.000         168.000
 01 12 19 20 30 59.9980000  0  8G28G 2G27G26G31G 7G 8G11
  -1977812.22549  -1533814.25547  20140362.895    20140362.023    20140374.225
       235.000         204.000
    233212.01249    181534.05747  21172445.316    21172444.002    21172458.148
       241.000         206.000
   1148103.10349    892806.93247  21074523.730    21074522.490    21074537.824
       234.000         194.000
  -5534122.49049  -4296265.14346  22644788.304    22644788.294    22644806.836
       223.000         173.000
   4217643.57149   3276742.84745  24374169.310    24374167.676    24374191.593
       207.000         140.000
  -6218870.88949  -4830866.60547  21100732.666    21100731.850    21100748.544
       238.000         199.000
  -1080705.90849   -837677.65247  19545533.631    19545532.366    19545545.282
       238.000         207.000
  -3728263.95649  -2894766.40146  23098141.626    23098141.161    23098160.601
       223.000         169.000
 01 12 19 20 31 29.9980000  0  8G28G 2G27G26G31G 7G 8G11
  -2007245.65949  -1556749.37647  20134761.869    20134760.987    20134773.196
       235.000         204.000
    240765.93449    187420.18847  21173882.853    21173881.529    21173895.655
       241.000         206.000
   1179437.14249    917222.94647  21080486.475    21080485.258    21080500.609
       234.000         194.000
  -5623920.59749  -4366237.53246  22627700.138    22627700.152    22627718.656
       225.000         173.000
   4299430.34949   3340472.56245  24389732.928    24389731.251    24389755.273
       206.000         141.000
  -6324691.44949  -4913324.03347  21080595.587    21080594.764    21080611.405
       238.000         199.000
  -1089215.93449   -844308.87347  19543914.232    19543913.006    19543925.916
       238.000         207.000
  -3786233.87349  -2939937.61046  23087110.244    23087109.768    23087129.144
       222.000         168.000
 01 12 19 20 31 59.9980000  0  8G28G 2G27G26G31G 7G 8G11
  -2036461.09149  -1579514.62747  20129202.337    20129201.444    20129213.664
       235.000         205.000
    248413.14449    193379.00947  21175338.041    21175336.790    21175350.907
       241.000         206.000
   1211121.84749    941912.20247  21086515.952    21086514.751    21086530.141
       233.000         194.000
  -5713268.34149  -4435859.00546  22610697.721    22610697.717    22610716.174
       225.000         175.000
   4381305.90249   3404271.40745  24405313.575    24405311.922    24405336.065
       207.000         139.000
  -6430173.49949  -4995517.69647  21060522.923    21060522.099    21060538.686
       239.000         200.000
  -1097324.19349   -850627.02147  19542371.324    19542370.100    19542383.006
       238.000         207.000
  -3843791.68249  -2984787.68746  23076157.209    23076156.770    23076176.130
       224.000         168.000
 01 12 19 20 32 29.9980000  0  8G28G 2G27G26G31G 7G 8G11
  -2065458.55749  -1602110.04247  20123684.292    20123683.428    20123695.612
       235.000         205.000
    256154.05149    199410.83947  21176811.063    21176809.870    21176823.997
       241.000         206.000
   1243157.54449    966874.95047  21092612.194    21092611.022    21092626.454
       233.000         193.000
  -5802162.85349  -4505127.29946  22593781.595    22593781.574    22593799.967
       226.000         174.000
   4463268.51149   3468138.12645  24420910.696    24420909.028    24420933.136
       206.000         138.000
  -6535314.59749  -5077445.68647  21040515.183    21040514.320    21040530.845
       239.000         200.000
  -1105029.33449   -856631.05547  19540905.103    19540903.875    19540916.807
       238.000         207.000
  -3900934.56849  -3029314.46546  23065283.125    23065282.711    23065302.074
       223.000         168.000
 01 12 19 20 32 59.9980000  0  8G28G 2G27G26G31G 7G 8G11
  -2094233.60649  -1624532.15347  20118208.645    20118207.725    20118219.865
       235.000         205.000
    263993.27849    205519.28247  21178302.879    21178301.659    21178315.799
       241.000         205.000
   1275548.75949    992114.72547  21098776.107    21098774.937    21098790.435
       232.000         193.000
  -5890597.22249  -4574037.04746  22576952.988    22576952.970    22576971.323
       227.000         175.000
   4545320.61049   3532074.55445  24436524.861    24436523.266    24436547.417
       200.000         134.000
  -6640108.06749  -5159102.79247  21020573.568    21020572.699    21020589.147
       239.000         200.000
  -1112325.83849   -862316.67047  19539516.652    19539515.428    19539528.365
       238.000         207.000
  -3957655.76549  -3073512.65446  23054489.292    23054488.885    23054508.235
       223.000         168.000
 01 12 19 20 33 29.9980000  0  8G28G 2G27G26G31G 7G 8G11
  -2122808.58149  -1646798.36347  20112771.045    20112770.094    20112782.197
       236.000         205.000
    271908.86949    211687.22947  21179809.240    21179807.978    21179822.118
       241.000         206.000
   1308273.56349   1017614.44147  21105003.521    21105002.337    21105017.891
       233.000         193.000
  -5978591.30049  -4642603.72546  22560208.166    22560208.150    22560226.428
       227.000         176.000
   4627437.96649   3596061.78845  24452151.304    24452149.784    24452174.210
       204.000         137.000
  -6744574.08749  -5240504.73647  21000694.271    21000693.386    21000709.767
       240.000         200.000
  -1119234.85849   -867700.33447  19538201.904    19538200.710    19538213.646
       238.000         207.000
  -4013975.14749  -3117397.73146  23043771.958    23043771.552    23043790.929
       223.000         170.000
 01 12 19 20 33 59.9980000  0  7G28G 2G27G26G 7G 8G11
  -2151179.38949  -1668905.48947  20107372.274    20107371.316    20107383.381
       236.000         205.000
    279905.35349    217918.21247  21181330.928    21181329.690    21181343.852
       241.000         206.000
   1341336.49549   1043377.63247  21111295.259    21111294.094    21111309.688
       233.000         193.000
  -6066138.31549  -4710822.04646  22543548.428    22543548.388    22543566.610
       226.000         173.000
  -6848706.09749  -5321646.40747  20980878.458    20980877.610    20980893.954
       239.000         200.000
  -1125751.00449   -872777.86447  19536961.952    19536960.764    19536973.694
       238.000         207.000
  -4069885.91349  -3160964.39046  23033132.350    23033131.970    23033151.344
       224.000         168.000
 01 12 19 20 34 29.9980000  0  7G28G 2G27G26G 7G 8G11
  -2179332.70649  -1690843.14447  20102014.799    20102013.892    20102025.947
       235.000         204.000
    287996.35149    224222.83747  21182870.619    21182869.396    21182883.563
       241.000         206.000
   1374751.04449   1069414.81347  21117653.949    21117652.766    21117668.397
       232.000         193.000
  -6153222.55649  -4778679.77346  22526976.605    22526976.641    22526994.851
       225.000         172.000
  -6952488.71349  -5402515.82247  20961129.139    20961128.324    20961144.623
       240.000         200.000
  -1131859.89449   -877538.06547  19535799.475    19535798.281    19535811.233
       238.000         207.000
  -4125372.61449  -3204200.60646  23022573.506    23022573.095    23022592.436
       223.000         169.000
 01 12 19 20 34 59.9980000  0  7G28G 2G27G26G 7G 8G11
  -2207278.43249  -1712619.03547  20096696.879    20096695.975    20096708.036
       235.000         205.000
    296172.06549    230593.47647  21184426.434    21184425.205    21184439.392
       241.000         206.000
   1408507.51349   1095718.41747  21124077.677    21124076.504    21124092.173
       232.000         193.000
  -6239851.40349  -4846182.63746  22510491.527    22510491.574    22510509.749
       224.000         170.000
  -7055929.67249  -5483119.00547  20941444.874    20941444.061    20941460.292
       239.000         200.000
  -1137570.22149   -881987.68047  19534712.800    19534711.655    19534724.621
       238.000         206.000
  -4180442.81549  -3247112.28046  23012093.840    23012093.449    23012112.779
       223.000         169.000
 01 12 19 20 35 29.9980000  0  7G28G 2G27G26G 7G 8G11
  -2235003.46049  -1734222.94947  20091420.961    20091420.066    20091432.120
       236.000         205.000
    304446.13849    237040.76647  21186000.898    21185999.736    21186013.940
       241.000         206.000
   1442619.36749   1122298.95747  21130569.014    21130567.852    21130583.573
       232.000         192.000
  -6326009.17249  -4913318.42246  22494096.078    22494096.125    22494114.282
       223.000         170.000
  -7159013.41849  -5563443.84247  20921828.565    20921827.764    20921843.934
       240.000         201.000
  -1142867.57449   -886115.50147  19533704.736    19533703.605    19533716.567
       238.000         207.000
  -4235080.73749  -3289687.10046  23001696.427    23001696.063    23001715.404
       223.000         169.000
 01 12 19 20 35 59.9970000  0  7G28G 2G27G26G 7G 8G11
  -2262509.01949  -1755655.85947  20086186.769    20086185.894    20086197.957
       237.000         205.000
    312816.32249    243562.94147  21187593.738    21187592.544    21187606.810
       240.000         206.000
   1477083.48949   1149153.99347  21137127.378    21137126.220    21137142.015
       232.000         191.000
  -6411692.74649  -4980084.70446  22477790.949    22477790.968    22477809.069
       226.000         173.000
  -7261736.60349  -5643487.72247  20902280.877    20902280.067    20902296.176
       240.000         201.000
  -1147753.07849   -889922.41447  19532775.055    19532773.930    19532786.893
       239.000         207.000
  -4289284.27249  -3331923.44046  22991381.750    22991381.353    22991400.639
       224.000         169.000
 01 12 19 20 36 29.9970000  0  7G28G 2G27G26G 7G 8G11
  -2289810.61049  -1776929.83547  20080991.417    20080990.554    20081002.615
       238.000         205.000
    321270.16249    250150.30447  21189202.422    21189201.270    21189215.622
       240.000         206.000
   1511888.70649   1176274.81747  21143750.641    21143749.524    21143765.358
       231.000         192.000
  -6496918.89349  -5046494.54346  22461572.810    22461572.837    22461590.911
       225.000         175.000
  -7364117.62049  -5723264.97647  20882798.275    20882797.496    20882813.522
       240.000         200.000
  -1152239.22649   -893418.14047  19531921.364    19531920.262    19531933.208
       238.000         206.000
  -4343068.67349  -3373833.19746  22981146.755    22981146.388    22981165.624
       223.000         170.000
 01 12 19 20 36 59.9970000  0  7G28G 2G27G26G 7G 8G11
  -2316899.55149  -1798038.10247  20075836.531    20075835.679    20075847.742
       236.000         205.000
    329815.33049    256808.82947  21190828.529    21190827.401    21190841.792
       240.000         206.000
   1547041.83649   1203666.74747  21150440.186    21150439.035    21150454.914
       232.000         192.000
  -6581674.82049  -5112537.98646  22445444.192    22445444.205    22445462.272
       225.000         175.000
  -7466143.09649  -5802765.18847  20863383.369    20863382.571    20863398.514
       239.000         200.000
  -1156317.29749   -896595.86947  19531145.296    19531144.225    19531157.203
       238.000         206.000
  -4396421.99749  -3415407.06346  22970993.786    22970993.454    22971012.653
       222.000         169.000
 01 12 19 20 37 29.9970000  0  7G28G 2G27G26G 7G 8G11
  -2343769.97449  -1818976.09647  20070723.189    20070722.373    20070734.473
       236.000         205.000
    338458.10749    263543.41347  21192473.230    21192472.099    21192486.516
       241.000         206.000
   1582548.98049   1231334.53647  21157197.092    21157195.939    21157211.811
       232.000         192.000
  -6665952.03949  -5178208.42646  22429406.684    22429406.675    22429424.729
       226.000         177.000
  -7567805.03349  -5881982.11947  20844037.578    20844036.808    20844052.684
       239.000         200.000
  -1159980.24349   -899450.12547  19530448.285    19530447.191    19530460.172
       238.000         206.000
  -4449336.11449  -3456638.68446  22960924.345    22960924.057    22960943.247
       224.000         169.000
 01 12 19 20 37 59.9970000  0  7G28G 2G27G26G 7G 8G11
  -2370439.35249  -1839757.42947  20065648.207    20065647.363    20065659.443
       237.000         206.000
    347181.49749    270340.81347  21194133.332    21194132.159    21194146.583
       241.000         206.000
   1618393.01549   1259264.84847  21164018.061    21164016.930    21164032.826
       231.000         192.000
  -6749765.49549  -5243517.47246  22413457.346    22413457.372    22413475.453
       225.000         177.000
  -7669118.38549  -5960927.42647  20824758.108    20824757.368    20824773.208
       239.000         200.000
  -1163244.29849   -901993.56447  19529827.124    19529826.039    19529839.056
       238.000         206.000
  -4501825.74549  -3497539.55046  22950935.733    22950935.458    22950954.613
       223.000         169.000
 01 12 19 20 38 29.9970000  0  7G28G 2G27G26G 7G 8G11
  -2396914.15449  -1860387.14247  20060610.249    20060609.380    20060621.463
       237.000         205.000
    355979.16649    277196.08747  21195807.510    21195806.343    21195820.773
       241.000         206.000
   1654567.33749   1287452.52347  21170901.897    21170900.760    21170916.711
       232.000         192.000
  -6833119.45949  -5308468.49446  22397595.493    22397595.541    22397613.579
       225.000         178.000
  -7770087.80649  -6039604.73347  20805544.064    20805543.362    20805559.178
       240.000         201.000
  -1166114.91449   -904230.42347  19529280.844    19529279.778    19529292.790
       238.000         206.000
  -4553895.37049  -3538113.15046  22941027.160    22941026.840    22941045.888
       224.000         170.000
 01 12 19 20 38 59.9970000  0  7G28G 2G27G26G 7G 8G11
  -2423189.23049  -1880861.21747  20055610.254    20055609.394    20055621.493
       237.000         206.000
    364856.80449    284113.67747  21197496.947    21197495.743    21197510.182
       241.000         206.000
   1691077.43249   1315901.84047  21177849.572    21177848.480    21177864.466
       231.000         191.000
  -6916006.23649  -5373055.43546  22381822.539    22381822.576    22381840.653
       226.000         178.000
  -7870706.07749  -6118008.42347  20786396.862    20786396.187    20786411.972
       239.000         201.000
  -1168585.87149   -906155.85147  19528810.635    19528809.563    19528822.605
       238.000         206.000
  -4605537.76149  -3578353.86946  22931199.785    22931199.502    22931218.484
       225.000         170.000
 01 12 19 20 39 29.9970000  0  7G28G 2G27G26G 7G 8G11
  -2449275.55849  -1901188.21647  20050646.170    20050645.319    20050657.445
       237.000         205.000
    373803.71549    291085.24747  21199199.473    21199198.323    21199212.773
       240.000         205.000
   1727912.35149   1344604.27047  21184859.078    21184858.007    21184874.056
       231.000         192.000
  -6998434.70749  -5437285.26546  22366136.760    22366136.821    22366154.915
       226.000         177.000
  -7970981.96049  -6196145.31947  20767314.844    20767314.181    20767329.920
       240.000         201.000
  -1170667.12749   -907777.61447  19528414.585    19528413.532    19528426.574
       238.000         206.000
  -4656761.35649  -3618268.27246  22921452.159    22921451.852    22921470.772
       223.000         170.000
 01 12 19 20 39 59.9970000  0  7G28G 2G27G26G 7G 8G11
  -2475154.12549  -1921353.31947  20045721.592    20045720.755    20045732.928
       237.000         205.000
    382839.29949    298125.90547  21200918.910    21200917.759    21200932.237
       241.000         205.000
   1765091.31549   1373574.78747  21191934.043    21191932.997    21191949.092
       230.000         190.000
  -7080383.39749  -5501141.24946  22350542.302    22350542.376    22350560.464
       224.000         175.000
  -8070894.42149  -6273999.02847  20748302.017    20748301.342    20748317.056
       240.000         202.000
  -1172338.59249   -909080.05947  19528096.479    19528095.457    19528108.521
       238.000         207.000
  -4707545.11649  -3657839.95946  22911788.129    22911787.874    22911806.739
       224.000         170.000
 01 12 19 20 40 29.9970000  0  7G28G 2G27G26G 7G 8G11
  -2500824.81749  -1941356.45047  20040836.568    20040835.763    20040847.950
       237.000         205.000
    391964.10249    305236.08847  21202655.327    21202654.169    21202668.674
       240.000         205.000
   1802614.52149   1402813.53347  21199074.596    21199073.513    21199089.623
       232.000         190.000
  -7161849.79149  -5564621.40046  22335039.606    22335039.661    22335057.778
       226.000         175.000
  -8170441.21149  -6351567.80547  20729358.779    20729358.099    20729373.796
       240.000         203.000
  -1173599.24249   -910062.39647  19527856.607    19527855.566    19527868.649
       238.000         207.000
  -4757886.64649  -3697067.07246  22902208.290    22902208.055    22902226.869
       224.000         170.000
 01 12 19 20 40 59.9970000  0  7G28G 2G27G26G 7G 8G11
  -2526286.43849  -1961196.66447  20035991.486    20035990.603    20036002.739
       238.000         205.000
    401179.75749    312417.06347  21204409.054    21204407.885    21204422.411
       240.000         205.000
   1840483.25549   1432321.54347  21206280.882    21206279.794    21206295.900
       231.000         190.000
  -7242830.53049  -5627723.15046  22319629.426    22319629.449    22319647.441
       225.000         176.000
  -8269619.17049  -6428849.18247  20710485.765    20710485.040    20710500.735
       240.000         203.000
  -1174446.67349   -910722.73047  19527695.354    19527694.312    19527707.411
       238.000         207.000
  -4807782.49749  -3735946.90246  22892713.370    22892713.075    22892731.845
       224.000         171.000
 01 12 19 20 41 29.9970000  0  7G28G 2G27G26G 7G 8G11
  -2551548.45949  -1980881.34847  20031184.295    20031183.408    20031195.487
       237.000         205.000
    410477.23149    319661.79447  21206178.373    21206177.177    21206191.703
       241.000         205.000
   1878688.15549   1462091.48647  21213551.186    21213550.044    21213566.133
       231.000         189.000
  -7323332.62049  -5690451.94046  22304310.391    22304310.352    22304328.249
       228.000         178.000
  -8368435.55949  -6505848.81747  20691681.520    20691680.789    20691696.484
       240.000         203.000
  -1174889.56949   -911067.84647  19527611.134    19527610.044    19527623.153
       238.000         207.000
  -4857239.96449  -3774485.14346  22883301.862    22883301.541    22883320.296
       225.000         172.000
 01 12 19 20 41 59.9970000  0  7G28G 2G27G26G 7G 8G11
  -2576612.66649  -2000411.89347  20026414.704    20026413.830    20026425.898
       237.000         205.000
    419854.93849    326969.04147  21207962.935    21207961.736    21207976.275
       240.000         205.000
   1917227.56749   1492122.09347  21220885.101    21220883.940    21220900.035
       231.000         189.000
  -7403355.83149  -5752807.54446  22289082.365    22289082.354    22289100.196
       227.000         177.000
  -8466890.41149  -6582566.73747  20672946.080    20672945.348    20672961.042
       240.000         204.000
  -1174928.77449   -911098.39547  19527603.712    19527602.596    19527615.721
       238.000         207.000
  -4906258.74549  -3812681.55146  22873973.916    22873973.512    22873992.189
       225.000         172.000
 01 12 19 20 42 29.9970000  0  7G28G 2G27G26G 7G 8G11
  -2601494.35049  -2019800.20647  20021679.891    20021679.008    20021691.040
       237.000         205.000
    429298.15749    334327.33347  21209759.957    21209758.778    21209773.316
       239.000         205.000
   1956086.35949   1522401.56347  21228279.729    21228278.614    21228294.719
       230.000         189.000
  -7482912.86849  -5814799.90446  22273943.041    22273943.048    22273960.831
       227.000         178.000
  -8564996.55449  -6659012.93847  20654277.014    20654276.256    20654291.960
       240.000         204.000
  -1174578.24449   -910825.25447  19527670.401    19527669.292    19527682.446
       238.000         207.000
  -4954852.03049  -3850546.40446  22864726.912    22864726.466    22864745.094
       225.000         172.000
 01 12 19 20 42 59.9970000  0  7G28G 2G27G26G 7G 8G11
  -2626175.71849  -2039032.43347  20016983.194    20016982.296    20016994.295
       238.000         205.000
    438824.79049    341750.61947  21211572.850    21211571.676    21211586.229
       239.000         205.000
   1995282.02449   1552943.52747  21235738.459    21235737.373    21235753.496
       230.000         189.000
  -7561984.18849  -5876413.76846  22258896.142    22258896.152    22258913.919
       227.000         178.000
  -8662734.73149  -6735172.42347  20635677.978    20635677.204    20635692.870
       240.000         204.000
  -1173819.81149   -910234.26947  19527814.745    19527813.633    19527826.788
       238.000         207.000
  -5003000.22249  -3888064.42446  22855564.564    22855564.104    22855582.673
       224.000         172.000
 01 12 19 20 43 29.9970000  0  7G28G 2G27G26G 7G 8G11
  -2650671.29549  -2058119.88947  20012321.853    20012320.935    20012332.940
       238.000         206.000
    448421.00049    349228.12147  21213398.945    21213397.795    21213412.378
       239.000         204.000
   2034800.16149   1583736.77147  21243258.641    21243257.506    21243273.657
       228.000         188.000
  -7640581.91049  -5937658.61146  22243939.456    22243939.413    22243957.127
       228.000         180.000
  -8760117.34449  -6811054.84247  20617146.574    20617145.808    20617161.431
       241.000         204.000
  -1172666.75549   -909335.79147  19528034.166    19528033.046    19528046.213
       238.000         207.000
  -5050715.45149  -3925245.07746  22846484.653    22846484.139    22846502.674
       225.000         171.000
 01 12 19 20 43 59.9970000  0  7G28G 2G27G26G 7G 8G11
  -2674956.78549  -2077043.64347  20007700.477    20007699.580    20007711.531
       238.000         206.000
    458111.43049    356779.03947  21215242.950    21215241.852    21215256.457
       238.000         203.000
   2074665.02149   1614800.18347  21250844.677    21250843.601    21250859.800
       229.000         188.000
  -7718679.56449  -5998513.79646  22229077.927    22229077.835    22229095.484
       229.000         182.000
  -8857117.99749  -6886639.63447  20598687.871    20598687.096    20598702.671
       241.000         204.000
  -1171093.68549   -908110.03047  19528333.524    19528332.405    19528345.557
       238.000         207.000
  -5097971.45749  -3962067.88446  22837492.045    22837491.552    22837510.080
       223.000         170.000
 01 12 19 20 44 29.9970000  0  7G28G 2G27G26G 7G 8G11
  -2699056.15949  -2095822.37647  20003114.503    20003113.600    20003125.579
       238.000         206.000
    467872.39649    364384.92147  21217100.418    21217099.330    21217113.960
       239.000         204.000
   2114852.60049   1646115.04546  21258492.135    21258491.096    21258507.346
       229.000         187.000
  -7796299.03449  -6058996.38746  22214307.353    22214307.257    22214324.853
       230.000         182.000
  -8953758.90649  -6961944.11347  20580297.635    20580296.836    20580312.362
       240.000         204.000
  -1169124.10249   -906575.30247  19528708.354    19528707.246    19528720.363
       238.000         207.000
  -5144790.22549  -3998549.97346  22828582.617    22828582.136    22828600.690
       223.000         171.000
 01 12 19 20 44 59.9970000  0  7G28G 2G27G26G 7G 8G11
  -2722956.13649  -2114445.72747  19998566.451    19998565.587    19998577.566
       238.000         206.000
    477717.88949    372056.67147  21218973.931    21218972.897    21218987.539
       238.000         203.000
   2155376.38549   1677691.89646  21266203.597    21266202.576    21266218.871
       229.000         187.000
  -7873424.68149  -6119094.15346  22199630.795    22199630.655    22199648.208
       230.000         182.000
  -9050024.66949  -7036956.26847  20561978.749    20561977.961    20561993.448
       240.000         204.000
  -1166743.32249   -904720.16047  19529161.422    19529160.306    19529173.424
       238.000         207.000
  -5191156.36649  -4034679.35346  22819759.352    22819758.882    22819777.446
       224.000         170.000
 01 12 19 20 45 29.9970000  0  7G28G 2G27G26G 7G 8G11
  -2746665.34649  -2132920.42647  19994054.749    19994053.867    19994065.859
       238.000         206.000
    487639.46149    379787.70347  21220861.994    21220860.950    21220875.605
       239.000         204.000
   2196227.46149   1709523.77346  21273977.391    21273976.363    21273992.676
       229.000         187.000
  -7950063.30849  -6178812.42646  22185046.812    22185046.751    22185064.244
       229.000         182.000
  -9145922.28449  -7111681.55847  20543729.921    20543729.147    20543744.582
       240.000         204.000
  -1163959.63349   -902551.05947  19529691.132    19529690.042    19529703.154
       238.000         207.000
  -5237076.47649  -4070461.17046  22811021.047    22811020.538    22811039.057
       224.000         171.000
 01 12 19 20 45 59.9970000  0  7G28G 2G27G26G 7G 8G11
  -2770183.59549  -2151246.32647  19989579.373    19989578.485    19989590.499
       238.000         207.000
    497637.73849    387578.52047  21222764.684    21222763.590    21222778.275
       239.000         204.000
   2237405.93049   1741610.76646  21281813.512    21281812.453    21281828.774
       229.000         187.000
  -8026212.63249  -6238149.43946  22170555.986    22170555.928    22170573.389
       230.000         181.000
  -9241449.60149  -7186118.30147  20525551.576    20525550.794    20525566.194
       241.000         205.000
  -1160771.97349   -900067.17847  19530297.697    19530296.621    19530309.764
       238.000         207.000
  -5282548.41049  -4105893.74746  22802368.015    22802367.489    22802385.980
       224.000         172.000
 01 12 19 20 46 29.9970000  0  7G28G 2G27G26G 7G 8G11
  -2793508.64449  -2169421.68147  19985140.754    19985139.868    19985151.885
       238.000         206.000
    507715.53149    395431.29547  21224682.472    21224681.368    21224696.075
       238.000         203.000
   2278913.97349   1773954.56546  21289712.351    21289711.276    21289727.576
       231.000         187.000
  -8101868.18849  -6297101.70046  22156159.144    22156159.052    22156176.493
       231.000         182.000
  -9336602.27049  -7260263.11647  20507444.494    20507443.735    20507459.073
       240.000         205.000
  -1157176.99949   -897265.90847  19530981.784    19530980.717    19530993.886
       238.000         207.000
  -5327568.09949  -4140973.92746  22793801.012    22793800.462    22793818.959
       224.000         171.000
 01 12 19 20 46 59.9970000  0  7G28G 2G27G26G 7G 8G11
  -2816632.68149  -2187440.40147  19980740.322    19980739.484    19980751.512
       237.000         206.000
    517881.04649    403352.43047  21226616.858    21226615.802    21226630.563
       238.000         203.000
   2320759.42649   1806561.26846  21297675.407    21297674.288    21297690.603
       230.000         186.000
  -8177020.12549  -6355661.52346  22141858.112    22141858.033    22141875.421
       230.000         183.000
  -9431370.88549  -7334108.67547  20489410.509    20489409.754    20489425.060
       240.000         205.000
  -1153166.01749   -894140.48247  19531745.026    19531743.979    19531757.153
       238.000         207.000
  -5372125.79549  -4175694.09446  22785321.921    22785321.354    22785339.808
       223.000         170.000
 01 12 19 20 47 29.9970000  0  7G28G 2G27G26G 7G 8G11
  -2839562.85749  -2205308.05947  19976376.850    19976375.993    19976388.041
       238.000         206.000
    528127.48149    411336.62447  21228566.716    21228565.663    21228580.442
       238.000         203.000
   2362934.93849   1839425.17646  21305701.228    21305700.110    21305716.451
       229.000         186.000
  -8251673.81349  -6413833.10146  22127651.953    22127651.818    22127669.170
       231.000         183.000
  -9525760.78949  -7407659.12847  20471448.570    20471447.825    20471463.116
       240.000         205.000
  -1148745.75749   -890696.13847  19532586.148    19532585.133    19532598.307
       238.000         207.000
  -5416226.91549  -4210058.49546  22776929.645    22776929.124    22776947.554
       223.000         170.000
 01 12 19 20 47 59.9970000  0  7G28G 2G27G26G 7G 8G11
  -2862295.69649  -2223021.94947  19972050.870    19972050.057    19972062.114
       237.000         206.000
    538459.33149    419387.37347  21230532.822    21230531.775    21230546.565
       238.000         203.000
   2405444.34949   1872549.27146  21313790.536    21313789.453    21313805.832
       230.000         186.000
  -8325823.07549  -6471611.60646  22113541.627    22113541.563    22113558.901
       227.000         182.000
  -9619765.97149  -7480909.80947  20453559.864    20453559.112    20453574.385
       241.000         205.000
  -1143911.32549   -886929.06047  19533506.072    19533505.076    19533518.284
       238.000         207.000
  -5459865.82449  -4244062.71746  22768625.290    22768624.807    22768643.223
       222.000         169.000
 01 12 19 20 48 29.9970000  0  7G28G 2G27G26G 7G 8G11
  -2884830.38349  -2240581.44047  19967762.693    19967761.841    19967773.897
       238.000         206.000
    548876.94549    427504.95447  21232515.227    21232514.187    21232529.011
       238.000         203.000
   2448287.77149   1905933.62446  21321943.474    21321942.376    21321958.800
       229.000         186.000
  -8399465.90349  -6528995.49146  22099527.635    22099527.639    22099544.999
       228.000         182.000
  -9713384.78749  -7553859.42347  20435744.690    20435743.936    20435759.184
       241.000         206.000
  -1138661.68749   -882838.44447  19534504.996    19534504.032    19534517.267
       238.000         207.000
  -5503040.19449  -4277704.98046  22760409.360    22760408.901    22760427.317
       221.000         170.000
 01 12 19 20 48 59.9970000  0  7G28G 2G27G26G 7G 8G11
  -2907162.11449  -2257982.78347  19963513.082    19963512.239    19963524.286
       238.000         206.000
    559385.88549    435693.69647  21234515.065    21234513.994    21234528.855
       238.000         203.000
   2491469.98949   1939581.96946  21330160.859    21330159.766    21330176.238
       228.000         186.000
  -8472595.31249  -6585979.34846  22085611.537    22085611.436    22085628.793
       231.000         183.000
  -9806610.23949  -7626502.52747  20418004.355    20418003.619    20418018.837
       240.000         205.000
  -1132991.08949   -878419.81447  19535584.038    19535583.075    19535596.374
       238.000         207.000
  -5545743.16349  -4310979.91046  22752283.164    22752282.737    22752301.123
       224.000         171.000
 01 12 19 20 49 29.9970000  0  7G28G 2G27G26G 7G 8G11
  -2929296.02349  -2275229.97647  19959301.087    19959300.277    19959312.344
       238.000         207.000
    569981.14549    443949.70047  21236531.336    21236530.242    21236545.123
       238.000         203.000
   2534985.62849   1973490.13046  21338441.661    21338440.589    21338457.152
       228.000         186.000
  -8545214.60449  -6642565.67846  22071792.378    22071792.332    22071809.663
       227.000         183.000
  -9899446.01849  -7698841.98047  20400338.195    20400337.454    20400352.650
       241.000         206.000
  -1126904.32249   -873676.89047  19536742.239    19536741.320    19536754.678
       238.000         207.000
  -5587978.28749  -4343890.29246  22744246.045    22744245.576    22744263.945
       222.000         170.000
 01 12 19 20 49 59.9970000  0  7G28G 2G27G26G 7G 8G11
  -2951229.84149  -2292321.26047  19955127.182    19955126.382    19955138.447
       238.000         207.000
    580665.74649    452275.32047  21238564.540    21238563.491    21238578.381
       238.000         203.000
   2578836.74249   2007659.70246  21346786.272    21346785.233    21346801.899
       228.000         185.000
  -8617319.61449  -6698751.27446  22058071.076    22058071.098    22058088.419
       229.000         184.000
  -9991887.81249  -7770874.44147  20382747.009    20382746.261    20382761.430
       241.000         206.000
  -1120398.02949   -868607.07347  19537980.316    19537979.390    19537992.802
       237.000         206.000
  -5629741.73349  -4376433.15246  22736298.677    22736298.201    22736316.480
       223.000         171.000
 01 12 19 20 50 29.9970000  0  7G28G 2G27G26G 7G 8G11
  -2972961.46849  -2309254.98747  19950991.792    19950990.963    19951003.045
       238.000         207.000
    591441.79349    460672.20047  21240615.183    21240614.132    21240629.042
       238.000         202.000
   2623024.72249   2042091.75646  21355194.990    21355193.979    21355210.744
       228.000         185.000
  -8688906.58249  -6754533.21046  22044448.446    22044448.438    22044465.773
       230.000         184.000
 -10083932.26949  -7842597.28647  20365231.444    20365230.688    20365245.827
       241.000         206.000
  -1113469.88549   -863208.53547  19539298.695    19539297.755    19539311.211
       238.000         206.000
  -5671029.17849  -4408605.10346  22728441.808    22728441.381    22728459.644
       223.000         171.000
 01 12 19 20 50 59.9970000  0  7G28G 2G27G26G 7G 8G11
  -2994498.69849  -2326037.24147  19946893.416    19946892.599    19946904.633
       239.000         208.000
    602302.42149    469134.98447  21242681.970    21242680.872    21242695.813
       237.000         202.000
   2667542.17149   2076780.55346  21363666.455    21363665.443    21363682.275
       228.000         185.000
  -8759981.11349  -6809915.83846  22030923.389    22030923.319    22030940.616
       230.000         184.000
 -10175584.97849  -7914014.87847  20347790.468    20347789.670    20347804.780
       241.000         206.000
  -1106126.49749   -857486.43247  19540696.117    19540695.158    19540708.642
       238.000         207.000
  -5711846.74749  -4440410.91746  22720674.391    22720673.970    22720692.200
       222.000         170.000
 01 12 19 20 51 29.9970000  0  7G28G 2G27G26G 7G 8G11
  -3015836.01549  -2342663.72347  19942833.150    19942832.267    19942844.283
       239.000         207.000
    613253.70449    477668.40747  21244765.946    21244764.846    21244779.830
       237.000         202.000
   2712394.36149   2111730.19446  21372201.660    21372200.610    21372217.524
       228.000         185.000
  -8830535.66749  -6864893.28846  22017497.201    22017497.129    22017514.384
       230.000         184.000
 -10266838.62449  -7985121.50847  20330425.346    20330424.573    20330439.663
       241.000         205.000
  -1098361.59049   -851435.88147  19542173.754    19542172.783    19542186.276
       238.000         207.000
  -5752187.31249  -4471845.05646  22712997.784    22712997.348    22713015.536
       223.000         170.000
 01 12 19 20 51 59.9970000  0  7G28G 2G27G26G 7G 8G11
  -3036971.18549  -2359132.68347  19938811.231    19938810.353    19938822.365
       238.000         207.000
    624297.98949    486274.29247  21246867.635    21246866.520    21246881.525
       237.000         202.000
   2757583.23249   2146942.18346  21380800.916    21380799.856    21380816.842
       227.000         184.000
  -8900566.52849  -6919462.65546  22004170.622    22004170.583    22004187.818
       229.000         185.000
 -10357689.58849  -8055914.36647  20313136.892    20313136.106    20313151.170
       241.000         206.000
  -1090172.49349   -845054.79147  19543732.081    19543731.123    19543744.627
       237.000         207.000
  -5792047.13349  -4502904.57646  22705412.645    22705412.206    22705430.360
       224.000         171.000
 01 12 19 20 52 29.9970000  0  7G28G 2G27G26G 7G 8G11
  -3057908.78249  -2375447.69447  19934826.910    19934826.051    19934838.030
       238.000         206.000
    635431.70649    494949.86147  21248986.284    21248985.211    21249000.251
       237.000         201.000
   2803104.34549   2182413.05746  21389463.373    21389462.319    21389479.372
       227.000         184.000
  -8970075.90949  -6973625.67646  21990943.300    21990943.279    21990960.509
       231.000         184.000
 -10448140.19449  -8126395.25547  20295924.623    20295923.838    20295938.874
       241.000         206.000
  -1081562.75749   -838345.94047  19545370.469    19545369.495    19545383.023
       238.000         206.000
  -5831429.19149  -4533591.82346  22697918.459    22697918.003    22697936.096
       223.000         172.000
 01 12 19 20 52 59.9970000  0  7G28G 2G27G26G 7G 8G11
  -3078651.53749  -2391610.87547  19930879.669    19930878.807    19930890.777
       238.000         206.000
    646651.93849    503692.85147  21251121.425    21251120.384    21251135.445
       236.000         201.000
   2848954.06349   2218139.99846  21398188.409    21398187.322    21398204.407
       227.000         183.000
  -9039065.37649  -7027383.59946  21977814.996    21977814.934    21977832.111
       232.000         183.000
 -10538192.27049  -8196565.59947  20278788.179    20278787.408    20278802.397
       241.000         206.000
  -1072534.97149   -831311.33347  19547088.392    19547087.420    19547100.984
       238.000         206.000
  -5870334.46149  -4563907.54646  22690515.011    22690514.550    22690532.584
       224.000         171.000
 01 12 19 20 53 29.9970000  0  7G28G 2G27G26G 7G 8G11
  -3099200.87849  -2407623.34947  19926969.243    19926968.383    19926980.357
       238.000         206.000
    657957.76049    512502.52947  21253272.928    21253271.832    21253286.925
       237.000         201.000
   2895130.55949   2254121.56946  21406975.553    21406974.485    21406991.626
       227.000         183.000
  -9107534.87649  -7080736.32546  21964785.504    21964785.533    21964802.627
       230.000         183.000
 -10627845.87249  -8266425.44347  20261727.574    20261726.795    20261741.760
       241.000         206.000
  -1063090.39249   -823951.96947  19548885.656    19548884.670    19548898.260
       238.000         207.000
  -5908762.51749  -4593851.40546  22683202.373    22683201.895    22683219.848
       223.000         172.000
 01 12 19 20 53 59.9970000  0  7G28G 2G27G26G 7G 8G11
  -3119558.07349  -2423486.09647  19923095.361    19923094.542    19923106.514
       238.000         207.000
    669348.64649    521378.48847  21255440.577    21255439.480    21255454.584
       237.000         201.000
   2941632.45049   2290356.68246  21415824.591    21415823.555    21415840.731
       226.000         181.000
  -9175483.52449  -7133683.20546  21951855.250    21951855.254    21951872.296
       231.000         184.000
 -10717100.15649  -8335974.13047  20244742.976    20244742.186    20244757.122
       241.000         206.000
  -1053229.07349   -816267.87547  19550762.226    19550761.234    19550774.808
       238.000         207.000
  -5946713.33349  -4623423.38346  22675980.486    22675980.039    22675997.973
       224.000         173.000
 01 12 19 20 54 29.9970000  0  7G28G 2G27G26G 7G 8G11
  -3139722.49749  -2439198.63047  19919258.207    19919257.370    19919269.343
       238.000         206.000
    680825.41849    530321.37747  21257624.608    21257623.481    21257638.599
       236.000         201.000
   2988459.87149   2326845.45346  21424735.575    21424734.581    21424751.811
       226.000         181.000
  -9242909.16249  -7186222.55846  21939024.554    21939024.503    21939041.484
       232.000         185.000
 -10805952.99349  -8405209.99547  20227834.766    20227833.983    20227848.890
       241.000         207.000
  -1042949.97349   -808258.22747  19552718.345    19552717.330    19552730.892
       238.000         207.000
  -5984184.83249  -4652621.85846  22668849.820    22668849.368    22668867.265
       225.000         172.000
 01 12 19 20 54 59.9970000  0  7G28G 2G27G26G 7G 8G11
  -3159693.24949  -2454760.24847  19915457.886    19915457.044    19915469.040
       238.000         206.000
    692389.55149    539332.34647  21259825.216    21259824.091    21259839.238
       237.000         201.000
   3035613.70949   2363588.57346  21433708.677    21433707.720    21433724.999
       225.000         181.000
  -9309809.11849  -7238352.27046  21926293.781    21926293.782    21926310.720
       232.000         184.000
 -10894401.93049  -8474131.12947  20211003.467    20211002.640    20211017.502
       242.000         207.000
  -1032251.61749   -799921.89147  19554754.222    19554753.192    19554766.761
       239.000         207.000
  -6021174.42749  -4681444.79946  22661810.888    22661810.423    22661828.269
       225.000         172.000
 01 12 19 20 55 29.9970000  0  7G28G 2G27G26G 7G 8G11
  -3179465.80649  -2470167.42647  19911695.173    19911694.404    19911706.463
       237.000         206.000
    704046.13449    548415.34747  21262043.429    21262042.303    21262057.467
       236.000         201.000
   3083098.09949   2400589.25746  21442744.767    21442743.794    21442761.078
       226.000         181.000
  -9376177.13449  -7290067.52246  21913664.417    21913664.284    21913681.183
       230.000         184.000
 -10982440.77249  -8542732.71347  20194250.181    20194249.336    20194264.156
       242.000         207.000
  -1021129.00749   -791254.97347  19556870.812    19556869.771    19556883.354
       238.000         207.000
  -6057675.89849  -4709887.40846  22654864.822    22654864.369    22654882.179
       224.000         172.000
 01 12 19 20 55 59.9970000  0  7G28G 2G27G26G 7G 8G11
  -3199032.96849  -2485414.55247  19907971.678    19907970.861    19907982.950
       238.000         206.000
    715802.76649    557576.31547  21264280.615    21264279.553    21264294.724
       236.000         200.000
   3130919.69849   2437852.70546  21451844.972    21451844.004    21451861.346
       225.000         180.000
  -9442004.69749  -7341361.59146  21901137.783    21901137.609    21901154.510
       230.000         183.000
 -11070061.05449  -8611008.14447  20177576.541    20177575.695    20177590.471
       242.000         208.000
  -1009574.34549   -782251.38847  19559069.627    19559068.571    19559082.165
       238.000         207.000
  -6093681.04049  -4737943.24646  22648013.190    22648012.754    22648030.527
       223.000         173.000
 01 12 19 20 56 29.9970000  0  7G28G 2G27G26G 7G 8G11
  -3218417.97649  -2500519.74347  19904282.895    19904282.041    19904294.090
       238.000         206.000
    727636.77849    566797.56947  21266532.641    21266531.546    21266546.689
       237.000         200.000
   3179054.73649   2475360.38346  21461004.910    21461003.899    21461021.237
       224.000         180.000
  -9507313.21049  -7392251.24246  21888709.876    21888709.695    21888726.594
       231.000         182.000
 -11157284.44349  -8678974.30847  20160978.423    20160977.564    20160992.322
       241.000         208.000
   -997610.50849   -772928.96447  19561346.337    19561345.246    19561358.839
       238.000         206.000
  -6129211.48349  -4765629.18946  22641251.883    22641251.460    22641269.202
       226.000         172.000
 01 12 19 20 56 59.9970000  0  7G28G 2G27G26G 7G 8G11
  -3237604.36049  -2515470.16047  19900631.844    19900630.984    19900643.000
       238.000         205.000
    739564.90949    576092.17347  21268802.543    21268801.447    21268816.574
       236.000         200.000
   3227519.36449   2513124.87946  21470227.558    21470226.508    21470243.860
       224.000         179.000
  -9572084.72549  -7442722.45046  21876384.215    21876383.981    21876400.847
       233.000         182.000
 -11244092.98649  -8746617.21147  20144459.256    20144458.374    20144473.109
       242.000         208.000
   -985220.44749   -763274.41347  19563704.129    19563703.035    19563716.619
       239.000         207.000
  -6164249.26449  -4792931.24746  22634584.375    22634583.929    22634601.613
       225.000         173.000
 01 12 19 20 57 29.9970000  0  7G28G 2G27G26G 7G 8G11
  -3256592.39949  -2530266.02347  19897018.497    19897017.674    19897029.656
       238.000         206.000
    751587.20549    585460.14247  21271090.357    21271089.250    21271104.387
       236.000         200.000
   3276312.86149   2551145.64046  21479512.817    21479511.704    21479529.101
       225.000         179.000
  -9636318.11749  -7492774.32346  21864160.993    21864160.677    21864177.513
       228.000         184.000
 -11330485.57849  -8813936.00947  20128019.236    20128018.338    20128033.064
       242.000         209.000
   -972404.14849   -753287.73847  19566143.070    19566141.938    19566155.506
       238.000         207.000
  -6198793.46349  -4819848.69046  22628010.725    22628010.317    22628027.946
       225.000         174.000
 01 12 19 20 57 59.9970000  0  7G28G 2G27G26G 7G 8G11
  -3275385.55249  -2544910.02847  19893442.307    19893441.468    19893453.411
       238.000         206.000
    763700.86149    594899.29947  21273395.532    21273394.441    21273409.579
       236.000         200.000
   3325431.46349   2589419.72246  21488859.961    21488858.789    21488876.166
       225.000         179.000
  -9700015.05049  -7542408.18146  21852039.749    21852039.469    21852056.286
       232.000         185.000
 -11416463.98249  -8880932.06247  20111658.000    20111657.118    20111671.817
       242.000         209.000
   -959164.56849   -742971.23147  19568662.529    19568661.392    19568674.947
       239.000         206.000
  -6232845.81349  -4846382.89646  22621530.698    22621530.270    22621547.892
       225.000         173.000
 01 12 19 20 58 29.9970000  0  7G28G 2G27G26G 7G 8G11
  -3293981.62749  -2559400.46147  19889903.584    19889902.760    19889914.692
       238.000         206.000
    775908.40949    604411.61647  21275718.601    21275717.503    21275732.628
       237.000         200.000
   3374876.47549   2627948.15946  21498269.176    21498268.004    21498285.386
       225.000         178.000
  -9763172.36749  -7591621.58446  21840021.220    21840020.942    21840037.742
       232.000         185.000
 -11502025.05849  -8947602.92247  20095376.179    20095375.306    20095389.981
       242.000         208.000
   -945499.20449   -732322.93547  19571263.017    19571261.872    19571275.403
       239.000         206.000
  -6266403.04049  -4872531.30546  22615144.898    22615144.464    22615162.099
       226.000         174.000
 01 12 19 20 58 59.9970000  0  7G28G 2G27G26G 7G 8G11
  -3312387.11549  -2573742.38447  19886401.113    19886400.308    19886412.245
       239.000         206.000
    788204.11349    613992.62947  21278058.456    21278057.335    21278072.467
       236.000         200.000
   3424641.34249   2666725.81946  21507739.241    21507738.046    21507755.449
       225.000         178.000
  -9825794.66249  -7640418.04746  21828104.395    21828104.234    21828121.025
       232.000         187.000
 -11587173.54349  -9013952.28447  20079172.857    20079172.001    20079186.660
       243.000         208.000
   -931413.92149   -721347.43247  19573943.402    19573942.266    19573955.764
       239.000         206.000
  -6299470.20649  -4898297.86446  22608852.403    22608851.956    22608869.541
       225.000         174.000
 01 12 19 20 59 29.9970000  0  7G28G 2G27G26G 7G 8G11
  -3330596.81549  -2587931.74847  19882935.925    19882935.112    19882947.026
       238.000         206.000
    800593.52649    623646.66147  21280416.127    21280415.002    21280430.134
       236.000         200.000
   3474730.86149   2705756.45946  21517271.031    21517269.861    21517287.324
       224.000         178.000
  -9887875.35549  -7688792.51547  21816290.796    21816290.571    21816307.378
       233.000         188.000
 -11671902.92449  -9079975.07347  20063049.277    20063048.445    20063063.096
       243.000         209.000
   -916903.21249   -710040.42047  19576704.767    19576703.604    19576717.101
       239.000         206.000
  -6332041.03749  -4923677.68046  22602654.424    22602653.904    22602671.436
       226.000         174.000
 01 12 19 20 59 59.9970000  0  7G28G 2G27G26G 7G 8G11
  -3348609.07549  -2601967.26247  19879508.257    19879507.465    19879519.371
       238.000         206.000
    813078.69049    633375.29747  21282791.952    21282790.885    21282806.021
       236.000         200.000
   3525145.86549   2745040.72746  21526864.765    21526863.625    21526881.134
       225.000         177.000
  -9949411.46549  -7736742.62547  21804580.762    21804580.577    21804597.359
       232.000         188.000
 -11756210.19849  -9145668.94847  20047006.063    20047005.225    20047019.864
       244.000         209.000
   -901965.09749   -698400.37547  19579547.485    19579546.299    19579559.771
       239.000         207.000
  -6364112.48649  -4948668.38946  22596551.386    22596550.855    22596568.384
       226.000         173.000
 01 12 19 21  0 29.9970000  0  7G28G 2G27G26G 7G 8G11
  -3366419.86549  -2615845.78647  19876118.923    19876118.144    19876130.059
       238.000         206.000
    825663.89849    643181.89047  21285186.899    21285185.804    21285200.935
       236.000         200.000
   3575889.81649   2784581.31446  21536521.148    21536520.003    21536537.560
       223.000         177.000
 -10010397.68249  -7784264.22046  21792975.318    21792975.218    21792991.990
       233.000         187.000
 -11840090.01849  -9211029.73547  20031044.187    20031043.353    20031057.954
       243.000         209.000
   -886595.29649   -686423.95047  19582472.308    19582471.123    19582484.589
       239.000         206.000
  -6395679.15249  -4973265.79046  22590544.474    22590543.853    22590561.362
       226.000         173.000
 01 12 19 21  0 59.9970000  0  7G28G 2G27G26G 7G 8G11
  -3384031.62549  -2629569.22747  19872767.572    19872766.742    19872778.647
       239.000         206.000
    838347.43649    653065.10847  21287600.565    21287599.418    21287614.598
       237.000         200.000
   3626959.66349   2824375.84146  21546239.530    21546238.396    21546255.964
       224.000         177.000
 -10070835.05649  -7831358.18346  21781474.392    21781474.263    21781491.023
       232.000         187.000
 -11923543.56149  -9276058.36447  20015163.426    20015162.591    20015177.165
       244.000         209.000
   -870795.74749   -674112.65247  19585478.875    19585477.716    19585491.166
       239.000         206.000
  -6426742.49149  -4997471.00146  22584633.230    22584632.665    22584650.156
       225.000         172.000
 01 12 19 21  1 29.9970000  0  7G28G 2G27G26G 7G 8G11
  -3401448.12349  -2643140.51847  19869453.379    19869452.511    19869464.399
       239.000         206.000
    851125.90949    663022.29147  21290032.256    21290031.127    21290046.322
       237.000         200.000
   3678351.21949   2864421.04346  21556019.194    21556018.001    21556035.602
       224.000         177.000
 -10130725.83249  -7878026.20946  21770077.470    21770077.354    21770094.067
       234.000         187.000
 -12006573.19449  -9340756.67047  19999363.339    19999362.507    19999377.048
       243.000         209.000
   -854569.99349   -661469.24747  19588566.530    19588565.397    19588578.855
       239.000         206.000
  -6457304.98249  -5021285.92746  22578817.376    22578816.787    22578834.242
       225.000         172.000
 01 12 19 21  1 59.9970000  0  7G28G 2G27G26G 7G 8G11
  -3418688.57749  -2656574.62947  19866172.594    19866171.740    19866183.635
       239.000         206.000
    863980.72849    673038.96947  21292478.461    21292477.352    21292492.566
       237.000         200.000
   3730044.67949   2904701.50346  21565856.198    21565855.035    21565872.685
       223.000         176.000
 -10190088.17849  -7924282.46247  21758781.157    21758781.015    21758797.672
       232.000         189.000
 -12089196.93749  -9405138.69947  19983640.499    19983639.655    19983654.148
       244.000         209.000
   -837937.08049   -648508.57447  19591731.698    19591730.562    19591744.022
       239.000         206.000
  -6487384.67749  -5044724.65246  22573093.440    22573092.813    22573110.210
       225.000         173.000
 01 12 19 21  2 29.9960000  0  7G28G 2G27G26G 7G 8G11
  -3435737.37849  -2669859.40647  19862928.280    19862927.433    19862939.341
       238.000         206.000
    876927.01149    683126.91147  21294942.069    21294940.966    21294956.236
       237.000         200.000
   3782052.65549   2945227.04446  21575753.096    21575751.928    21575769.662
       224.000         177.000
 -10248903.84749  -7970112.75347  21747588.896    21747588.704    21747605.300
       234.000         188.000
 -12171395.76749  -9469189.62747  19967998.519    19967997.664    19968012.105
       243.000         209.000
   -820882.13349   -635219.04947  19594977.169    19594976.035    19594989.497
       239.000         206.000
  -6516964.45349  -5067773.84346  22567464.590    22567463.979    22567481.291
       224.000         173.000
 01 12 19 21  2 59.9960000  0  7G28G 2G27G26G 7G 8G11
  -3452600.37649  -2682999.40647  19859719.415    19859718.519    19859730.401
       239.000         206.000
    889961.42649    693283.52847  21297422.523    21297421.382    21297436.683
       237.000         200.000
   3834373.48849   2985996.36446  21585709.511    21585708.359    21585726.124
       224.000         177.000
 -10307179.94549  -8015522.58947  21736499.209    21736499.044    21736515.603
       232.000         188.000
 -12253178.47949  -9532916.31147  19952435.689    19952434.848    19952449.252
       243.000         209.000
   -803408.53049   -621603.29547  19598302.303    19598301.180    19598314.630
       239.000         206.000
  -6546049.63349  -5090437.61646  22561929.908    22561929.231    22561946.517
       225.000         172.000
 01 12 19 21  3 29.9960000  0  7G28G 2G27G26G 7G 8G11
  -3469269.71449  -2695988.50447  19856547.406    19856546.442    19856558.325
       239.000         206.000
    903091.03249    703514.31747  21299921.046    21299919.896    21299935.241
       236.000         201.000
   3887012.06149   3027013.27146  21595726.386    21595725.272    21595743.071
       222.000         176.000
 -10364906.10049  -8060503.88247  21725514.152    21725514.036    21725530.577
       233.000         189.000
 -12334533.89949  -9596310.03647  19936954.171    19936953.341    19936967.717
       243.000         209.000
   -785509.15349   -607655.76547  19601708.473    19601707.354    19601720.799
       239.000         205.000
  -6574630.93049  -5112708.75746  22556490.947    22556490.356    22556507.657
       225.000         171.000
 01 12 19 21  3 59.9960000  0  7G28G 2G27G26G 7G 8G11
  -3485730.61349  -2708815.18547  19853415.019    19853414.041    19853425.902
       238.000         206.000
    916331.11849    713831.19547  21302440.640    21302439.458    21302454.804
       237.000         200.000
   3939982.23749   3068288.57046  21605806.403    21605805.280    21605823.121
       223.000         176.000
 -10422066.65449  -8105044.45547  21714636.812    21714636.677    21714653.196
       234.000         190.000
 -12415446.29949  -9659358.54947  19921556.964    19921556.131    19921570.497
       243.000         209.000
   -767169.28749   -593365.00347  19605198.462    19605197.335    19605210.791
       239.000         205.000
  -6602692.76849  -5134575.12246  22551150.992    22551150.349    22551167.630
       225.000         171.000
 01 12 19 21  4 29.9960000  0  7G28G 2G27G26G 7G 8G11
  -3501993.19949  -2721487.33647  19850320.358    19850319.382    19850331.215
       238.000         206.000
    929672.11549    724226.70747  21304979.354    21304978.209    21304993.588
       236.000         201.000
   3993273.33849   3109813.93646  21615947.525    21615946.364    21615964.254
       223.000         176.000
 -10478670.24049  -8149151.03747  21703865.497    21703865.287    21703881.786
       232.000         189.000
 -12495924.34649  -9722068.61247  19906242.432    19906241.588    19906255.910
       243.000         209.000
   -748398.69349   -578738.60747  19608770.355    19608769.266    19608782.732
       238.000         205.000
  -6630244.09649  -5156043.68546  22545908.114    22545907.451    22545924.721
       224.000         171.000
 01 12 19 21  4 59.9960000  0  7G28G 2G27G26G 7G 8G11
  -3518063.16649  -2734009.39647  19847262.358    19847261.385    19847273.183
       239.000         206.000
    943108.74549    734696.72847  21307536.362    21307535.163    21307550.577
       237.000         201.000
   4046879.06349   3151584.46046  21626148.511    21626147.332    21626165.258
       222.000         176.000
 -10534721.62149  -8192827.31247  21693199.137    21693198.971    21693215.448
       231.000         189.000
 -12575972.75649  -9784443.89947  19891009.649    19891008.795    19891023.097
       243.000         209.000
   -729202.98949   -563780.96647  19612423.183    19612422.104    19612435.595
       238.000         205.000
  -6657289.39549  -5177117.93446  22540761.507    22540760.888    22540778.109
       225.000         173.000
 01 12 19 21  5 29.9960000  0  7G28G 2G27G26G 7G 8G11
  -3533945.88649  -2746385.54947  19844239.934    19844239.009    19844250.790
       239.000         206.000
    956636.14749    745237.48847  21310110.648    21310109.400    21310124.801
       237.000         201.000
   4100793.28349   3193595.36246  21636408.166    21636406.965    21636424.941
       221.000         175.000
 -10590224.98449  -8236076.57947  21682637.033    21682636.934    21682653.391
       233.000         188.000
 -12655595.64049  -9846487.60547  19875857.767    19875856.962    19875871.249
       243.000         209.000
   -709587.45349   -548496.18247  19616155.879    19616154.812    19616168.339
       238.000         205.000
  -6683833.33949  -5197801.50246  22535710.363    22535709.717    22535726.951
       226.000         171.000
 01 12 19 21  5 59.9960000  0  7G28G 2G27G26G 7G 8G11
  -3549628.12849  -2758605.48547  19841255.613    19841254.762    19841266.549
       238.000         206.000
    970268.15649    755859.75147  21312704.802    21312703.550    21312718.959
       237.000         200.000
   4155028.51649   3235856.39846  21646728.913    21646727.710    21646745.700
       221.000         174.000
 -10645165.91249  -8278887.60247  21672182.047    21672181.927    21672198.344
       232.000         188.000
 -12734778.64349  -9908188.55047  19860789.640    19860788.842    19860803.120
       242.000         209.000
   -689538.57949   -532873.73547  19619971.068    19619969.985    19619983.559
       238.000         205.000
  -6709861.78449  -5218083.39046  22530757.317    22530756.676    22530773.883
       225.000         173.000
 01 12 19 21  6 29.9960000  0  7G28G 2G27G26G 7G 8G11
  -3565121.80049  -2770678.47747  19838307.178    19838306.375    19838318.178
       239.000         206.000
    983992.97249    766554.33747  21315316.562    21315315.345    21315330.788
       236.000         200.000
   4209571.96849   3278357.61446  21657108.301    21657107.108    21657125.099
       221.000         174.000
 -10699555.57949  -8321269.05547  21661831.821    21661831.806    21661848.209
       231.000         188.000
 -12813532.82449  -9969555.34547  19845803.118    19845802.326    19845816.600
       242.000         209.000
   -669068.27149   -516922.88047  19623866.429    19623865.376    19623878.976
       238.000         205.000
  -6735385.84449  -5237972.25646  22525900.249    22525899.583    22525916.794
       226.000         173.000
 01 12 19 21  6 59.9960000  0  7G28G 2G27G26G 7G 8G11
  -3580426.42349  -2782604.16047  19835394.875    19835394.018    19835405.775
       239.000         206.000
    997811.66149    777322.06547  21317946.158    21317944.990    21317960.450
       236.000         200.000
   4264423.54549   3321098.91846  21667546.313    21667545.145    21667563.110
       222.000         173.000
 -10753392.35449  -8363219.68847  21651586.916    21651586.920    21651603.302
       232.000         188.000
 -12891856.53349 -10030586.71447  19830898.513    19830897.731    19830912.004
       243.000         209.000
   -648175.84649   -500643.10547  19627842.114    19627841.084    19627854.730
       238.000         205.000
  -6760404.07949  -5257466.95646  22521139.433    22521138.760    22521155.983
       224.000         172.000
 01 12 19 21  7 29.9960000  0  7G28G 2G27G26G 7G 8G11
  -3595546.27949  -2794385.86447  19832517.712    19832516.817    19832528.544
       239.000         206.000
   1011720.64149    788160.14647  21320592.952    21320591.818    21320607.306
       237.000         200.000
   4319578.33149   3364076.49646  21678042.086    21678040.887    21678058.888
       222.000         173.000
 -10806679.43649  -8404742.00646  21641446.653    21641446.621    21641462.994
       231.000         187.000
 -12969752.94149 -10091285.12547  19816075.272    19816074.458    19816088.703
       242.000         209.000
   -626865.55749   -484037.72747  19631897.362    19631896.315    19631909.978
       238.000         205.000
  -6784919.70349  -5276570.03046  22516474.254    22516473.563    22516490.834
       226.000         173.000
 01 12 19 21  7 59.9960000  0  7G28G 2G27G26G 7G 8G11
  -3610473.21049  -2806017.23247  19829677.209    19829676.318    19829688.031
       239.000         206.000
   1025728.57549    799075.33847  21323258.686    21323257.506    21323273.003
       237.000         200.000
   4375043.70149   3407296.09446  21688596.998    21688595.735    21688613.753
       222.000         173.000
 -10859407.66249  -8445828.84546  21631412.633    21631412.664    21631429.025
       232.000         187.000
 -13047212.74749 -10151643.32447  19801335.121    19801334.275    19801348.500
       244.000         209.000
   -605129.06049   -467100.23747  19636033.708    19636032.649    19636046.347
       238.000         205.000
  -6808923.55049  -5295274.31246  22511906.460    22511905.773    22511923.050
       225.000         172.000
 01 12 19 21  8 29.9960000  0  7G28G 2G27G26G 7G 8G11
  -3625218.70949  -2817507.21647  19826871.217    19826870.336    19826882.069
       240.000         206.000
   1039824.20549    810058.86547  21325941.084    21325939.873    21325955.388
       236.000         199.000
   4430807.13749   3450747.94146  21699208.583    21699207.310    21699225.339
       220.000         171.000
 -10911587.59849  -8486488.46747  21621483.118    21621483.076    21621499.380
       233.000         188.000
 -13124246.58849 -10211669.60247  19786676.033    19786675.165    19786689.344
       242.000         209.000
   -582978.09649   -449839.77747  19640248.935    19640247.864    19640261.582
       238.000         205.000
  -6832426.58449  -5313588.33246  22507433.979    22507433.298    22507450.574
       225.000         173.000
 01 12 19 21  8 59.9960000  0  7G28G 2G27G26G 7G 8G11
  -3639759.67349  -2828837.82247  19824104.180    19824103.277    19824115.024
       239.000         206.000
   1054031.17749    821129.14247  21328644.667    21328643.432    21328658.941
       236.000         199.000
   4486890.98249   3494449.46446  21709881.114    21709879.857    21709897.874
       221.000         172.000
 -10963195.52949  -8526702.36047  21611662.439    21611662.338    21611678.612
       233.000         189.000
 -13200830.39849 -10271345.21047  19772102.559    19772101.689    19772115.836
       242.000         209.000
   -560389.43849   -432238.25747  19644547.482    19644546.376    19644560.105
       239.000         205.000
  -6855404.97349  -5331493.52346  22503061.232    22503060.592    22503077.951
       225.000         173.000
 01 12 19 21  9 29.9960000  0  7G28G 2G27G26G 7G 8G11
  -3654106.82749  -2840017.40347  19821373.971    19821373.085    19821384.826
       240.000         206.000
   1068339.09049    832278.08147  21331367.448    21331366.199    21331381.706
       236.000         199.000
   4543283.77949   3538391.73446  21720612.436    21720611.179    21720629.205
       220.000         171.000
 -11014241.04249  -8566478.00647  21601948.838    21601948.637    21601964.887
       233.000         189.000
 -13276973.94949 -10330677.75847  19757612.905    19757611.998    19757626.105
       242.000         209.000
   -537373.68849   -414303.93947  19648927.270    19648926.171    19648939.898
       238.000         205.000
  -6877868.61849  -5348997.59046  22498786.408    22498785.846    22498803.209
       225.000         172.000
 01 12 19 21  9 59.9960000  0  7G28G 2G27G26G 7G 8G11
  -3668255.02249  -2851041.95047  19818681.623    19818680.781    19818692.497
       240.000         206.000
   1082753.68249    843510.14947  21334110.543    21334109.283    21334124.788
       236.000         200.000
   4599989.89249   3582578.13846  21731403.330    21731402.121    21731420.190
       219.000         171.000
 -11064718.25049  -8605810.82347  21592343.315    21592343.078    21592359.333
       232.000         189.000
 -13352671.05749 -10389662.43347  19743208.195    19743207.264    19743221.309
       241.000         208.000
   -513925.80349   -396032.89147  19653389.310    19653388.202    19653401.921
       239.000         205.000
  -6899811.71649  -5366096.04346  22494610.728    22494610.145    22494627.545
       225.000         172.000
 01 12 19 21 10 29.9960000  0  7G28G 2G27G26G 7G 8G11
  -3682207.14949  -2861913.71847  19816026.621    19816025.769    19816037.476
       240.000         206.000
   1097272.71149    854823.60047  21336873.458    21336872.230    21336887.748
       236.000         199.000
   4657005.41949   3627005.64846  21742253.143    21742251.937    21742270.046
       220.000         171.000
 -11114629.15649  -8644702.36547  21582845.437    21582845.275    21582861.533
       233.000         188.000
 -13427923.91349 -10448300.93647  19728887.960    19728887.054    19728901.067
       242.000         209.000
   -490048.76449   -377427.43747  19657932.989    19657931.874    19657945.613
       238.000         205.000
  -6921236.51449  -5382790.61946  22490533.689    22490533.106    22490550.464
       225.000         172.000
 01 12 19 21 10 59.9960000  0  7G28G 2G27G26G 7G 8G11
  -3695967.85249  -2872636.31947  19813408.059    19813407.210    19813418.928
       240.000         207.000
   1111892.01749    866215.19047  21339655.542    21339654.268    21339669.800
       237.000         199.000
   4714324.93549   3671670.02346  21753160.774    21753159.595    21753177.781
       220.000         170.000
 -11163977.71149  -8683155.72047  21573454.672    21573454.493    21573470.702
       234.000         189.000
 -13502735.97349 -10506595.96847  19714651.619    19714650.717    19714664.692
       242.000         209.000
   -465747.11649   -358491.12947  19662557.454    19662556.336    19662570.120
       238.000         205.000
  -6942146.59649  -5399084.09946  22486554.574    22486554.000    22486571.329
       225.000         173.000
 01 12 19 21 11 29.9960000  0  7G28G 2G27G26G 7G 8G11
  -3709542.42049  -2883213.87347  19810824.834    19810824.006    19810835.800
       239.000         207.000
   1126606.79749    877681.18347  21342455.753    21342454.466    21342470.028
       236.000         199.000
   4771942.37349   3716566.55246  21764125.143    21764123.952    21764142.198
       219.000         170.000
 -11212768.26749  -8721174.27347  21564170.206    21564169.911    21564186.093
       234.000         190.000
 -13577111.71849 -10564551.00947  19700498.309    19700497.421    19700511.377
       241.000         209.000
   -441026.12449   -339228.05447  19667261.697    19667260.623    19667274.434
       238.000         204.000
  -6962546.82249  -5414980.30446  22482672.457    22482671.908    22482689.257
       225.000         172.000
 01 12 19 21 11 59.9960000  0  7G28G 2G27G26G 7G 8G11
  -3722936.42749  -2893650.73447  19808276.000    19808275.178    19808286.994
       240.000         207.000
   1141411.98749    889217.62847  21345273.072    21345271.858    21345287.462
       235.000         199.000
   4829851.31749   3761690.22046  21775144.993    21775143.785    21775162.103
       218.000         171.000
 -11261005.72049  -8758761.82947  21554990.845    21554990.566    21555006.752
       234.000         189.000
 -13651055.87849 -10622169.75247  19686427.129    19686426.237    19686440.168
       241.000         209.000
   -415891.62049   -319642.76047  19672044.609    19672043.553    19672057.427
       238.000         205.000
  -6982442.21249  -5430483.12546  22478886.443    22478885.867    22478903.251
       225.000         173.000
 01 12 19 21 12 29.9960000  0  7G28G 2G27G26G 7G 8G11
  -3736146.17349  -2903944.02247  19805762.264    19805761.467    19805773.244
       240.000         207.000
   1156311.74649    900827.76647  21348108.451    21348107.227    21348122.892
       235.000         199.000
   4888054.34249   3807043.05546  21786220.794    21786219.593    21786237.960
       219.000         171.000
 -11308685.61349  -8795914.94347  21545917.531    21545917.298    21545933.464
       234.000         188.000
 -13724563.84449 -10679448.60447  19672438.963    19672438.062    19672451.979
       241.000         209.000
   -390340.06449   -299732.49647  19676906.918    19676905.875    19676919.775
       238.000         204.000
  -7001828.13949  -5445588.98246  22475197.431    22475196.833    22475214.148
       226.000         172.000
 01 12 19 21 12 59.9960000  0  7G28G 2G27G26G 7G 8G11
  -3749173.37649  -2914095.06547  19803283.283    19803282.458    19803294.239
       240.000         207.000
   1171304.64449    912510.48747  21350961.576    21350960.348    21350976.040
       235.000         199.000
   4946548.74949   3852622.92746  21797352.110    21797350.875    21797369.279
       219.000         171.000
 -11355809.08949  -8832634.47847  21536950.111    21536949.924    21536966.093
       232.000         188.000
 -13797636.55449 -10736388.29247  19658533.571    19658532.703    19658546.622
       241.000         209.000
   -364373.23049   -279498.64147  19681848.249    19681847.229    19681861.158
       238.000         205.000
  -7020706.05849  -5460298.99446  22471605.037    22471604.436    22471621.738
       224.000         172.000
 01 12 19 21 13 29.9960000  0  7G28G 2G27G26G 7G 8G11
  -3762005.79549  -2924094.33747  19800841.282    19800840.502    19800852.265
       240.000         206.000
   1186403.34449    924275.65647  21353834.760    21353833.584    21353849.323
       235.000         199.000
   5005345.86249   3898438.69046  21808541.010    21808539.735    21808558.170
       219.000         170.000
 -11402363.19549  -8868910.35547  21528091.117    21528090.917    21528107.109
       233.000         190.000
 -13870261.03149 -10792978.71047  19644713.550    19644712.667    19644726.548
       242.000         209.000
   -337978.92349   -258931.69247  19686870.979    19686869.926    19686883.875
       238.000         204.000
  -7039063.13949  -5474603.16046  22468111.708    22468111.149    22468128.416
       224.000         172.000
 01 12 19 21 13 59.9960000  0  7G28G 2G27G26G 7G 8G11
  -3774653.14149  -2933949.39347  19798434.522    19798433.756    19798445.542
       240.000         207.000
   1201598.77849    936116.20347  21356726.473    21356725.238    21356740.998
       235.000         198.000
   5064434.99149   3944481.99046  21819785.403    21819784.161    21819802.638
       219.000         170.000
 -11448356.99949  -8904749.63747  21519338.805    21519338.536    21519354.731
       234.000         190.000
 -13942446.19549 -10849226.80747  19630977.124    19630976.232    19630990.063
       241.000         209.000
   -311167.18449   -238039.47347  19691973.115    19691972.056    19691986.005
       238.000         204.000
  -7056908.74549  -5488508.79346  22464715.756    22464715.187    22464732.439
       225.000         172.000
 01 12 19 21 14 29.9960000  0  7G28G 2G27G26G 7G 8G11
  -3787117.72749  -2943662.05747  19796062.655    19796061.849    19796073.599
       241.000         207.000
   1216889.10849    948030.69747  21359636.136    21359634.955    21359650.737
       235.000         199.000
   5123812.87749   3990750.29746  21831084.717    21831083.509    21831102.028
       219.000         171.000
 -11493792.22349  -8940153.65747  21510692.723    21510692.446    21510708.635
       233.000         189.000
 -14014193.58949 -10905133.78747  19617324.034    19617323.120    19617336.904
       241.000         209.000
   -283940.35049   -216823.81047  19697154.227    19697153.184    19697167.121
       238.000         203.000
  -7074244.57449  -5502017.21846  22461416.857    22461416.270    22461433.485
       225.000         173.000
 01 12 19 21 14 59.9960000  0  7G28G 2G27G26G 7G 8G11
  -3799387.18449  -2953222.67347  19793727.907    19793727.070    19793738.770
       241.000         207.000
   1232287.17249    960029.14047  21362566.374    21362565.167    21362580.990
       235.000         198.000
   5183490.91149   4037252.47346  21842441.275    21842440.013    21842458.558
       219.000         171.000
 -11538656.05849  -8975112.44647  21502155.324    21502155.092    21502171.276
       232.000         189.000
 -14085490.04249 -10960689.37747  19603756.715    19603755.798    19603769.574
       241.000         210.000
   -256286.25849   -195275.22047  19702416.680    19702415.616    19702429.547
       238.000         203.000
  -7091057.75949  -5515118.39646  22458217.390    22458216.794    22458233.947
       225.000         172.000
 01 12 19 21 15 29.9960000  0  7G28G 2G27G26G 7G 8G11
  -3811463.61049  -2962632.88147  19791429.833    19791429.006    19791440.666
       241.000         207.000
   1247791.28649    972110.22047  21365516.799    21365515.562    21365531.404
       235.000         198.000
   5243465.86549   4083986.01246  21853854.282    21853853.015    21853871.563
       218.000         169.000
 -11582949.92749  -9009627.09547  21493726.423    21493726.198    21493742.393
       233.000         190.000
 -14156337.16749 -11015894.84947  19590274.881    19590273.980    19590287.742
       241.000         210.000
   -228207.39349   -173395.63547  19707759.933    19707758.869    19707772.808
       238.000         203.000
  -7107349.90349  -5527813.58146  22455117.104    22455116.479    22455133.592
       225.000         173.000
 01 12 19 21 15 59.9960000  0  7G28G 2G27G26G 7G 8G11
  -3823343.01449  -2971889.56947  19789169.328    19789168.451    19789180.072
       242.000         207.000
   1263405.89349    984277.40947  21368488.178    21368486.982    21368502.828
       235.000         197.000
   5303740.74449   4130953.26246  21865324.354    21865323.114    21865341.669
       220.000         170.000
 -11626669.53149  -9043694.26747  21485406.818    21485406.583    21485422.776
       234.000         189.000
 -14226730.06649 -11070746.37747  19576879.507    19576878.599    19576892.335
       241.000         210.000
   -199700.10249   -151182.20547  19713184.703    19713183.640    19713197.614
       238.000         203.000
  -7123116.80349  -5540099.49846  22452116.773    22452116.104    22452133.209
       225.000         173.000
 01 12 19 21 16 29.9960000  0  7G28G 2G27G26G 7G 8G11
  -3835034.65249  -2980999.95647  19786944.503    19786943.616    19786955.224
       240.000         207.000
   1279122.34349    996523.95047  21371478.926    21371477.749    21371493.624
       234.000         197.000
   5364305.30149   4178146.23346  21876849.625    21876848.324    21876866.904
       219.000         168.000
 -11669823.38749  -9077320.60447  21477194.820    21477194.621    21477210.782
       233.000         189.000
 -14296677.37649 -11125250.69747  19563568.928    19563568.009    19563581.720
       241.000         210.000
   -170773.71349   -128642.22147  19718689.240    19718688.173    19718702.176
       238.000         203.000
  -7138367.29049  -5551983.03246  22449214.718    22449214.039    22449231.102
       226.000         174.000
 01 12 19 21 16 59.9960000  0  7G28G 2G27G26G 7G 8G11
  -3846540.59849  -2989965.64947  19784754.961    19784754.077    19784765.705
       240.000         208.000
   1294938.84849   1008848.45347  21374488.741    21374487.563    21374503.451
       235.000         197.000
   5425156.39849   4225562.47746  21888429.272    21888428.025    21888446.645
       218.000         168.000
 -11712413.29949  -9110507.49747  21469090.145    21469089.991    21469106.115
       234.000         189.000
 -14366180.67049 -11179409.03247  19550342.797    19550341.898    19550355.605
       240.000         209.000
   -141430.71149   -105777.60447  19724273.053    19724271.981    19724286.004
       238.000         203.000
  -7153103.09749  -5563465.54346  22446410.634    22446409.916    22446426.931
       224.000         173.000
 01 12 19 21 17 29.9960000  0  7G28G 2G27G26G 7G 8G11
  -3857854.42249  -2998781.63547  19782602.060    19782601.137    19782612.746
       241.000         207.000
   1310862.39249   1021256.36747  21377518.881    21377517.732    21377533.651
       234.000         197.000
   5486299.26749   4273206.06846  21900064.537    21900063.274    21900081.884
       219.000         168.000
 -11754432.38849  -9143249.59647  21461094.093    21461093.964    21461110.066
       234.000         188.000
 -14435232.82849 -11233215.82647  19537202.503    19537201.631    19537215.333
       241.000         209.000
   -111664.90249    -82583.52747  19729937.320    19729936.260    19729950.305
       237.000         203.000
  -7167317.52049  -5574541.79446  22443705.671    22443705.005    22443722.008
       224.000         172.000
 01 12 19 21 17 59.9960000  0  7G28G 2G27G26G 7G 8G11
  -3868986.84449  -3007456.27847  19780483.558    19780482.700    19780494.343
       240.000         207.000
   1326882.58849   1033739.59047  21380567.439    21380566.309    21380582.256
       234.000         196.000
   5547722.16749   4321067.87246  21911753.091    21911751.832    21911770.427
       218.000         168.000
 -11795891.14749  -9175555.07347  21453204.691    21453204.586    21453220.658
       235.000         189.000
 -14503843.85949 -11286678.89247  19524146.173    19524145.313    19524159.009
       240.000         209.000
    -81487.24249    -59068.53047  19735680.009    19735678.912    19735692.961
       238.000         203.000
  -7181020.70949  -5585219.68046  22441097.976    22441097.336    22441114.350
       224.000         171.000
 01 12 19 21 18 29.9960000  0  7G28G 2G27G26G 7G 8G11
  -3879941.80249  -3015992.63547  19778398.838    19778398.021    19778409.682
       240.000         207.000
   1342996.23249   1046295.63047  21383633.735    21383632.654    21383648.620
       233.000         196.000
   5609420.15349   4369144.02346  21923493.974    21923492.719    21923511.341
       218.000         168.000
 -11836792.84249  -9207426.47347  21445421.283    21445421.201    21445437.264
       233.000         189.000
 -14572017.14649 -11339800.85947  19511173.143    19511172.284    19511185.976
       240.000         209.000
    -50902.06249    -35235.97047  19741500.224    19741499.122    19741513.165
       238.000         203.000
  -7194216.51049  -5595502.19646  22438586.831    22438586.237    22438603.262
       224.000         171.000
 01 12 19 21 18 59.9960000  0  7G28G 2G27G26G 7G 8G11
  -3890704.73449  -3024379.36447  19776350.723    19776349.908    19776361.570
       240.000         207.000
   1359218.28349   1058936.14147  21386720.749    21386719.644    21386735.622
       233.000         196.000
   5671406.56149   4417444.91946  21935289.800    21935288.509    21935307.142
       217.000         167.000
 -11877122.81449  -9238852.37347  21437746.765    21437746.619    21437762.644
       235.000         190.000
 -14639737.54349 -11392569.92947  19498286.253    19498285.429    19498299.126
       240.000         209.000
    -19895.18049    -11074.82247  19747400.690    19747399.581    19747413.606
       237.000         202.000
  -7206889.97349  -5605377.70746  22436175.120    22436174.538    22436191.578
       224.000         171.000
 01 12 19 21 19 29.9960000  0  7G28G 2G27G26G 7G 8G11
  -3901280.37649  -3032620.15147  19774338.238    19774337.407    19774349.126
       239.000         207.000
   1375544.45649   1071657.77947  21389827.553    21389826.426    21389842.432
       233.000         195.000
   5733675.70349   4465966.11546  21947139.385    21947138.079    21947156.784
       218.000         167.000
 -11916885.25649  -9269836.04147  21430180.230    21430180.040    21430196.025
       234.000         190.000
 -14707009.19849 -11444989.32247  19485484.818    19485483.986    19485497.672
       240.000         209.000
     11528.45249     13411.06647  19753380.445    19753379.336    19753393.364
       237.000         202.000
  -7219045.54849  -5614849.67746  22433862.047    22433861.422    22433878.472
       224.000         171.000
 01 12 19 21 19 59.9960000  0  7G28G 2G27G26G 7G 8G11
  -3911669.41549  -3040715.53347  19772361.232    19772360.422    19772372.172
       239.000         207.000
   1391974.37649   1084460.26347  21392954.083    21392952.950    21392968.982
       233.000         194.000
   5796225.62949   4514706.09746  21959042.385    21959041.086    21959059.844
       218.000         167.000
 -11956080.73049  -9300377.90947  21422721.477    21422721.340    21422737.321
       234.000         190.000
 -14773832.56849 -11497059.40747  19472768.730    19472767.859    19472781.517
       240.000         209.000
     43367.69649     38220.81047  19759439.236    19759438.164    19759452.204
       237.000         202.000
  -7230684.03349  -5623918.72046  22431647.409    22431646.737    22431663.754
       223.000         171.000
 01 12 19 21 20 29.9960000  0  7G28G 2G27G26G 7G 8G11
  -3921875.23549  -3048668.13847  19770419.114    19770418.299    19770430.078
       240.000         207.000
   1408505.16149   1097341.34147  21396099.883    21396098.706    21396114.710
       233.000         194.000
   5859051.68649   4563661.25046  21970997.946    21970996.606    21971015.502
       217.000         167.000
 -11994712.58949  -9330480.59547  21415370.079    21415369.910    21415385.862
       235.000         190.000
 -14840210.45349 -11548782.36247  19460137.393    19460136.532    19460150.158
       241.000         210.000
     75618.44849     63351.21747  19765576.395    19765575.302    19765589.359
       237.000         202.000
  -7241808.62949  -5632587.32546  22429530.507    22429529.798    22429546.832
       222.000         170.000
 01 12 19 21 20 59.9960000  0  7G28G 2G27G26G 7G 8G11
  -3931892.22549  -3056473.61047  19768513.022    19768512.163    19768523.910
       240.000         207.000
   1425142.90449   1110305.76147  21399265.974    21399264.813    21399280.791
       234.000         194.000
   5922158.60149   4612835.23346  21983006.952    21983005.623    21983024.549
       216.000         166.000
 -12032774.77749  -9360139.39147  21408127.120    21408126.880    21408142.809
       237.000         190.000
 -14906136.50249 -11600153.23947  19447592.066    19447591.175    19447604.778
       240.000         210.000
    108286.19549     88806.56247  19771792.894    19771791.797    19771805.869
       238.000         202.000
  -7252413.61349  -5640851.03346  22427512.510    22427511.732    22427528.809
       223.000         170.000
 01 12 19 21 21 29.9960000  0  7G28G 2G27G26G 7G 8G11
  -3941731.51749  -3064140.61547  19766640.678    19766639.814    19766651.573
       240.000         207.000
   1441877.06349   1123345.30947  21402450.405    21402449.245    21402465.229
       233.000         193.000
   5985534.00249   4662218.44246  21995067.094    21995065.748    21995084.698
       218.000         167.000
 -12070278.25549  -9389362.82447  21400990.487    21400990.174    21401006.048
       234.000         189.000
 -14971621.65949 -11651180.56647  19435130.599    19435129.703    19435143.296
       240.000         209.000
    141359.40949    114577.84847  19778086.540    19778085.449    19778099.551
       238.000         202.000
  -7262509.64249  -5648718.14946  22425591.308    22425590.538    22425607.646
       222.000         169.000
 01 12 19 21 21 59.9960000  0  7G28G 2G27G26G 7G 8G11
  -3951400.68949  -3071675.05347  19764800.740    19764799.841    19764811.589
       239.000         207.000
   1458700.48949   1136454.42047  21405651.790    21405650.662    21405666.645
       233.000         193.000
   6049168.88249   4711803.84146  22007176.620    22007175.254    22007194.249
       219.000         167.000
 -12107230.57449  -9418156.78347  21393958.650    21393958.340    21393974.164
       235.000         189.000
 -15036672.95149 -11701869.81447  19422751.687    19422750.789    19422764.362
       240.000         209.000
    174829.68949    140658.54347  19784455.769    19784454.677    19784468.784
       238.000         202.000
  -7272104.48549  -5656194.71246  22423765.508    22423764.722    22423781.890
       223.000         169.000
 01 12 19 21 22 29.9960000  0  7G28G 2G27G26G 7G 8G11
  -3960882.85349  -3079063.76547  19762996.353    19762995.476    19763007.208
       240.000         207.000
   1475630.56449   1149646.62647  21408873.485    21408872.388    21408888.342
       232.000         192.000
   6113079.05949   4761603.74946  22019338.603    22019337.180    22019356.212
       217.000         168.000
 -12143614.59849  -9446507.91347  21387034.966    21387034.659    21387050.459
       234.000         190.000
 -15101273.10549 -11752207.53547  19410458.638    19410457.725    19410471.272
       240.000         209.000
    208713.73349    167061.65047  19790903.740    19790902.642    19790916.755
       239.000         201.000
  -7281181.15849  -5663267.51746  22422038.269    22422037.512    22422054.749
       224.000         168.000
 01 12 19 21 22 59.9960000  0  7G28G 2G27G26G 7G 8G11
  -3970176.13149  -3086305.29147  19761227.879    19761227.047    19761238.774
       240.000         207.000
   1492669.33349   1162923.53647  21412115.953    21412114.803    21412130.749
       233.000         192.000
   6177264.97949   4811618.51846  22031552.957    22031551.521    22031570.616
       217.000         166.000
 -12179428.47849  -9474414.77347  21380219.796    21380219.460    21380235.272
       234.000         190.000
 -15165419.94949 -11802192.03347  19398251.847    19398250.928    19398264.449
       240.000         209.000
    243012.74349    193788.10347  19797430.694    19797429.555    19797443.679
       239.000         201.000
  -7289737.91149  -5669935.18846  22420410.010    22420409.246    22420426.502
       223.000         169.000
 01 12 19 21 23 29.9960000  0  7G28G 2G27G26G 7G 8G11
  -3979278.47049  -3093398.02947  19759495.792    19759494.948    19759506.674
       240.000         207.000
   1509819.38249   1176287.15847  21415379.605    21415378.405    21415394.332
       233.000         192.000
   6241727.53849   4861848.86146  22043819.944    22043818.525    22043837.639
       217.000         165.000
 -12214670.09349  -9501875.71147  21373513.445    21373513.165    21373528.964
       234.000         190.000
 -15229111.08849 -11851821.43147  19386131.752    19386130.851    19386144.347
       240.000         209.000
    277728.20149    220839.06947  19804036.846    19804035.725    19804049.852
       239.000         201.000
  -7297772.63549  -5676196.07646  22418881.140    22418880.338    22418897.589
       224.000         169.000
 01 12 19 21 23 59.9960000  0  8G28G 2G27G26G 7G 8G 4G11
  -3988187.38249  -3100340.04647  19757800.532    19757799.675    19757811.380
       240.000         207.000
   1527083.65449   1189739.78747  21418664.918    21418663.731    21418679.640
       233.000         192.000
   6306467.89949   4912295.66146  22056139.790    22056138.359    22056157.535
       216.000         166.000
 -12249336.98549  -9528888.80847  21366916.459    21366916.215    21366932.012
       234.000         189.000
 -15292343.60949 -11901093.47147  19374098.953    19374098.038    19374111.534
       239.000         209.000
    312862.06649    248216.07447  19810722.589    19810721.503    19810735.644
       238.000         201.000
  -1709899.19159  -1316389.93955  23807009.896    23807010.325    23807042.417
       201.000         132.000
  -7305282.98649  -5682048.36046  22417451.959    22417451.191    22417468.446
       224.000         169.000
 01 12 19 21 24 29.9960000  0  8G28G 2G27G26G 7G 8G 4G11
  -3996913.39749  -3107139.53247  19756140.028    19756139.182    19756150.898
       240.000         207.000
   1544452.05949   1203273.55447  21421970.010    21421968.859    21421984.783
       232.000         192.000
   6371474.15349   4962949.65646  22068510.160    22068508.803    22068528.002
       217.000         165.000
 -12283439.53049  -9555462.16547  21360427.005    21360426.667    21360442.422
       235.000         190.000
 -15355127.73849 -11950016.11447  19362151.457    19362150.558    19362164.034
       239.000         209.000
    348403.32249    275910.52747  19817485.884    19817484.805    19817498.976
       239.000         201.000
  -1842269.27049  -1419534.79645  23781820.517    23781820.964    23781853.024
       204.000         132.000
  -7312279.27249  -5687500.06246  22416120.712    22416119.899    22416137.141
       224.000         169.000
 01 12 19 21 24 59.9960000  0  8G28G 2G27G26G 7G 8G 4G11
  -4005470.38749  -3113807.31247  19754511.722    19754510.864    19754522.559
       240.000         206.000
   1561911.25949   1216878.06247  21425292.456    21425291.279    21425307.203
       232.000         192.000
   6436731.39749   5013799.22946  22080928.325    22080926.996    22080946.252
       216.000         165.000
 -12316991.70549  -9581606.65947  21354042.230    21354041.873    21354057.604
       234.000         191.000
 -15417477.04949 -11998599.94147  19350286.762    19350285.834    19350299.288
       239.000         209.000
    384337.49949    303911.14247  19824323.975    19824322.880    19824337.072
       238.000         201.000
  -1974788.50849  -1522795.80745  23756602.540    23756603.061    23756635.065
       204.000         134.000
  -7318775.64449  -5692562.21846  22414884.548    22414883.756    22414901.003
       222.000         168.000
 01 12 19 21 25 29.9960000  0  8G28G 2G27G26G 7G 8G 4G11
  -4013838.11949  -3120327.61447  19752919.462    19752918.548    19752930.219
       240.000         207.000
   1579481.92049   1230569.43147  21428636.034    21428634.889    21428650.827
       232.000         191.000
   6502258.52549   5064859.10446  22093397.907    22093396.561    22093415.859
       217.000         164.000
 -12349973.25349  -9607306.49547  21347765.922    21347765.637    21347781.370
       234.000         190.000
 -15479370.84049 -12046828.81347  19338508.756    19338507.807    19338521.229
       239.000         210.000
    420684.25749    332233.24447  19831240.591    19831239.478    19831253.675
       238.000         201.000
  -2107433.80849  -1626154.98245  23731360.677    23731361.262    23731393.107
       201.000         135.000
  -7324751.80649  -5697219.00846  22413747.381    22413746.557    22413763.840
       224.000         169.000
 01 12 19 21 25 59.9960000  0  8G28G 2G27G26G 7G 8G 4G11
  -4022023.85049  -3126706.09047  19751361.788    19751360.859    19751372.504
       240.000         206.000
   1597157.35949   1244342.44747  21431999.579    21431998.452    21432014.395
       232.000         191.000
   6568046.94849   5116122.58246  22105917.268    22105915.864    22105935.192
       216.000         163.000
 -12382391.44049  -9632567.35547  21341596.827    21341596.570    21341612.346
       234.000         190.000
 -15540816.20049 -12094708.25747  19326816.043    19326815.106    19326828.513
       239.000         209.000
    457435.77649    360870.74447  19838234.224    19838233.106    19838247.297
       238.000         200.000
  -2240209.58649  -1729615.80945  23706093.970    23706094.503    23706126.237
       205.000         136.000
  -7330215.07749  -5701476.14546  22412707.785    22412706.976    22412724.266
       225.000         169.000
 01 12 19 21 26 29.9960000  0  8G28G 2G27G26G 7G 8G 4G11
  -4030032.48349  -3132946.56547  19749837.849    19749836.882    19749848.491
       240.000         207.000
   1614932.68049   1258193.29647  21435382.139    21435381.023    21435396.991
       233.000         190.000
   6634090.04149   5167584.50545  22118484.870    22118483.587    22118502.990
       215.000         162.000
 -12414251.68349  -9657393.45547  21335533.942    21335533.730    21335549.466
       235.000         191.000
 -15601818.00949 -12142242.07547  19315207.790    19315206.801    19315220.209
       239.000         209.000
    494586.31549    389819.16947  19845303.734    19845302.625    19845316.845
       238.000         200.000
  -2373118.45249  -1833180.27845  23680801.717    23680802.319    23680834.078
       204.000         133.000
  -7335171.03149  -5705337.95246  22411764.753    22411763.937    22411781.238
       225.000         169.000
 01 12 19 21 26 59.9960000  0  8G28G 2G27G26G 7G 8G 4G11
  -4037856.96349  -3139043.53347  19748348.852    19748347.920    19748359.559
       240.000         207.000
   1632815.85649   1272128.17047  21438785.258    21438784.120    21438800.097
       232.000         191.000
   6700394.04949   5219249.75245  22131102.263    22131100.967    22131120.427
       213.000         161.000
 -12445546.69349  -9681779.10847  21329578.687    21329578.461    21329594.153
       235.000         190.000
 -15662368.79049 -12189424.43647  19303685.339    19303684.340    19303697.718
       239.000         209.000
    532142.26249    419083.49647  19852450.426    19852449.324    19852463.536
       238.000         200.000
  -2506150.04549  -1936840.38545  23655486.090    23655486.900    23655518.648
       201.000         135.000
  -7339612.17549  -5708798.60746  22410919.608    22410918.876    22410936.144
       224.000         170.000
 01 12 19 21 27 29.9960000  0  8G28G 2G27G26G 7G 8G 4G11
  -4045497.04449  -3144996.81747  19746894.956    19746894.038    19746905.701
       240.000         206.000
   1650807.58449   1286147.63747  21442209.090    21442207.903    21442223.844
       232.000         190.000
   6766957.77049   5271117.35345  22143769.103    22143767.746    22143787.310
       215.000         160.000
 -12476276.25949  -9705724.14247  21323730.964    21323730.769    21323746.457
       235.000         192.000
 -15722467.86049 -12236254.82347  19292248.813    19292247.825    19292261.198
       239.000         209.000
    570103.69449    448663.77747  19859674.317    19859673.184    19859687.403
       238.000         200.000
  -2639301.38549  -2040593.77745  23630147.605    23630148.551    23630180.242
       201.000         135.000
  -7343538.51149  -5711858.10646  22410172.494    22410171.742    22410189.016
       224.000         169.000
 01 12 19 21 27 59.9960000  0  8G28G 2G27G26G 7G 8G 4G11
  -4052973.71149  -3150822.77047  19745472.170    19745471.262    19745482.904
       240.000         206.000
   1668887.13249   1300235.53247  21445649.600    21445648.386    21445664.323
       232.000         190.000
   6833758.58549   5323169.70945  22156481.027    22156479.679    22156499.266
       212.000         160.000
 -12506461.99249  -9729245.42747  21317986.800    21317986.593    21318002.225
       236.000         191.000
 -15782136.38549 -12282749.71347  19280894.213    19280893.231    19280906.608
       238.000         209.000
    608448.49749    478542.78547  19866971.169    19866970.004    19866984.199
       238.000         200.000
  -2772590.94749  -2144454.87645  23604782.739    23604783.884    23604815.465
       206.000         136.000
  -7346971.84549  -5714533.44646  22409519.167    22409518.397    22409535.693
       224.000         168.000
 01 12 19 21 28 29.9950000  0  8G28G 2G27G26G 7G 8G 4G11
  -4060263.05749  -3156502.74847  19744085.039    19744084.144    19744095.755
       241.000         207.000
   1687077.98549   1314410.15247  21449111.223    21449110.034    21449125.951
       232.000         190.000
   6900816.58049   5375422.46945  22169241.857    22169240.503    22169260.192
       211.000         158.000
 -12536079.43649  -9752323.87947  21312350.753    21312350.533    21312366.160
       235.000         191.000
 -15841348.70749 -12328889.12247  19269626.432    19269625.443    19269638.820
       238.000         209.000
    647198.19649    508737.29447  19874345.005    19874343.862    19874358.065
       238.000         200.000
  -2905987.71449  -2248399.52545  23579397.509    23579398.784    23579430.243
       206.000         138.000
  -7349888.21349  -5716805.94546  22408964.169    22408963.423    22408980.788
       226.000         169.000
 01 12 19 21 28 59.9950000  0  8G28G 2G27G26G 7G 8G 4G11
  -4067376.90749  -3162045.98347  19742731.283    19742730.410    19742742.032
       241.000         207.000
   1705370.66049   1328664.10947  21452592.252    21452591.059    21452606.995
       232.000         190.000
   6968123.61749   5427869.29045  22182050.001    22182048.715    22182068.464
       213.000         159.000
 -12565141.88649  -9774969.87747  21306820.325    21306820.074    21306835.689
       235.000         191.000
 -15900119.64949 -12374684.59947  19258442.638    19258441.657    19258455.019
       238.000         209.000
    686343.43849    539240.01347  19881794.185    19881793.010    19881807.220
       238.000         200.000
  -3039508.93049  -2352441.13945  23553988.710    23553989.946    23554021.347
       207.000         136.000
  -7352299.68849  -5718685.01446  22408505.291    22408504.557    22408521.926
       224.000         168.000
 01 12 19 21 29 29.9950000  0  8G28G 2G27G26G 7G 8G 4G11
  -4074306.52649  -3167445.66747  19741412.672    19741411.772    19741423.330
       241.000         207.000
   1723773.45649   1343003.87747  21456094.259    21456093.064    21456109.008
       232.000         190.000
   7035684.64649   5480514.01645  22194906.602    22194905.285    22194925.123
       213.000         158.000
 -12593640.18849  -9797176.28147  21301397.224    21301396.984    21301412.579
       234.000         191.000
 -15958438.63549 -12420127.90447  19247344.867    19247343.884    19247357.225
       238.000         209.000
    725890.80349    570056.07347  19889319.878    19889318.678    19889332.883
       238.000         200.000
  -3173138.97449  -2456567.58045  23528559.121    23528560.469    23528591.740
       204.000         139.000
  -7354197.82349  -5720164.07546  22408144.175    22408143.382    22408160.752
       224.000         168.000
 01 12 19 21 29 59.9950000  0  8G28G 2G27G26G 7G 8G 4G11
  -4081048.97749  -3172699.51047  19740129.645    19740128.732    19740140.273
       241.000         207.000
   1742289.65849   1357431.99447  21459617.855    21459616.628    21459632.601
       232.000         190.000
   7103501.01349   5533357.70445  22207811.643    22207810.400    22207830.373
       212.000         157.000
 -12621571.92749  -9818941.20847  21296082.010    21296081.703    21296097.291
       236.000         190.000
 -16016302.77049 -12465216.77647  19236333.633    19236332.653    19236345.985
       238.000         209.000
    765842.50649    601187.19347  19896922.479    19896921.283    19896935.500
       238.000         200.000
  -3306871.94649  -2560774.25145  23503110.108    23503111.380    23503142.503
       205.000         141.000
  -7355580.15849  -5721241.20046  22407881.218    22407880.383    22407897.707
       224.000         169.000
 01 12 19 21 30 29.9950000  0  8G28G 2G27G26G 7G 8G 4G11
  -4087603.20149  -3177806.68347  19738882.358    19738881.488    19738893.044
       240.000         207.000
   1760920.70549   1371949.60747  21463163.260    21463162.052    21463178.045
       232.000         190.000
   7171572.12449   5586399.91345  22220765.236    22220764.044    22220784.016
       213.000         157.000
 -12648936.31349  -9840264.04247  21290874.662    21290874.397    21290889.927
       234.000         190.000
 -16073710.90849 -12509950.32847  19225409.167    19225408.197    19225421.513
       238.000         209.000
    806198.58049    632633.40447  19904602.000    19904600.832    19904615.078
       238.000         200.000
  -3440703.92049  -2665058.08645  23477642.116    23477643.445    23477674.446
       205.000         141.000
  -7356445.90849  -5721915.79046  22407716.454    22407715.642    22407732.919
       224.000         168.000
 01 12 19 21 30 59.9950000  0  8G28G 2G27G26G 7G 8G 4G11
  -4093984.08349  -3182778.78547  19737668.104    19737667.243    19737678.780
       241.000         207.000
   1779651.96449   1386545.29547  21466727.725    21466726.534    21466742.560
       231.000         189.000
   7239881.76449   5639627.97445  22233764.311    22233763.082    22233783.085
       212.000         157.000
 -12675748.70649  -9861156.75947  21285772.403    21285772.133    21285787.590
       234.000         190.000
 -16130678.01549 -12554340.21747  19214568.650    19214567.673    19214580.958
       238.000         208.000
    846943.33749    664382.47747  19912355.537    19912354.348    19912368.599
       238.000         200.000
  -3574647.07149  -2769428.56445  23452153.061    23452154.338    23452185.131
       209.000         141.000
  -7356810.28349  -5722199.69646  22407647.110    22407646.312    22407663.561
       224.000         169.000
 01 12 19 21 31 29.9950000  0  8G28G 2G27G26G 7G 8G 4G11
  -4100193.46449  -3187617.26247  19736486.586    19736485.651    19736497.166
       242.000         207.000
   1798482.22649   1401218.12647  21470311.143    21470309.888    21470325.918
       232.000         190.000
   7308426.89549   5693039.55445  22246808.265    22246807.008    22246827.008
       213.000         157.000
 -12702011.02749  -9881620.85147  21280774.886    21280774.547    21280789.950
       235.000         191.000
 -16187205.47249 -12598387.52347  19203811.837    19203810.835    19203824.067
       238.000         209.000
    888074.49449    696432.63747  19920182.581    19920181.397    19920195.680
       238.000         200.000
  -3708700.14749  -2873884.70445  23426642.954    23426644.339    23426674.929
       208.000         140.000
  -7356675.57449  -5722094.71346  22407672.728    22407671.950    22407689.202
       223.000         166.000
 01 12 19 21 31 59.9950000  0  8G28G 2G27G26G 7G 8G 4G11
  -4106222.95349  -3192315.57047  19735339.243    19735338.292    19735349.766
       241.000         207.000
   1817420.33849   1415974.99547  21473915.066    21473913.790    21473929.808
       233.000         190.000
   7377214.16049   5746639.78945  22259898.295    22259896.983    22259916.991
       212.000         157.000
 -12727715.61749  -9901650.35147  21275883.512    21275883.133    21275898.454
       235.000         191.000
 -16243285.22249 -12642085.97347  19193140.218    19193139.192    19193152.374
       238.000         208.000
    929599.16349    728789.43147  19928084.527    19928083.343    19928097.622
       238.000         199.000
  -3842852.15349  -2978417.94145  23401114.008    23401115.462    23401145.849
       207.000         141.000
  -7356033.97749  -5721594.75446  22407794.864    22407794.082    22407811.281
       224.000         167.000
 01 12 19 21 32 29.9950000  0  8G28G 2G27G26G 7G 8G 4G11
  -4112060.88849  -3196864.61447  19734228.265    19734227.359    19734238.840
       240.000         207.000
   1836478.43949   1430825.34947  21477541.794    21477540.508    21477556.513
       232.000         190.000
   7446253.77549   5800436.66345  22273036.337    22273034.983    22273054.979
       214.000         157.000
 -12752851.20449  -9921236.48247  21271100.412    21271099.971    21271115.271
       235.000         191.000
 -16298905.54849 -12685426.43247  19182555.994    19182554.964    19182568.116
       238.000         208.000
    971528.39049    761461.46647  19936063.494    19936062.291    19936076.547
       238.000         199.000
  -3977088.29849  -3083016.70445  23375569.077    23375570.571    23375600.791
       207.000         139.000
  -7354874.25649  -5720691.06246  22408015.579    22408014.783    22408031.931
       223.000         167.000
 01 12 19 21 32 59.9950000  0  8G28G 2G27G26G 7G 8G 4G11
  -4117719.33149  -3201273.80447  19733151.422    19733150.599    19733162.081
       241.000         207.000
   1855644.70949   1445759.99547  21481189.063    21481187.799    21481203.829
       232.000         190.000
   7515532.30249   5854419.70445  22286219.840    22286218.426    22286238.489
       214.000         158.000
 -12777430.33849  -9940389.02647  21266423.113    21266422.684    21266437.986
       234.000         191.000
 -16354078.52749 -12728418.30847  19172056.889    19172055.853    19172068.987
       237.000         208.000
   1013849.31049    794438.71247  19944117.004    19944115.758    19944130.006
       237.000         199.000
  -4111418.00149  -3187688.38645  23350006.416    23350008.009    23350038.016
       207.000         137.000
  -7353208.97649  -5719393.44746  22408332.401    22408331.664    22408348.805
       222.000         167.000
 01 12 19 21 33 29.9950000  0  8G28G 2G27G26G 7G 8G 4G11
  -4123202.05449  -3205546.06347  19732108.115    19732107.270    19732118.760
       241.000         208.000
   1874915.71149   1460776.24647  21484856.248    21484855.012    21484871.064
       232.000         189.000
   7585044.39249   5908584.73345  22299447.793    22299446.317    22299466.483
       213.000         158.000
 -12801457.38749  -9959111.37547  21261850.858    21261850.453    21261865.735
       234.000         191.000
 -16408808.06549 -12771064.64547  19161642.132    19161641.136    19161654.237
       237.000         208.000
   1056556.82949    827717.20247  19952244.037    19952242.805    19952257.059
       237.000         198.000
  -4245842.29549  -3292433.84145  23324425.766    23324427.294    23324457.043
       207.000         139.000
  -7351042.39149  -5717705.20646  22408744.692    22408743.963    22408761.118
       223.000         166.000
 01 12 19 21 33 59.9950000  0  8G28G 2G27G26G 7G 8G 4G11
  -4128497.81749  -3209672.65447  19731100.368    19731099.524    19731111.044
       241.000         208.000
   1894303.24449   1475883.29447  21488545.637    21488544.391    21488560.482
       231.000         189.000
   7654799.72849   5962939.30945  22312721.935    22312720.521    22312740.725
       212.000         157.000
 -12824921.57649  -9977395.13647  21257385.655    21257385.336    21257400.592
       234.000         192.000
 -16463082.84549 -12813356.63447  19151313.929    19151312.936    19151326.028
       237.000         208.000
   1099661.70949    861305.31847  19960446.710    19960445.470    19960459.709
       237.000         198.000
  -4380346.92549  -3397241.90645  23298829.801    23298831.257    23298860.870
       207.000         140.000
  -7348364.09449  -5715618.24746  22409254.358    22409253.621    22409270.770
       222.000         166.000
 01 12 19 21 34 29.9950000  0  8G28G 2G27G26G 7G 8G 4G11
  -4133609.78149  -3213656.02247  19730127.583    19730126.770    19730138.284
       241.000         208.000
   1913804.58249   1491079.03547  21492256.657    21492255.438    21492271.563
       232.000         189.000
   7724793.51649   6017479.68145  22326041.466    22326040.047    22326060.430
       213.000         157.000
 -12847826.60249  -9995243.18347  21253027.003    21253026.630    21253041.859
       236.000         192.000
 -16516906.26949 -12855296.91747  19141071.604    19141070.627    19141083.708
       237.000         207.000
   1143159.66249    895199.72647  19968724.160    19968722.930    19968737.179
       237.000         198.000
  -4514932.02349  -3502112.62645  23273218.460    23273220.035    23273249.388
       205.000         140.000
  -7345177.51349  -5713135.24146  22409860.745    22409860.015    22409877.189
       223.000         167.000
 01 12 19 21 34 59.9950000  0  8G28G 2G27G26G 7G 8G 4G11
  -4138537.77249  -3217496.05147  19729189.805    19729188.992    19729200.522
       241.000         208.000
   1933420.23949   1506363.85347  21495989.531    21495988.262    21496004.385
       232.000         189.000
   7795024.46049   6072204.85345  22339406.136    22339404.713    22339425.154
       212.000         157.000
 -12870172.88249 -10012655.85247  21248774.608    21248774.258    21248789.461
       235.000         192.000
 -16570278.06549 -12896885.29447  19130915.246    19130914.263    19130927.330
       237.000         208.000
   1187050.03449    929399.91147  19977076.292    19977075.058    19977089.326
       237.000         198.000
  -4649594.52149  -3607043.67545  23247592.376    23247594.026    23247623.221
       203.000         140.000
  -7341483.01849  -5710256.47746  22410563.749    22410563.055    22410580.244
       223.000         169.000
 01 12 19 21 35 29.9950000  0  8G28G 2G27G26G 7G 8G 4G11
  -4143274.13049  -3221186.74747  19728288.556    19728287.714    19728299.232
       242.000         208.000
   1953158.16749   1521743.95147  21499745.608    21499744.333    21499760.481
       232.000         189.000
   7865498.44349   6127119.38945  22352816.953    22352815.620    22352836.188
       212.000         155.000
 -12891953.55449 -10029627.78647  21244629.761    21244629.476    21244644.704
       234.000         192.000
 -16623190.92349 -12938116.05247  19120846.198    19120845.239    19120858.298
       237.000         207.000
   1231339.44049    963911.04147  19985504.319    19985503.109    19985517.412
       236.000         197.000
  -4784324.02549  -3712026.97145  23221953.562    23221955.265    23221984.287
       207.000         140.000
  -7337273.70249  -5706976.54646  22411364.779    22411364.077    22411381.312
       222.000         169.000
 01 12 19 21 35 59.9950000  0  8G28G 2G27G26G 7G 8G 4G11
  -4147837.19949  -3224742.41947  19727420.276    19727419.398    19727430.928
       242.000         208.000
   1973000.76349   1537205.61747  21503521.558    21503520.308    21503536.486
       231.000         188.000
   7936195.73849   6182207.95045  22366270.233    22366269.001    22366289.655
       208.000         154.000
 -12913187.36149 -10046173.59547  21240589.081    21240588.773    21240604.026
       234.000         192.000
 -16675663.08649 -12979003.41947  19110861.007    19110860.061    19110873.133
       237.000         207.000
   1276008.87849    998718.29147  19994004.686    19994003.473    19994017.828
       237.000         197.000
  -4919135.79849  -3817074.38145  23196299.069    23196300.861    23196329.626
       204.000         138.000
  -7332568.56149  -5703310.27746  22412260.167    22412259.475    22412276.721
       222.000         169.000
 01 12 19 21 36 29.9950000  0  8G28G 2G27G26G 7G 8G 4G11
  -4152220.40349  -3228157.93847  19726586.225    19726585.335    19726596.834
       242.000         209.000
   1992954.87749   1552754.18447  21507318.807    21507317.519    21507333.731
       232.000         188.000
   8007121.25349   6237474.33445  22379766.936    22379765.707    22379786.578
       210.000         153.000
 -12933868.64649 -10062288.87147  21236653.535    21236653.231    21236668.472
       235.000         193.000
 -16727688.31549 -13019542.52647  19100960.923    19100959.951    19100973.012
       237.000         207.000
   1321063.43549   1033825.63747  20002578.298    20002577.123    20002591.508
       236.000         197.000
  -5054020.63549  -3922178.71045  23170630.548    23170632.472    23170661.205
       205.000         136.000
  -7327361.61549  -5699252.97646  22413251.098    22413250.352    22413267.641
       222.000         169.000
 01 12 19 21 36 59.9950000  0  8G28G 2G27G26G 7G 8G 4G11
  -4156423.90649  -3231433.42647  19725786.381    19725785.456    19725796.961
       243.000         209.000
   2013020.48049   1568389.61747  21511137.207    21511135.933    21511152.182
       231.000         188.000
   8078272.99149   6292916.99145  22393306.732    22393305.538    22393326.514
       208.000         152.000
 -12953998.48049 -10077974.44047  21232822.914    21232822.602    21232837.898
       234.000         192.000
 -16779267.30049 -13059733.91647  19091145.747    19091144.766    19091157.798
       237.000         207.000
   1366501.85149   1069232.09247  20011225.009    20011223.827    20011238.229
       236.000         196.000
  -5188976.04249  -4027338.07945  23144948.664    23144950.565    23144979.263
       206.000         138.000
  -7321654.13349  -5694805.65546  22414337.250    22414336.466    22414353.799
       222.000         169.000
 01 12 19 21 37 29.9950000  0  8G28G 2G27G26G 7G 8G 4G11
  -4160447.74949  -3234568.92347  19725020.721    19725019.769    19725031.265
       241.000         209.000
   2033197.90449   1584112.19647  21514976.910    21514975.645    21514991.904
       232.000         188.000
   8149649.21249   6348534.57045  22406889.332    22406888.141    22406909.196
       209.000         151.000
 -12973577.83949 -10093231.07247  21229097.043    21229096.762    21229112.037
       234.000         193.000
 -16830400.33949 -13099577.81447  19081415.448    19081414.445    19081427.465
       237.000         207.000
   1412322.93249   1104936.73447  20019944.550    20019943.351    20019957.751
       236.000         196.000
  -5323999.13349  -4132550.21845  23119254.152    23119255.910    23119284.452
       209.000         139.000
  -7315446.93149  -5689968.93846  22415518.484    22415517.703    22415535.050
       223.000         170.000
 01 12 19 21 37 59.9950000  0  8G28G 2G27G26G 7G 8G 4G11
  -4164293.74049  -3237565.83047  19724288.865    19724287.912    19724299.398
       242.000         208.000
   2053486.16649   1599921.14147  21518837.686    21518836.431    21518852.739
       231.000         188.000
   8221246.80349   6404324.64545  22420514.069    22420512.874    22420533.968
       208.000         152.000
 -12992608.88149 -10108060.43747  21225475.561    21225475.258    21225490.531
       233.000         192.000
 -16881089.11649 -13139075.53247  19071769.740    19071768.686    19071781.660
       237.000         208.000
   1458524.26049   1140937.66747  20028736.479    20028735.250    20028749.644
       236.000         196.000
  -5459088.56049  -4237814.04545  23093547.057    23093548.684    23093577.046
       212.000         141.000
  -7308742.07149  -5684744.43746  22416794.411    22416793.638    22416811.020
       221.000         169.000
 01 12 19 21 38 29.9950000  0  8G28G 2G27G26G 7G 8G 4G11
  -4167969.60649  -3240430.17147  19723589.391    19723588.445    19723599.932
       242.000         209.000
   2073877.76749   1615810.60647  21522718.184    21522716.903    21522733.219
       231.000         188.000
   8293056.38049   6460279.88845  22434179.189    22434178.034    22434199.080
       210.000         150.000
 -13011100.06049 -10122469.13747  21221956.805    21221956.465    21221971.770
       235.000         192.000
 -16931341.59349 -13178233.27647  19062207.001    19062205.953    19062218.895
       237.000         207.000
   1505096.94449   1177227.97747  20037599.076    20037597.825    20037612.227
       236.000         196.000
  -5594248.89749  -4343133.13645  23067826.525    23067828.027    23067856.216
       212.000         143.000
  -7301548.09749  -5679138.77746  22418163.323    22418162.603    22418180.046
       221.000         168.000
 01 12 19 21 38 59.9950000  0  8G28G 2G27G26G 7G 8G 4G11
  -4171469.65149  -3243157.50547  19722923.345    19722922.435    19722933.916
       242.000         208.000
   2094378.87749   1631785.41446  21526619.564    21526618.249    21526634.532
       232.000         187.000
   8365082.06149   6516403.54045  22447885.466    22447884.265    22447905.265
       211.000         150.000
 -13029046.67049 -10136453.49647  21218541.681    21218541.332    21218556.608
       234.000         192.000
 -16981152.17549 -13217046.68547  19052728.348    19052727.296    19052740.214
       236.000         207.000
   1552045.66549   1213811.30347  20046533.204    20046531.943    20046546.376
       236.000         196.000
  -5729471.80849  -4448500.99445  23042094.020    23042095.500    23042123.492
       211.000         142.000
  -7293860.13949  -5673148.18946  22419626.260    22419625.570    22419643.088
       221.000         169.000
 01 12 19 21 39 29.9950000  0  8G28G 2G27G26G 7G 8G 4G11
  -4174789.27049  -3245744.24847  19722291.697    19722290.759    19722302.233
       242.000         208.000
   2114994.41149   1647849.37147  21530542.654    21530541.339    21530557.634
       231.000         188.000
   8437326.75249   6572697.83345  22461633.460    22461632.159    22461653.143
       212.000         149.000
 -13046444.88149 -10150010.52147  21215230.867    21215230.546    21215245.839
       234.000         191.000
 -17030516.74649 -13255512.55947  19043334.555    19043333.515    19043346.396
       237.000         206.000
   1599373.88649   1250690.33647  20055539.560    20055538.291    20055552.740
       236.000         196.000
  -5864749.57449  -4553911.62645  23016351.055    23016352.537    23016380.246
       211.000         144.000
  -7285674.63449  -5666769.89746  22421184.014    22421183.245    22421200.818
       222.000         169.000
 01 12 19 21 39 59.9950000  0  8G28G 2G27G26G 7G 8G 4G11
  -4177924.93949  -3248187.65147  19721695.002    19721694.083    19721705.563
       242.000         208.000
   2135728.14649   1664005.44546  21534488.215    21534486.919    21534503.238
       232.000         187.000
   8509792.04449   6629164.03145  22475423.454    22475422.083    22475442.999
       210.000         150.000
 -13063292.38649 -10163138.43047  21212024.867    21212024.563    21212039.824
       233.000         191.000
 -17079432.33449 -13293628.57347  19034026.226    19034025.167    19034038.019
       236.000         206.000
   1647083.78549   1287866.77547  20064618.558    20064617.266    20064631.756
       235.000         196.000
  -6000076.05449  -4659360.18545  22990598.801    22990600.237    22990627.812
       206.000         144.000
  -7276988.97449  -5660001.87346  22422836.803    22422836.072    22422853.723
       218.000         170.000
 01 12 19 21 40 29.9950000  0  8G28G 2G27G26G 7G 8G 4G11
  -4180892.56849  -3250500.11247  19721130.317    19721129.389    19721140.868
       242.000         208.000
   2156564.76649   1680241.68247  21538453.401    21538452.077    21538468.425
       231.000         188.000
   8582460.62649   6685788.61345  22489252.070    22489250.640    22489271.655
       210.000         149.000
 -13079605.64949 -10175850.04947  21208920.503    21208920.189    21208935.480
       233.000         190.000
 -17127914.76849 -13331407.06547  19024800.274    19024799.235    19024812.063
       236.000         205.000
   1695158.78249   1325327.70447  20073767.038    20073765.727    20073780.233
       236.000         196.000
  -6135463.95549  -4764856.59645  22964834.730    22964836.221    22964863.701
       209.000         143.000
  -7267819.61449  -5652856.93346  22424581.676    22424580.966    22424598.638
       221.000         169.000
 01 12 19 21 40 59.9950000  0  8G28G 2G27G26G 7G 8G 4G11
  -4183683.18549  -3252674.64447  19720599.309    19720598.380    19720609.835
       242.000         208.000
   2177513.52849   1696565.30046  21542439.858    21542438.547    21542454.944
       231.000         187.000
   8655339.67849   6742577.22445  22503120.805    22503119.289    22503140.321
       211.000         150.000
 -13095376.58249 -10188139.08147  21205919.346    21205919.065    21205934.328
       233.000         191.000
 -17175955.55149 -13368841.41347  19015658.342    19015657.332    19015670.154
       235.000         206.000
   1743606.43349   1363079.00647  20082986.389    20082985.084    20082999.650
       234.000         196.000
  -6270901.39749  -4870391.60845  22939061.278    22939062.737    22939090.091
       213.000         145.000
  -7258158.43049  -5645328.76746  22426420.209    22426419.461    22426437.157
       221.000         170.000
 01 12 19 21 41 29.9950000  0  8G28G 2G27G26G 7G 8G 4G11
  -4186296.64749  -3254711.13347  19720101.988    19720101.065    19720112.524
       242.000         208.000
   2198575.05749   1712976.79346  21546447.792    21546446.495    21546462.964
       231.000         187.000
   8728427.64749   6799528.62245  22517029.180    22517027.681    22517048.732
       209.000         150.000
 -13110606.07749 -10200006.20847  21203021.326    21203020.965    21203036.242
       233.000         191.000
 -17223554.99449 -13405931.85647  19006600.458    19006599.430    19006612.239
       236.000         206.000
   1792425.83549   1401119.98447  20092276.450    20092275.174    20092289.779
       234.000         196.000
  -6406385.24549  -4975962.80445  22913279.057    22913280.474    22913307.608
       212.000         146.000
  -7248006.37249  -5637418.10546  22428352.127    22428351.387    22428369.101
       219.000         170.000
 01 12 19 21 41 59.9950000  0  8G28G 2G27G26G 7G 8G 4G11
  -4188735.15549  -3256611.29347  19719637.938    19719637.046    19719648.521
       242.000         208.000
   2219747.37249   1729474.61846  21550476.785    21550475.513    21550492.019
       230.000         187.000
   8801720.59749   6856639.75545  22530976.591    22530975.106    22530996.182
       210.000         149.000
 -13125297.54849 -10211454.09847  21200225.571    21200225.246    21200240.552
       232.000         191.000
 -17270715.65149 -13442680.38847  18997626.003    18997625.003    18997637.828
       235.000         205.000
   1841613.24649   1439447.71547  20101636.581    20101635.303    20101649.940
       234.000         195.000
  -6541914.92749  -5081569.72145  22887488.138    22887489.567    22887516.417
       211.000         146.000
  -7237366.74449  -5629127.52846  22430376.728    22430376.030    22430393.798
       219.000         168.000
 01 12 19 21 42 29.9950000  0  8G28G 2G27G26G 7G 8G 4G11
  -4190999.90549  -3258376.05047  19719206.957    19719206.091    19719217.549
       242.000         207.000
   2241029.59949   1746058.08946  21554526.729    21554525.476    21554541.998
       231.000         187.000
   8875215.42449   6913908.19645  22544962.491    22544961.001    22544982.109
       210.000         151.000
 -13139453.34649 -10222484.58347  21197531.800    21197531.472    21197546.754
       233.000         191.000
 -17317439.21449 -13479088.32047  18988734.781    18988733.761    18988746.594
       235.000         206.000
   1891166.29749   1478060.36347  20111066.284    20111065.008    20111079.686
       234.000         195.000
  -6677489.00649  -5187211.21445  22861688.733    22861690.203    22861716.810
       212.000         145.000
  -7226241.66649  -5620458.68246  22432493.716    22432493.079    22432510.850
       220.000         168.000
 01 12 19 21 42 59.9950000  0  8G28G 2G27G26G 7G 8G 4G11
  -4193094.35149  -3260008.09947  19718808.386    19718807.539    19718818.999
       242.000         208.000
   2262418.76749   1762724.88646  21558597.027    21558595.768    21558612.296
       231.000         186.000
   8948906.86649   6971329.83845  22558985.847    22558984.240    22559005.406
       210.000         151.000
 -13153077.78249 -10233101.02147  21194939.092    21194938.806    21194954.085
       233.000         191.000
 -17363729.54149 -13515158.66847  18979926.036    18979925.003    18979937.816
       236.000         206.000
   1941080.52949   1516954.44247  20120564.658    20120563.434    20120578.138
       233.000         195.000
  -6813107.77449  -5292887.52745  22835880.942    22835882.365    22835908.782
       215.000         148.000
  -7214635.61349  -5611415.07446  22434702.226    22434701.618    22434719.487
       219.000         167.000
 01 12 19 21 43 29.9950000  0  8G28G 2G27G26G 7G 8G 4G11
  -4195016.35649  -3261505.78147  19718442.655    19718441.788    19718453.274
       242.000         208.000
   2283917.41149   1779476.98646  21562688.132    21562686.886    21562703.436
       231.000         187.000
   9022795.37249   7028905.04245  22573046.604    22573044.966    22573066.264
       211.000         152.000
 -13166169.77149 -10243302.57747  21192447.799    21192447.468    21192462.730
       234.000         191.000
 -17409584.88549 -13550890.06247  18971200.045    18971199.004    18971211.800
       235.000         206.000
   1991356.79349   1556130.62347  20130131.943    20130130.741    20130145.494
       233.000         195.000
  -6948766.10749  -5398594.69245  22810065.691    22810067.009    22810093.221
       212.000         151.000
  -7202547.43849  -5601995.80346  22437002.508    22437001.909    22437019.793
       218.000         167.000
 01 12 19 21 43 59.9950000  0  8G28G 2G27G26G 7G 8G 4G11
  -4196761.29549  -3262865.48947  19718110.650    19718109.757    19718121.251
       242.000         208.000
   2305530.33549   1796318.12646  21566800.952    21566799.740    21566816.338
       230.000         186.000
   9096883.94549   7086636.14345  22587145.252    22587143.703    22587165.208
       208.000         149.000
 -13178725.97449 -10253086.63247  21190058.396    21190058.076    21190073.348
       234.000         192.000
 -17455001.15649 -13586279.31747  18962557.554    18962556.537    18962569.327
       234.000         205.000
   2041998.36849   1595591.45647  20139768.724    20139767.564    20139782.370
       233.000         194.000
  -7084456.44549  -5504326.79345  22784244.220    22784245.571    22784271.600
       207.000         150.000
  -7189973.65849  -5592198.13646  22439395.222    22439394.621    22439412.562
       218.000         167.000
 01 12 19 21 44 29.9950000  0  8G28G 2G27G26G 7G 8G 4G11
  -4198349.13649  -3264102.78647  19717808.451    19717807.615    19717819.108
       242.000         207.000
   2327237.92349   1813233.04246  21570931.809    21570930.621    21570947.245
       231.000         186.000
   9171150.65949   7144506.03245  22601277.849    22601276.346    22601297.995
       208.000         150.000
 -13190767.35349 -10262469.52747  21187766.998    21187766.682    21187781.950
       235.000         193.000
 -17499998.93749 -13621342.47747  18953994.707    18953993.710    18954006.495
       235.000         205.000
   2092984.03249   1635320.41447  20149471.036    20149469.872    20149484.743
       233.000         194.000
  -7220195.94049  -5610097.21745  22758413.250    22758414.748    22758440.644
       210.000         147.000
  -7176935.19649  -5582038.39046  22441876.415    22441875.809    22441893.701
       220.000         167.000
 01 12 19 21 44 59.9950000  0  8G28G 2G27G26G 7G 8G 4G11
  -4199757.13549  -3265199.95047  19717540.493    19717539.673    19717551.199
       242.000         207.000
   2349063.46149   1830239.86846  21575085.115    21575083.955    21575100.619
       231.000         186.000
   9245616.61949   7202531.19845  22615448.444    22615446.906    22615468.683
       207.000         148.000
 -13202272.37949 -10271434.48847  21185577.678    21185577.363    21185592.613
       235.000         194.000
 -17544555.79049 -13656062.05347  18945515.742    18945514.772    18945527.587
       234.000         205.000
   2144335.28249   1675334.23647  20159242.907    20159241.761    20159256.686
       233.000         194.000
  -7355958.76849  -5715885.82245  22732577.864    22732579.413    22732605.176
       209.000         147.000
  -7163410.19049  -5571499.53546  22444450.175    22444449.511    22444467.465
       219.000         167.000
 01 12 19 21 45 29.9950000  0  8G28G 2G27G26G 7G 8G 4G11
  -4200986.98049  -3266158.28747  19717306.401    19717305.622    19717317.187
       242.000         207.000
   2371005.58849   1847337.53046  21579260.718    21579259.483    21579276.162
       230.000         185.000
   9320278.24449   7260708.80945  22629656.151    22629654.709    22629676.720
       207.000         148.000
 -13213243.86549 -10279983.70947  21183489.854    21183489.566    21183504.796
       235.000         193.000
 -17588673.84449 -13690439.71147  18937120.269    18937119.321    18937132.181
       234.000         205.000
   2196049.31049   1715630.74947  20169083.862    20169082.690    20169097.654
       233.000         194.000
  -7491743.56449  -5821691.53545  22706738.369    22706739.890    22706765.617
       209.000         147.000
  -7149401.65549  -5560583.90346  22447115.922    22447115.259    22447133.274
       219.000         166.000
 01 12 19 21 45 59.9950000  0  8G28G 2G27G26G 7G 8G 4G11
  -4202041.93549  -3266980.35047  19717105.652    19717104.873    19717116.462
       242.000         208.000
   2393061.20749   1864523.63046  21583457.845    21583456.603    21583473.261
       231.000         185.000
   9395130.37849   7319034.87345  22643900.176    22643898.716    22643920.783
       206.000         145.000
 -13223686.36849 -10288120.73147  21181502.666    21181502.423    21181517.655
       234.000         192.000
 -17632356.99649 -13724478.48347  18928807.549    18928806.623    18928819.521
       234.000         205.000
   2248121.21749   1756206.13147  20178992.898    20178991.722    20179006.716
       233.000         193.000
  -7627550.94449  -5927514.85445  22680894.527    22680896.102    22680921.788
       206.000         146.000
  -7134913.80849  -5549294.81746  22449872.905    22449872.252    22449890.254
       217.000         166.000
 01 12 19 21 46 29.9950000  0  8G28G 2G27G26G 7G 8G 4G11
  -4202928.20949  -3267670.98347  19716937.068    19716936.228    19716947.851
       242.000         208.000
   2415224.36849   1881793.51646  21587675.460    21587674.196    21587690.845
       228.000         185.000
   9470164.86049   7377503.03145  22658178.842    22658177.466    22658199.665
       204.000         146.000
 -13233607.43349 -10295851.44247  21179614.726    21179614.484    21179629.710
       233.000         192.000
 -17675612.21949 -13758183.80947  18920576.319    18920575.384    18920588.286
       233.000         205.000
   2300543.51849   1797054.54547  20188968.619    20188967.431    20188982.472
       232.000         193.000
  -7763383.97549  -6033358.20545  22655046.039    22655047.482    22655073.038
       213.000         149.000
  -7119954.48649  -5537638.34446  22452719.728    22452718.939    22452736.970
       218.000         167.000
 01 12 19 21 46 59.9950000  0  8G28G 2G27G26G 7G 8G 4G11
  -4203629.53149  -3268217.49047  19716803.576    19716802.762    19716814.452
       241.000         208.000
   2437512.13949   1899160.50346  21591916.728    21591915.482    21591932.152
       228.000         184.000
   9545396.33549   7436124.68945  22672495.016    22672493.713    22672515.994
       204.000         144.000
 -13242991.93949 -10303164.05847  21177828.906    21177828.675    21177843.887
       235.000         192.000
 -17718423.65349 -13791543.32747  18912429.483    18912428.580    18912441.499
       233.000         204.000
   2353331.36049   1838187.80047  20199013.862    20199012.700    20199027.770
       232.000         193.000
  -7899223.55549  -6139206.67445  22629196.229    22629197.623    22629222.954
       212.000         153.000
  -7104508.26449  -5525602.46846  22455659.149    22455658.333    22455676.360
       220.000         166.000
 01 12 19 21 47 29.9950000  0  8G28G 2G27G26G 7G 8G 4G11
  -4204143.34449  -3268617.89147  19716705.807    19716704.985    19716716.713
       242.000         207.000
   2459927.08349   1916626.58346  21596182.209    21596180.956    21596197.670
       228.000         184.000
   9620825.43449   7494900.34645  22686848.848    22686847.543    22686869.893
       207.000         146.000
 -13251838.72149 -10310057.66147  21176145.489    21176145.183    21176160.402
       234.000         191.000
 -17760789.40349 -13824555.55847  18904367.544    18904366.604    18904379.526
       233.000         205.000
   2406485.82549   1879606.73147  20209128.946    20209127.742    20209142.844
       232.000         192.000
  -8035064.10049  -6245055.91545  22603346.167    22603347.571    22603372.739
       213.000         152.000
  -7088573.59449  -5513185.97746  22458691.500    22458690.674    22458708.702
       219.000         167.000
 01 12 19 21 47 59.9950000  0  8G28G 2G27G26G 7G 8G 4G11
  -4204482.41749  -3268882.12947  19716641.321    19716640.482    19716652.210
       242.000         208.000
   2482456.77049   1934182.07446  21600469.532    21600468.288    21600485.009
       228.000         183.000
   9696437.52949   7553818.59145  22701237.677    22701236.239    22701258.629
       204.000         145.000
 -13260161.83649 -10316543.20947  21174561.648    21174561.343    21174576.572
       234.000         191.000
 -17802722.85849 -13857230.94347  18896387.836    18896386.897    18896399.806
       233.000         205.000
   2459992.51549   1921300.12847  20219311.021    20219309.802    20219324.964
       232.000         193.000
  -8170915.44749  -6350913.61045  22577494.181    22577495.492    22577520.427
       214.000         152.000
  -7072164.81849  -5500400.04446  22461814.183    22461813.247    22461831.253
       218.000         166.000
 01 12 19 21 48 29.9950000  0  8G28G 2G27G26G 7G 8G 4G11
  -4204639.81049  -3269004.80247  19716611.461    19716610.563    19716622.293
       242.000         208.000
   2505108.49249   1951832.65246  21604780.113    21604778.843    21604795.579
       229.000         182.000
   9772237.54249   7612883.26845  22715662.174    22715660.701    22715683.062
       207.000         144.000
 -13267955.66549 -10322616.33747  21173078.585    21173078.232    21173093.443
       234.000         191.000
 -17844217.67649 -13889564.53547  18888491.627    18888490.664    18888503.561
       233.000         205.000
   2513857.19049   1963272.46847  20229561.233    20229560.011    20229575.222
       232.000         193.000
  -8306767.70749  -6456772.02645  22551641.978    22551643.316    22551668.004
       212.000         151.000
  -7055276.22249  -5487240.23946  22465028.042    22465027.123    22465045.121
       218.000         167.000
 01 12 19 21 48 59.9950000  0  8G28G 2G27G26G 7G 8G 4G11
  -4204624.97049  -3268993.26847  19716614.265    19716613.395    19716625.140
       242.000         208.000
   2527873.37049   1969571.39046  21609112.234    21609110.933    21609127.667
       228.000         183.000
   9848214.36349   7672085.70745  22730120.416    22730118.895    22730141.185
       207.000         144.000
 -13275231.10549 -10328285.52447  21171694.111    21171693.768    21171708.966
       233.000         190.000
 -17885283.95649 -13921564.20747  18880676.983    18880675.995    18880688.869
       234.000         205.000
   2568068.89549   2005515.22447  20239877.493    20239876.262    20239891.510
       233.000         193.000
  -8442627.25849  -6562636.11145  22525788.309    22525789.657    22525814.206
       214.000         149.000
  -7037918.36149  -5473714.77246  22468331.247    22468330.302    22468348.303
       220.000         166.000
 01 12 19 21 49 29.9950000  0  8G28G 2G27G26G 7G 8G 4G11
  -4204433.29949  -3268843.94847  19716650.793    19716649.911    19716661.640
       243.000         208.000
   2550756.20049   1987402.05646  21613466.780    21613465.492    21613482.224
       228.000         183.000
   9924370.81049   7731428.10445  22744612.733    22744611.185    22744633.563
       206.000         143.000
 -13281984.87049 -10333548.21247  21170408.934    21170408.547    21170423.784
       233.000         190.000
 -17925917.66649 -13953226.81747  18872944.681    18872943.645    18872956.497
       234.000         205.000
   2622630.97249   2048030.99647  20250260.496    20250259.207    20250274.478
       231.000         193.000
  -8578486.46249  -6668499.97945  22499934.833    22499936.121    22499960.449
       211.000         148.000
  -7020087.97049  -5459821.08546  22471724.413    22471723.403    22471741.398
       218.000         166.000
 01 12 19 21 49 59.9950000  0  8G28G 2G27G26G 7G 8G 4G11
  -4204064.43149  -3268556.54847  19716721.049    19716720.137    19716731.864
       243.000         208.000
   2573757.37949   2005324.93546  21617843.905    21617842.570    21617859.292
       227.000         182.000
  10000705.04349   7790909.04945  22759138.977    22759137.382    22759159.694
       208.000         142.000
 -13288218.22549 -10338405.38047  21169222.754    21169222.376    21169237.604
       233.000         190.000
 -17966119.41149 -13984552.83347  18865294.496    18865293.474    18865306.331
       234.000         205.000
   2677542.14049   2090818.79047  20260709.854    20260708.559    20260723.870
       232.000         192.000
  -8714342.17049  -6774361.11445  22474081.952    22474083.197    22474107.404
       212.000         148.000
  -7001786.00549  -5445559.91746  22475207.322    22475206.284    22475224.259
       220.000         168.000
 01 12 19 21 50 29.9950000  0  8G28G 2G27G26G 7G 8G 4G11
  -4203521.12949  -3268133.22347  19716824.492    19716823.560    19716835.303
       243.000         209.000
   2596874.93349   2023338.49246  21622243.098    21622241.791    21622258.501
       227.000         181.000
  10077212.78249   7850525.19645  22773698.146    22773696.601    22773718.909
       205.000         142.000
 -13293935.11549 -10342860.11447  21168134.863    21168134.473    21168149.711
       233.000         190.000
 -18005892.40049 -14015544.75847  18857725.908    18857724.903    18857737.766
       233.000         205.000
   2732798.37049   2133875.46247  20271224.878    20271223.568    20271238.907
       232.000         192.000
  -8850194.06849  -6880219.30645  22448229.854    22448231.000    22448255.111
       212.000         151.000
  -6983016.36949  -5430934.32446  22478779.128    22478778.108    22478796.141
       219.000         167.000
 01 12 19 21 50 59.9950000  0  8G28G 2G27G26G 7G 8G 4G11
  -4202791.29949  -3267564.55947  19716963.430    19716962.493    19716974.220
       244.000         208.000
   2620121.19449   2041452.34446  21626666.774    21626665.503    21626682.204
       227.000         181.000
  10153903.93649   7910284.25345  22788292.336    22788290.715    22788312.983
       208.000         143.000
 -13299125.06549 -10346904.25047  21167147.282    21167146.860    21167162.081
       233.000         191.000
 -18045225.30449 -14046193.75947  18850241.114    18850240.082    18850252.940
       233.000         205.000
   2788410.19949   2177209.23247  20281807.546    20281806.248    20281821.607
       231.000         191.000
  -8986027.15749  -6986062.85245  22422381.233    22422382.364    22422406.364
       211.000         149.000
  -6963768.59349  -5415936.16546  22482441.947    22482440.926    22482458.991
       220.000         166.000
 01 12 19 21 51 29.9950000  0  8G28G 2G27G26G 7G 8G 4G11
  -4201889.98249  -3266862.25647  19717134.968    19717134.056    19717145.761
       243.000         209.000
   2643481.14349   2059654.77146  21631112.120    21631110.834    21631127.531
       226.000         180.000
  10230761.43949   7970172.91145  22802918.037    22802916.454    22802938.748
       207.000         141.000
 -13303804.71449 -10350550.75047  21166256.783    21166256.363    21166271.598
       233.000         191.000
 -18084134.14249 -14076512.32547  18842836.999    18842835.951    18842848.812
       233.000         205.000
   2844360.99049   2220807.13247  20292454.688    20292453.409    20292468.814
       231.000         191.000
  -9121853.61349  -7091901.22645  22396534.045    22396535.077    22396558.903
       215.000         153.000
  -6944059.15549  -5400578.27246  22486192.615    22486191.581    22486209.686
       218.000         166.000
 01 12 19 21 51 59.9950000  0  8G28G 2G27G26G 7G 8G 4G11
  -4200814.70349  -3266024.40147  19717339.642    19717338.711    19717350.418
       243.000         208.000
   2666957.54649   2077947.94046  21635579.592    21635578.336    21635595.042
       227.000         180.000
  10307785.92949   8030191.67745  22817575.462    22817573.996    22817596.246
       206.000         140.000
 -13307973.01449 -10353798.79347  21165463.657    21165463.199    21165478.417
       235.000         191.000
 -18122617.00349 -14106498.95947  18835513.894    18835512.878    18835525.752
       233.000         205.000
   2900651.75249   2264669.93747  20303166.473    20303165.242    20303180.726
       230.000         190.000
  -9257667.91949  -7197730.13145  22370689.037    22370690.140    22370713.846
       214.000         154.000
  -6923886.62749  -5384859.50346  22490031.278    22490030.336    22490048.522
       219.000         165.000
 01 12 19 21 52 29.9950000  0  8G28G 2G27G26G 7G 8G 4G11
  -4199561.32749  -3265047.76647  19717578.141    19717577.241    19717588.943
       243.000         208.000
   2690555.22249   2096335.61346  21640070.216    21640068.920    21640085.626
       227.000         180.000
  10384979.66049   8090342.33145  22832265.048    22832263.698    22832285.969
       205.000         139.000
 -13311627.48149 -10356646.44947  21164768.255    21164767.801    21164783.004
       235.000         192.000
 -18160670.47849 -14136151.00447  18828272.560    18828271.536    18828284.395
       233.000         205.000
   2957285.15649   2308799.74047  20313943.572    20313942.308    20313957.836
       230.000         190.000
  -9393462.60449  -7303543.77345  22344847.917    22344848.947    22344872.453
       214.000         154.000
  -6903248.62849  -5368778.00646  22493958.690    22493957.691    22493975.913
       219.000         165.000
 01 12 19 21 52 59.9950000  0  8G28G 2G27G26G 7G 8G 4G11
  -4198128.23449  -3263931.08447  19717850.896    19717849.974    19717861.660
       242.000         208.000
   2714275.94449   2114819.16046  21644584.319    21644582.940    21644599.634
       226.000         180.000
  10462342.42849   8150624.67045  22846986.730    22846985.485    22847007.852
       204.000         138.000
 -13314767.88549 -10359093.53847  21164170.720    21164170.251    21164185.431
       235.000         192.000
 -18198293.71849 -14165467.79547  18821113.098    18821112.060    18821124.887
       234.000         205.000
   3014261.47549   2353196.75147  20324785.929    20324784.642    20324800.203
       231.000         190.000
  -9529233.37649  -7409338.75345  22319011.118    22319012.254    22319035.628
       210.000         151.000
  -6882144.88049  -5352333.60546  22497974.638    22497973.696    22497991.948
       218.000         164.000
 01 12 19 21 53 29.9950000  0  8G28G 2G27G26G 7G 8G 4G11
  -4196513.91449  -3262673.18847  19718158.111    19718157.206    19718168.890
       243.000         208.000
   2738121.33549   2133399.85646  21649122.026    21649120.663    21649137.372
       226.000         179.000
  10539873.50549   8211038.13845  22861740.519    22861739.369    22861761.836
       204.000         138.000
 -13317394.61949 -10361140.36747  21163670.884    21163670.420    21163685.570
       234.000         192.000
 -18235486.22649 -14194448.95247  18814035.658    18814034.571    18814047.347
       233.000         205.000
   3071580.30449   2397860.65047  20335693.444    20335692.153    20335707.739
       230.000         190.000
  -9664975.77449  -7515111.61945  22293179.863    22293180.947    22293204.191
       211.000         152.000
  -6860575.46749  -5335526.35146  22502079.406    22502078.339    22502096.558
       219.000         165.000
 01 12 19 21 53 59.9950000  0  8G28G 2G27G26G 7G 8G 4G11
  -4194719.04649  -3261274.59347  19718499.715    19718498.790    19718510.469
       243.000         208.000
   2762091.20049   2152077.54246  21653683.587    21653682.118    21653698.790
       228.000         180.000
  10617570.48449   8271580.89245  22876526.003    22876524.826    22876547.313
       203.000         137.000
 -13319509.73749 -10362788.53647  21163268.461    21163267.937    21163283.094
       234.000         192.000
 -18272249.32949 -14223095.49547  18807039.851    18807038.790    18807051.533
       234.000         205.000
   3129239.56249   2442789.81047  20346665.753    20346664.447    20346680.043
       231.000         189.000
  -9800687.35249  -7620860.44945  22267354.355    22267355.528    22267378.665
       212.000         153.000
  -6838542.40149  -5318357.81746  22506272.219    22506271.160    22506289.396
       218.000         163.000
 01 12 19 21 54 29.9940000  0  8G28G 2G27G26G 7G 8G 4G11
  -4192753.01449  -3259742.62647  19718873.886    19718872.932    19718884.620
       243.000         208.000
   2786175.53149   2170844.41346  21658266.748    21658265.322    21658281.985
       225.000         180.000
  10695419.28349   8332241.94245  22891340.407    22891339.095    22891361.801
       200.000         136.000
 -13321124.34849 -10364046.69947  21162961.187    21162960.721    21162975.852
       233.000         192.000
 -18308592.14749 -14251414.54747  18800124.019    18800122.957    18800135.699
       233.000         204.000
   3187226.15949   2487974.05347  20357700.349    20357699.030    20357714.664
       231.000         189.000
  -9936370.14949  -7726586.82845  22241534.437    22241535.576    22241558.690
       212.000         154.000
  -6816057.30049  -5300837.05746  22510551.006    22510550.031    22510568.243
       219.000         163.000
 01 12 19 21 54 59.9940000  0  8G28G 2G27G26G 7G 8G 4G11
  -4190608.84149  -3258071.83447  19719281.948    19719280.976    19719292.654
       243.000         207.000
   2810383.12349   2189707.34246  21662873.346    21662871.960    21662888.661
       226.000         180.000
  10773430.06649   8393029.20145  22906185.648    22906184.336    22906207.151
       202.000         135.000
 -13322233.28649 -10364910.84047  21162750.304    21162749.723    21162764.859
       235.000         192.000
 -18344510.99149 -14279403.21847  18793288.839    18793287.789    18793300.557
       232.000         204.000
   3245549.62649   2533420.78747  20368799.069    20368797.726    20368813.366
       231.000         189.000
 -10072023.05849  -7832289.88345  22215720.180    22215721.267    22215744.369
       212.000         153.000
  -6793113.22749  -5282958.66545  22514917.214    22514916.236    22514934.452
       218.000         161.000
 01 12 19 21 55 29.9940000  0  8G28G 2G27G26G 7G 8G 4G11
  -4188284.46949  -3256260.63247  19719724.255    19719723.307    19719734.991
       243.000         208.000
   2834715.45449   2208667.45846  21667503.683    21667502.342    21667519.078
       225.000         179.000
  10851600.09549   8453940.55245  22921061.141    22921059.786    22921082.739
       201.000         134.000
 -13322836.15449 -10365380.63047  21162635.478    21162634.998    21162650.154
       234.000         192.000
 -18380003.57249 -14307059.74347  18786534.808    18786533.770    18786546.529
       233.000         204.000
   3304208.32049   2579128.73247  20379961.490    20379960.196    20379975.856
       229.000         189.000
 -10207636.55149  -7937962.23745  22189913.503    22189914.477    22189937.519
       211.000         153.000
  -6769710.59449  -5264722.95745  22519370.687    22519369.692    22519387.895
       217.000         162.000
 01 12 19 21 55 59.9940000  0  8G28G 2G27G26G 7G 8G 4G11
  -4185779.82049  -3254308.95147  19720200.877    19720199.957    19720211.626
       243.000         208.000
   2859172.99849   2227725.13646  21672157.889    21672156.527    21672173.319
       225.000         179.000
  10929927.51749   8514974.53645  22935966.618    22935965.099    22935988.126
       203.000         135.000
 -13322934.63449 -10365457.40047  21162616.886    21162616.303    21162631.437
       232.000         192.000
 -18415070.52149 -14334384.60947  18779861.795    18779860.744    18779873.480
       232.000         204.000
   3363200.74249   2625096.73047  20391187.470    20391186.183    20391201.843
       230.000         188.000
 -10343207.58249  -8043601.46145  22164114.818    22164115.751    22164138.775
       213.000         155.000
  -6745850.74949  -5246130.99045  22523911.189    22523910.175    22523928.362
       218.000         162.000
 01 12 19 21 56 29.9940000  0  9G28G 2G27G26G 9G 7G 8G 4G11
  -4183107.73149  -3252226.78847  19720709.348    19720708.445    19720720.126
       243.000         207.000
   2883743.39649   2246870.75646  21676833.622    21676832.220    21676849.046
       225.000         179.000
  11008397.57449   8576119.65645  22950899.222    22950897.722    22950920.843
       202.000         137.000
 -13322543.25549 -10365152.45847  21162691.219    21162690.768    21162705.950
       234.000         192.000
   -424248.67559   -296124.98855  22736818.207    22736816.220    22736837.540
       217.000         156.000
 -18449725.65249 -14361388.57347  18773267.146    18773266.084    18773278.779
       233.000         204.000
   3422512.54249   2671313.60347  20402474.217    20402472.935    20402488.612
       230.000         188.000
 -10478745.95349  -8149215.20345  22138322.144    22138323.224    22138346.278
       211.000         154.000
  -6721548.19949  -5227194.04845  22528535.830    22528534.876    22528553.046
       217.000         161.000
 01 12 19 21 56 59.9940000  0  9G28G 2G27G26G 9G 7G 8G 4G11
  -4180255.06349  -3250003.92347  19721252.197    19721251.297    19721262.967
       243.000         207.000
   2908440.12049   2266114.81046  21681533.345    21681531.965    21681548.796
       225.000         179.000
  11087021.41249   8637384.60745  22965861.171    22965859.618    22965882.853
       202.000         137.000
 -13321650.49449 -10364456.83347  21162861.105    21162860.678    21162875.860
       233.000         191.000
   -556886.51949   -399478.87345  22711577.922    22711576.037    22711597.387
       215.000         153.000
 -18483956.64749 -14388062.04647  18766753.186    18766752.129    18766764.821
       233.000         204.000
   3482155.03649   2717788.16047  20413823.889    20413822.611    20413838.307
       231.000         189.000
 -10614235.37549  -8254790.78745  22112539.002    22112540.013    22112563.000
       212.000         154.000
  -6696791.01149  -5207902.84745  22533247.053    22533246.118    22533264.219
       219.000         159.000
 01 12 19 21 57 29.9940000  0  9G28G 2G27G26G 9G 7G 8G 4G11
  -4177221.07749  -3247639.77447  19721829.518    19721828.648    19721840.326
       243.000         207.000
   2933264.25249   2285458.14146  21686257.350    21686255.938    21686272.822
       225.000         179.000
  11165797.86849   8698768.48845  22980852.025    22980850.576    22980873.844
       201.000         134.000
 -13320257.39949 -10363371.34147  21163126.238    21163125.792    21163140.960
       232.000         191.000
   -689413.60259   -502746.40955  22686358.650    22686357.111    22686378.694
       216.000         154.000
 -18517763.69349 -14414405.17147  18760319.916    18760318.857    18760331.526
       233.000         205.000
   3542127.57249   2764519.88246  20425236.406    20425235.116    20425250.818
       229.000         187.000
 -10749672.19949  -8360325.38245  22086765.806    22086766.814    22086789.720
       215.000         157.000
  -6671580.30849  -5188258.24345  22538044.582    22538043.620    22538061.766
       218.000         160.000
 01 12 19 21 57 59.9940000  0  9G28G 2G27G26G 9G 7G 8G 4G11
  -4174005.52149  -3245134.14147  19722441.392    19722440.536    19722452.228
       242.000         207.000
   2958216.20149   2304901.07346  21691005.584    21691004.220    21691021.157
       224.000         179.000
  11244725.07449   8760269.78745  22995871.531    22995870.124    22995893.499
       201.000         134.000
 -13318365.73249 -10361897.33947  21163486.232    21163485.785    21163500.954
       235.000         191.000
   -821827.49649   -605925.82245  22661160.825    22661159.614    22661180.895
       216.000         156.000
 -18551147.50949 -14440418.51147  18753967.190    18753966.129    18753978.765
       233.000         204.000
   3602428.60349   2811507.57746  20436711.350    20436710.104    20436725.834
       229.000         187.000
 -10885053.27549  -8465816.53645  22061003.129    22061004.212    22061027.025
       214.000         157.000
  -6645917.59949  -5168261.40145  22542928.055    22542927.111    22542945.301
       217.000         160.000
 01 12 19 21 58 29.9940000  0  9G28G 2G27G26G 9G 7G 8G 4G11
  -4170612.99149  -3242490.60847  19723086.929    19723086.099    19723097.815
       243.000         207.000
   2983291.37949   2324440.01646  21695777.325    21695775.946    21695792.935
       225.000         178.000
  11323796.28949   8821883.35045  23010918.660    23010917.157    23010940.564
       200.000         132.000
 -13315981.99349 -10360039.91747  21163939.871    21163939.438    21163954.591
       234.000         192.000
   -954130.68049   -709018.88845  22635984.076    22635982.981    22636004.243
       215.000         157.000
 -18584113.93749 -14466106.61847  18747693.868    18747692.802    18747705.445
       233.000         205.000
   3663051.60549   2858746.15946  20448247.609    20448246.357    20448262.133
       229.000         186.000
 -11020380.20249  -8571265.49445  22035250.883    22035251.976    22035274.659
       212.000         156.000
  -6619809.19449  -5147917.27445  22547896.302    22547895.471    22547913.676
       218.000         161.000
 01 12 19 21 58 59.9940000  0  9G28G 2G27G26G 9G 7G 8G 4G11
  -4167048.29849  -3239712.92647  19723765.269    19723764.437    19723776.127
       242.000         207.000
   3008484.82149   2344071.11946  21700571.523    21700570.177    21700587.238
       224.000         178.000
  11403004.23249   8883603.47545  23025991.683    23025990.228    23026013.563
       200.000         132.000
 -13313113.10349 -10357804.45347  21164485.800    21164485.370    21164500.552
       233.000         191.000
  -1086326.16849   -812028.09545  22610827.875    22610826.948    22610848.308
       215.000         157.000
 -18616668.99849 -14491474.18247  18741498.856    18741497.767    18741510.389
       233.000         204.000
   3723989.88149   2906230.40846  20459843.882    20459842.607    20459858.410
       229.000         187.000
 -11155655.30649  -8676674.10645  22009508.516    22009509.570    22009532.046
       215.000         158.000
  -6593261.62049  -5127230.91845  22552948.143    22552947.337    22552965.597
       218.000         161.000
 01 12 19 21 59 29.9940000  0  9G28G 2G27G26G 9G 7G 8G 4G11
  -4163315.10049  -3236803.95447  19724475.618    19724474.833    19724486.508
       242.000         206.000
   3033793.80549   2363792.25346  21705387.699    21705386.371    21705403.553
       224.000         178.000
  11482343.76949   8945426.15745  23041089.848    23041088.431    23041111.676
       202.000         134.000
 -13309764.26849 -10355195.00347  21165123.119    21165122.629    21165137.845
       231.000         190.000
  -1218414.86549   -914954.01045  22585691.979    22585691.178    22585712.482
       218.000         161.000
 -18648816.93849 -14516524.51547  18735381.270    18735380.191    18735392.814
       232.000         204.000
   3785238.44649   2953956.44546  20471499.144    20471497.876    20471513.763
       229.000         186.000
 -11290878.64049  -8782042.37345  21983775.891    21983777.036    21983799.337
       215.000         159.000
  -6566279.90049  -5106206.29445  22558082.608    22558081.797    22558100.132
       218.000         160.000
 01 12 19 21 59 59.9940000  0  9G28G 2G27G26G 9G 7G 8G 4G11
  -4159409.16049  -3233760.38347  19725218.870    19725218.092    19725229.775
       242.000         206.000
   3059222.62349   2383606.76346  21710226.640    21710225.378    21710242.649
       222.000         178.000
  11561816.92849   9007352.93945  23056213.443    23056212.051    23056235.381
       199.000         133.000
 -13305933.27849 -10352209.83847  21165852.108    21165851.638    21165866.875
       232.000         190.000
  -1350390.58149  -1017791.88945  22560577.603    22560576.901    22560598.248
       218.000         160.000
 -18680554.64549 -14541255.18447  18729341.713    18729340.667    18729353.305
       232.000         204.000
   3846799.66949   3001926.10146  20483213.922    20483212.676    20483228.627
       228.000         186.000
 -11426043.06249  -8887364.73445  21958054.714    21958055.762    21958077.934
       212.000         160.000
  -6538861.86849  -5084841.70245  22563300.151    22563299.358    22563317.726
       218.000         160.000
 01 12 19 22  0 29.9940000  0  9G28G 2G27G26G 9G 7G 8G 4G11
  -4155309.03849  -3230565.50647  19725999.108    19725998.317    19726009.981
       242.000         206.000
   3084793.02949   2403531.60646  21715092.539    21715091.319    21715108.682
       223.000         178.000
  11641442.98549   9069398.87445  23071366.108    23071364.713    23071388.164
       203.000         134.000
 -13301600.49149 -10348833.68247  21166676.596    21166676.154    21166691.396
       232.000         190.000
  -1482229.60249  -1120523.24745  22535489.270    22535488.659    22535509.996
       218.000         160.000
 -18711861.55849 -14565650.17847  18723384.187    18723383.135    18723395.779
       232.000         204.000
   3908693.44749   3050154.89346  20494992.005    20494990.749    20495006.762
       228.000         186.000
 -11561124.25549  -8992622.25545  21932349.245    21932350.276    21932372.332
       218.000         159.000
  -6510987.75449  -5063121.68745  22568604.457    22568603.677    22568622.118
       217.000         161.000
 01 12 19 22  0 59.9940000  0  9G28G 2G27G26G 9G 7G 8G 4G11
  -4151022.56149  -3227225.42847  19726814.811    19726814.021    19726825.673
       242.000         206.000
   3110497.58749   2423560.97846  21719984.047    21719982.805    21720000.252
       223.000         177.000
  11721212.34949   9131556.46445  23086546.165    23086544.691    23086568.275
       200.000         133.000
 -13296775.63449 -10345074.08847  21167594.796    21167594.305    21167609.577
       233.000         191.000
  -1613937.34049  -1223152.31545  22510425.951    22510425.413    22510446.681
       217.000         162.000
 -18742746.52549 -14589716.38147  18717506.930    18717505.896    18717518.552
       232.000         204.000
   3970910.06849   3098635.24846  20506831.519    20506830.291    20506846.315
       229.000         186.000
 -11696126.69449  -9097818.50045  21906658.722    21906659.782    21906681.619
       214.000         155.000
  -6482666.76949  -5041053.45745  22573993.763    22573993.028    22574011.541
       218.000         160.000
 01 12 19 22  1 29.9940000  0  9G28G 2G27G26G 9G 7G 8G 4G11
  -4146568.55649  -3223754.81547  19727662.399    19727661.580    19727673.249
       242.000         206.000
   3136317.52549   2443680.26646  21724897.496    21724896.269    21724913.758
       223.000         177.000
  11801103.83849   9193809.28045  23101749.335    23101747.734    23101771.475
       200.000         132.000
 -13291479.62949 -10340947.36847  21168602.598    21168602.121    21168617.405
       233.000         190.000
  -1745530.76949  -1325692.30645  22485384.366    22485383.911    22485405.144
       218.000         160.000
 -18773229.44049 -14613469.29647  18711706.197    18711705.172    18711717.822
       232.000         204.000
   4033429.08549   3147351.23246  20518728.601    20518727.354    20518743.410
       229.000         185.000
 -11831066.45349  -9202965.88545  21880980.308    21880981.291    21881002.908
       210.000         159.000
  -6453919.74849  -5018653.27945  22579464.221    22579463.432    22579481.993
       218.000         160.000
 01 12 19 22  1 59.9940000  0  9G28G 2G27G26G 9G 7G 8G 4G11
  -4141931.96049  -3220141.92447  19728544.728    19728543.887    19728555.560
       242.000         206.000
   3162268.10349   2463901.35946  21729835.881    21729834.599    21729852.145
       223.000         177.000
  11881130.51849   9256167.40044  23116978.063    23116976.499    23117000.328
       200.000         131.000
 -13285699.33749 -10336443.27647  21169702.602    21169702.117    21169717.374
       232.000         190.000
  -1876992.74049  -1428129.83845  22460367.785    22460367.381    22460388.584
       217.000         159.000
 -18803296.56749 -14636898.21547  18705984.621    18705983.568    18705996.239
       232.000         204.000
   4096263.56649   3196313.03946  20530685.708    20530684.446    20530700.534
       228.000         185.000
 -11965925.42649  -9308050.29545  21855317.088    21855318.059    21855339.610
       217.000         159.000
  -6424733.33149  -4995910.70345  22585018.243    22585017.481    22585036.093
       216.000         159.000
 01 12 19 22  2 29.9940000  0  9G28G 2G27G26G 9G 7G 8G 4G11
  -4137117.68349  -3216390.58947  19729460.911    19729460.040    19729471.708
       242.000         206.000
   3188344.58949   2484220.55046  21734798.156    21734796.895    21734814.498
       222.000         177.000
  11961285.43049   9318625.46844  23132231.231    23132229.647    23132253.738
       197.000         129.000
 -13279441.82949 -10331567.32547  21170893.436    21170892.890    21170908.162
       233.000         189.000
  -2008326.05149  -1530467.10745  22435375.709    22435375.335    22435396.467
       218.000         159.000
 -18832953.64449 -14660007.62247  18700341.060    18700340.008    18700352.653
       232.000         204.000
   4159406.99349   3245515.57046  20542701.557    20542700.320    20542716.449
       228.000         185.000
 -12100705.54349  -9413073.34045  21829668.706    21829669.796    21829691.240
       215.000         156.000
  -6395114.51449  -4972831.19445  22590654.661    22590653.851    22590672.477
       216.000         160.000
 01 12 19 22  2 59.9940000  0  9G28G 2G27G26G 9G 7G 8G 4G11
  -4132126.00149  -3212501.01847  19730410.805    19730409.934    19730421.622
       242.000         206.000
   3214546.97349   2504637.86146  21739784.345    21739783.131    21739800.807
       224.000         177.000
  12041566.02849   9381181.44744  23147508.161    23147506.755    23147530.908
       196.000         127.000
 -13272709.53849 -10326321.41547  21172174.446    21172174.024    21172189.307
       233.000         189.000
  -2139528.83449  -1632702.67345  22410408.454    22410408.117    22410429.141
       216.000         157.000
 -18862202.25149 -14682798.73247  18694775.257    18694774.206    18694786.816
       232.000         204.000
   4222857.10649   3294957.07946  20554775.775    20554774.566    20554790.708
       227.000         184.000
 -12235403.99549  -9518032.79845  21804036.048    21804037.188    21804058.429
       215.000         158.000
  -6365065.19249  -4949416.22845  22596372.987    22596372.099    22596390.748
       218.000         159.000
 01 12 19 22  3 29.9940000  0  9G28G 2G27G26G 9G 7G 8G 4G11
  -4126960.76949  -3208476.21147  19731393.740    19731392.866    19731404.557
       242.000         206.000
   3240871.78849   2525150.57446  21744793.925    21744792.688    21744810.440
       223.000         178.000
  12121966.38549   9443830.80444  23162808.030    23162806.686    23162830.945
       196.000         124.000
 -13265508.06249 -10320709.90347  21173544.864    21173544.445    21173559.725
       233.000         189.000
  -2270602.46149  -1734837.62145  22385465.723    22385465.461    22385486.385
       217.000         158.000
 -18891047.20449 -14705275.30847  18689286.262    18689285.185    18689297.804
       232.000         205.000
   4286608.28649   3344633.18546  20566907.362    20566906.112    20566922.270
       228.000         184.000
 -12370021.58549  -9622929.24045  21778418.933    21778419.953    21778440.996
       217.000         158.000
  -6334590.94349  -4925670.15145  22602172.156    22602171.229    22602189.839
       216.000         159.000
 01 12 19 22  3 59.9940000  0  9G28G 2G27G26G 9G 7G 8G 4G11
  -4121617.16249  -3204312.42347  19732410.648    19732409.753    19732421.435
       242.000         206.000
   3267324.03149   2545762.56246  21749827.801    21749826.501    21749844.327
       224.000         177.000
  12202489.09848   9506575.43544  23178131.187    23178129.854    23178154.316
       194.000         123.000
 -13257834.94549 -10314730.87947  21175005.143    21175004.624    21175019.902
       233.000         190.000
  -2401540.40649  -1836866.87745  22360548.778    22360548.591    22360569.429
       218.000         157.000
 -18919485.11149 -14727434.70447  18683874.702    18683873.629    18683886.234
       231.000         204.000
   4350663.41649   3394546.14246  20579096.765    20579095.509    20579111.678
       227.000         184.000
 -12504550.74849  -9727756.86145  21752818.720    21752819.600    21752840.295
       217.000         159.000
  -6303689.07949  -4901590.89145  22608052.712    22608051.759    22608070.356
       216.000         160.000
 01 12 19 22  4 29.9940000  0  8G28G 2G26G 9G 7G 8G 4G11
  -4116086.00649  -3200002.48847  19733463.232    19733462.327    19733474.020
       242.000         206.000
   3293913.15149   2566481.22146  21754887.751    21754886.401    21754904.229
       223.000         178.000
 -13249682.83849 -10308378.62347  21176556.506    21176555.923    21176571.234
       233.000         190.000
  -2532331.11849  -1938781.40045  22335659.809    22335659.757    22335680.519
       216.000         156.000
 -18947507.58449 -14749270.38347  18678542.162    18678541.118    18678553.729
       232.000         204.000
   4415030.09449   3444701.85946  20591345.487    20591344.191    20591360.386
       227.000         183.000
 -12638979.07149  -9832505.87545  21727237.600    21727238.439    21727258.924
       218.000         160.000
  -6272352.16549  -4877172.63545  22614016.052    22614015.048    22614033.680
       217.000         158.000
 01 12 19 22  4 59.9940000  0  8G28G 2G26G 9G 7G 8G 4G11
  -4110385.88249  -3195560.89047  19734547.993    19734547.066    19734558.747
       242.000         206.000
   3320620.71049   2587292.16746  21759970.152    21759968.787    21759986.686
       224.000         178.000
 -13241072.78949 -10301669.52347  21178194.926    21178194.363    21178209.713
       231.000         190.000
  -2662991.05849  -2040594.03645  22310795.738    22310795.733    22310816.457
       216.000         155.000
 -18975134.74849 -14770798.02147  18673284.905    18673283.844    18673296.469
       232.000         204.000
   4479687.67549   3495084.26746  20603649.561    20603648.242    20603664.462
       227.000         184.000
 -12773322.25449  -9937188.59745  21701672.709    21701673.488    21701693.800
       215.000         161.000
  -6240600.77449  -4852431.42045  22620058.172    22620057.205    22620075.862
       216.000         158.000
 01 12 19 22  5 29.9940000  0  8G28G 2G26G 9G 7G 8G 4G11
  -4104512.62949  -3190984.39047  19735665.658    19735664.737    19735676.446
       242.000         206.000
   3347450.96649   2608198.72846  21765075.980    21765074.566    21765092.470
       224.000         177.000
 -13232002.69349 -10294601.94847  21179920.917    21179920.387    21179935.750
       230.000         189.000
  -2793513.71249  -2142299.67845  22285957.750    22285957.865    22285978.505
       217.000         157.000
 -19002363.41149 -14792015.14547  18668103.461    18668102.385    18668115.018
       232.000         204.000
   4544638.42549   3545695.12246  20616009.381    20616008.072    20616024.322
       227.000         183.000
 -12907573.08449 -10041799.37146  21676125.432    21676126.135    21676146.246
       217.000         163.000
  -6208432.52749  -4827365.39145  22626179.599    22626178.673    22626197.390
       214.000         158.000
 01 12 19 22  5 59.9940000  0  8G28G 2G26G 9G 7G 8G 4G11
  -4098454.60149  -3186263.90647  19736818.508    19736817.578    19736829.295
       242.000         206.000
   3374415.82249   2629210.16346  21770207.390    21770205.961    21770223.857
       223.000         177.000
 -13222462.88949 -10287168.36647  21181736.373    21181735.757    21181751.162
       230.000         189.000
  -2923885.02649  -2243887.42445  22261148.572    22261148.760    22261169.404
       216.000         158.000
 -19029183.05549 -14812913.54547  18662999.828    18662998.762    18663011.407
       231.000         204.000
   4609892.38849   3596542.24446  20628426.860    20628425.581    20628441.897
       227.000         182.000
 -13041716.55649 -10146326.49146  21650598.491    21650599.203    21650619.212
       217.000         163.000
  -6175837.80049  -4801967.05245  22632382.305    22632381.327    22632400.024
       215.000         157.000
 01 12 19 22  6 29.9940000  0  8G28G 2G26G 9G 7G 8G 4G11
  -4092210.95049  -3181398.77847  19738006.604    19738005.730    19738017.479
       242.000         206.000
   3401516.15549   2650327.15646  21775364.493    21775363.096    21775381.017
       224.000         177.000
 -13212455.10949 -10279370.13547  21183640.713    21183640.178    21183655.620
       231.000         189.000
  -3054102.48049  -2345355.30645  22236368.762    22236368.968    22236389.576
       217.000         158.000
 -19055594.32749 -14833493.73947  18657973.883    18657972.849    18657985.514
       232.000         204.000
   4675448.08649   3647624.47646  20640901.706    20640900.482    20640916.869
       225.000         181.000
 -13175749.29449 -10250767.34446  21625092.595    21625093.321    21625113.239
       217.000         163.000
  -6142817.73049  -4776237.26645  22638666.014    22638664.952    22638683.662
       214.000         157.000
 01 12 19 22  6 59.9940000  0  8G28G 2G26G 9G 7G 8G 4G11
  -4085789.24749  -3176394.91247  19739228.691    19739227.788    19739239.543
       242.000         206.000
   3428744.66549   2671544.04646  21780546.019    21780544.624    21780562.573
       223.000         177.000
 -13201988.90449 -10271214.67847  21185632.385    21185631.864    21185647.322
       232.000         189.000
  -3184171.24249  -2446707.31345  22211617.222    22211617.436    22211638.065
       216.000         161.000
 -19081605.85549 -14853762.44247  18653024.061    18653023.011    18653035.688
       231.000         204.000
   4741296.26049   3698934.62846  20653432.180    20653431.023    20653447.508
       226.000         180.000
 -13309675.62549 -10355125.26746  21599606.993    21599607.734    21599627.604
       219.000         164.000
  -6109381.84249  -4750183.45445  22645028.668    22645027.728    22645046.370
       214.000         156.000
 01 12 19 22  7 29.9940000  0  8G28G 2G26G 9G 7G 8G 4G11
  -4079188.92049  -3171251.85147  19740484.756    19740483.825    19740495.601
       242.000         206.000
   3456102.37449   2692861.59746  21785752.140    21785750.742    21785768.753
       224.000         178.000
 -13191065.94449 -10262703.31947  21187710.999    21187710.491    21187725.903
       233.000         188.000
  -3314088.51349  -2547941.30345  22186894.526    22186894.770    22186915.338
       215.000         160.000
 -19107218.18749 -14873720.08047  18648150.170    18648149.123    18648161.805
       231.000         204.000
   4807435.68049   3750471.71246  20666018.120    20666016.992    20666033.557
       224.000         181.000
 -13443491.92249 -10459397.45846  21574142.351    21574143.084    21574162.913
       218.000         164.000
  -6075531.37349  -4723806.60145  22651470.274    22651469.328    22651488.072
       213.000         156.000
 01 12 19 22  7 59.9940000  0  8G28G 2G26G 9G 7G 8G 4G11
  -4072400.84149  -3165962.49247  19741776.557    19741775.604    19741787.375
       242.000         206.000
   3483598.57049   2714287.07046  21790984.670    21790983.244    21791001.278
       223.000         177.000
 -13179679.26749 -10253830.62646  21189877.856    21189877.320    21189892.742
       231.000         187.000
  -3443842.81949  -2649048.30146  22162202.995    22162203.153    22162223.638
       216.000         163.000
 -19132423.62049 -14893360.66047  18643353.692    18643352.657    18643365.349
       231.000         204.000
   4873873.46649   3802241.28746  20678660.875    20678659.745    20678676.373
       224.000         180.000
 -13577186.00649 -10563574.42746  21548701.035    21548701.729    21548721.473
       219.000         166.000
  -6041259.20849  -4697101.15145  22657992.065    22657991.157    22658009.943
       214.000         156.000
 01 12 19 22  8 29.9940000  0  8G28G 2G26G 9G 7G 8G 4G11
  -4065452.12949  -3160547.95447  19743098.909    19743097.956    19743109.725
       241.000         206.000
   3511206.16049   2735799.33946  21796238.379    21796236.937    21796255.005
       224.000         177.000
 -13167858.50249 -10244619.69047  21192127.172    21192126.733    21192142.167
       231.000         188.000
  -3573459.37649  -2750047.96546  22137537.627    22137537.742    22137558.195
       217.000         163.000
 -19157250.52449 -14912706.27547  18638629.268    18638628.233    18638640.927
       232.000         204.000
   4940580.45349   3854220.62946  20691354.842    20691353.715    20691370.409
       225.000         180.000
 -13710782.07849 -10667674.98846  21523278.279    21523278.979    21523298.706
       219.000         165.000
  -6006594.54049  -4670089.85645  22664588.672    22664587.735    22664606.546
       213.000         155.000
 01 12 19 22  8 59.9940000  0  8G28G 2G26G 9G 7G 8G 4G11
  -4058319.95849  -3154990.45647  19744456.178    19744455.194    19744466.994
       242.000         206.000
   3538948.23849   2757416.40646  21801517.617    21801516.210    21801534.329
       224.000         177.000
 -13155582.78749 -10235054.24447  21194463.220    21194462.792    21194478.174
       233.000         190.000
  -3702912.87449  -2850920.57546  22112903.188    22112903.331    22112923.751
       218.000         164.000
 -19181677.17049 -14931740.00647  18633981.016    18633979.987    18633992.682
       231.000         204.000
   5007577.60449   3906426.06646  20704104.085    20704102.940    20704119.650
       224.000         179.000
 -13844254.18949 -10771678.98046  21497879.179    21497879.852    21497899.456
       218.000         165.000
  -5971516.48949  -4642756.45745  22671263.954    22671263.029    22671281.841
       212.000         155.000
 01 12 19 22  9 29.9940000  0  8G28G 2G26G 9G 7G 8G 4G11
  -4051005.48449  -3149290.91047  19745848.049    19745847.097    19745858.924
       241.000         205.000
   3566823.85649   2779137.53846  21806822.322    21806820.890    21806839.039
       223.000         176.000
 -13142855.98549 -10225137.30547  21196885.124    21196884.655    21196900.009
       234.000         189.000
  -3832202.35349  -2951665.38046  22088300.013    22088300.180    22088320.488
       219.000         165.000
 -19205706.22049 -14950463.92247  18629408.394    18629407.387    18629420.094
       232.000         205.000
   5074861.65749   3958855.05446  20716907.935    20716906.752    20716923.512
       224.000         180.000
 -13977600.63749 -10875585.01746  21472503.941    21472504.592    21472524.200
       220.000         165.000
  -5936028.64749  -4615103.73845  22678017.090    22678016.185    22678035.048
       212.000         155.000
 01 12 19 22  9 59.9940000  0  8G28G 2G26G 9G 7G 8G 4G11
  -4043520.44849  -3143458.44647  19747272.434    19747271.505    19747283.312
       241.000         205.000
   3594821.31249   2800953.60246  21812150.119    21812148.754    21812166.926
       223.000         176.000
 -13129691.85149 -10214879.59147  21199390.272    21199389.749    21199405.080
       234.000         190.000
  -3961337.15549  -3052289.66046  22063726.377    22063726.477    22063746.665
       220.000         165.000
 -19229350.55549 -14968888.06147  18624909.009    18624907.992    18624920.706
       231.000         205.000
   5142419.20949   4011497.17346  20729763.852    20729762.625    20729779.413
       225.000         179.000
 -14110829.85949 -10979399.69346  21447151.034    21447151.690    21447171.226
       220.000         166.000
  -5900144.21449  -4587141.99745  22684845.676    22684844.818    22684863.729
       211.000         154.000
 01 12 19 22 10 29.9940000  0  8G28G 2G26G 9G 7G 8G 4G11
  -4035861.21049  -3137490.23947  19748729.999    19748729.043    19748740.859
       241.000         205.000
   3622944.55049   2822867.67846  21817501.835    21817500.524    21817518.730
       223.000         175.000
 -13116089.13449 -10204280.12447  21201978.687    21201978.292    21201993.649
       232.000         189.000
  -4090311.33149  -3152788.77146  22039183.313    22039183.347    22039203.460
       221.000         164.000
 -19252607.77249 -14987010.55447  18620483.280    18620482.277    18620494.997
       231.000         204.000
   5210251.86549   4064353.64346  20742672.052    20742670.854    20742687.671
       224.000         179.000
 -14243935.41249 -11083118.01946  21421821.713    21421822.327    21421841.793
       221.000         167.000
  -5863861.82049  -4558870.13645  22691750.157    22691749.205    22691768.134
       214.000         155.000
 01 12 19 22 10 59.9940000  0  8G28G 2G26G 9G 7G 8G 4G11
  -4028005.22549  -3131368.72347  19750224.913    19750224.000    19750235.869
       242.000         205.000
   3651216.17749   2844897.38846  21822881.874    21822880.535    21822898.762
       222.000         176.000
 -13102027.75849 -10193323.27247  21204654.472    21204654.128    21204669.488
       232.000         189.000
  -4219100.33349  -3253143.58245  22014675.403    22014675.431    22014695.470
       219.000         162.000
 -19275456.85849 -15004815.02747  18616135.210    18616134.217    18616146.950
       231.000         204.000
   5278380.07949   4117440.40846  20755636.591    20755635.348    20755652.154
       224.000         179.000
 -14376891.57049 -11186719.91446  21396520.816    21396521.400    21396540.815
       222.000         165.000
  -5827161.01449  -4530272.24345  22698734.178    22698733.168    22698752.282
       212.000         155.000
 01 12 19 22 11 29.9940000  0  8G28G 2G26G 9G 7G 8G 4G11
  -4019973.19049  -3125110.01247  19751753.328    19751752.465    19751764.360
       241.000         205.000
   3679615.55249   2867026.64446  21828286.144    21828284.862    21828303.109
       223.000         175.000
 -13087530.80549 -10182027.00147  21207413.192    21207412.818    21207428.188
       232.000         188.000
  -4347722.62249  -3353368.48745  21990199.226    21990199.227    21990219.189
       218.000         160.000
 -19297919.72249 -15022318.54647  18611860.654    18611859.657    18611872.380
       231.000         204.000
   5346781.04749   4170739.71046  20768653.030    20768651.757    20768668.560
       225.000         179.000
 -14509716.25249 -11290219.36946  21371244.864    21371245.492    21371264.812
       218.000         164.000
  -5790064.72349  -4501366.17745  22705793.363    22705792.436    22705811.638
       213.000         155.000
 01 12 19 22 11 59.9940000  0  8G28G 2G26G 9G 7G 8G 4G11
  -4011767.11849  -3118715.69447  19753314.913    19753314.047    19753325.984
       242.000         205.000
   3708140.94349   2889254.08446  21833714.484    21833713.154    21833731.452
       222.000         175.000
 -13072602.71849 -10170394.78047  21210254.000    21210253.575    21210268.967
       233.000         188.000
  -4476177.97549  -3453463.32845  21965754.741    21965754.817    21965774.677
       215.000         157.000
 -19319999.78349 -15039523.77947  18607658.926    18607657.934    18607670.672
       231.000         204.000
   5415451.01749   4224248.62346  20781720.685    20781719.362    20781736.121
       226.000         178.000
 -14642408.26149 -11393615.41646  21345994.161    21345994.782    21346014.100
       220.000         168.000
  -5752577.01649  -4472155.08345  22712927.189    22712926.226    22712945.424
       213.000         155.000
 01 12 19 22 12 29.9940000  0  8G28G 2G26G 9G 7G 8G 4G11
  -4003376.24949  -3112177.37847  19754911.644    19754910.792    19754922.761
       241.000         205.000
   3736803.29549   2911588.24546  21839168.850    21839167.526    21839185.846
       222.000         175.000
 -13057235.06349 -10158420.04347  21213178.402    21213177.996    21213193.365
       232.000         188.000
  -4604453.50049  -3553417.99945  21941344.481    21941344.590    21941364.416
       214.000         154.000
 -19341687.66149 -15056423.41447  18603531.799    18603530.833    18603543.601
       231.000         204.000
   5484398.40349   4277973.70246  20794841.150    20794839.766    20794856.488
       225.000         179.000
 -14774953.97849 -11496897.50146  21320771.303    21320771.892    21320791.185
       220.000         167.000
  -5714689.17749  -4442632.21645  22720137.040    22720136.085    22720155.369
       211.000         155.000
 01 12 19 22 12 59.9940000  0  8G28G 2G26G 9G 7G 8G 4G11
  -3994808.42049  -3105501.16647  19756542.057    19756541.225    19756553.214
       242.000         205.000
   3765594.62449   2934022.91546  21844647.656    21844646.418    21844664.789
       221.000         174.000
 -13041438.30649 -10146110.94747  21216184.477    21216184.057    21216199.444
       233.000         188.000
  -4732554.74949  -3653236.90045  21916967.391    21916967.522    21916987.312
       213.000         156.000
 -19362992.65049 -15073024.69147  18599477.542    18599476.595    18599489.364
       232.000         204.000
   5553613.30349   4331907.23346  20808012.385    20808011.053    20808027.787
       224.000         179.000
 -14907358.16049 -11600069.29246  21295575.351    21295575.975    21295595.218
       222.000         167.000
  -5676411.27949  -4412805.38845  22727421.207    22727420.266    22727439.561
       214.000         154.000
 01 12 19 22 13 29.9940000  0  8G28G 2G26G 9G 7G 8G 4G11
  -3986055.46549  -3098680.69547  19758207.720    19758206.879    19758218.891
       242.000         205.000
   3794523.41249   2956564.66746  21850152.831    21850151.495    21850169.881
       222.000         174.000
 -13025206.46749 -10133462.83247  21219273.356    21219272.920    21219288.323
       232.000         188.000
  -4860471.25349  -3752911.82145  21892625.505    21892625.619    21892645.337
       213.000         158.000
 -19383907.82049 -15089322.21847  18595497.490    18595496.557    18595509.313
       231.000         205.000
   5623102.25649   4386054.31446  20821235.829    20821234.496    20821251.270
       224.000         178.000
 -15039609.68149 -11703122.14646  21270408.455    21270409.132    21270428.283
       220.000         167.000
  -5637737.09049  -4382669.76345  22734780.764    22734779.835    22734799.145
       212.000         155.000
 01 12 19 22 13 59.9940000  0  8G28G 2G26G 9G 7G 8G 4G11
  -3977130.90749  -3091726.51047  19759905.995    19759905.185    19759917.212
       241.000         205.000
   3823576.25749   2979203.09546  21855681.422    21855680.156    21855698.575
       221.000         172.000
 -13008555.79249 -10120488.35446  21222441.870    21222441.468    21222456.895
       231.000         187.000
  -4988214.38949  -3852451.63345  21868316.535    21868316.696    21868336.317
       218.000         162.000
 -19404448.07549 -15105327.59647  18591588.797    18591587.879    18591600.620
       232.000         205.000
   5692849.20649   4440402.41746  20834508.343    20834507.022    20834523.815
       225.000         178.000
 -15171718.91449 -11806064.14946  21245268.641    21245269.328    21245288.386
       218.000         168.000
  -5598682.69249  -4352237.89845  22742212.474    22742211.629    22742231.038
       214.000         155.000
 01 12 19 22 14 29.9940000  0  8G28G 2G26G 9G 7G 8G 4G11
  -3968024.18549  -3084630.37447  19761638.981    19761638.153    19761650.202
       241.000         205.000
   3852764.00849   3001946.63746  21861235.705    21861234.475    21861252.949
       221.000         173.000
 -12991478.11549 -10107181.15147  21225691.658    21225691.268    21225706.719
       231.000         188.000
  -5115771.07349  -3951846.16446  21844043.188    21844043.284    21844062.867
       219.000         168.000
 -19424604.24949 -15121033.69647  18587753.230    18587752.288    18587765.001
       234.000         205.000
   5762863.06149   4494958.50846  20847831.665    20847830.345    20847847.186
       224.000         178.000
 -15303672.42049 -11908884.79946  21220158.403    21220159.159    21220178.173
       219.000         167.000
  -5559239.42149  -4321503.01745  22749718.513    22749717.614    22749736.967
       214.000         155.000
 01 12 19 22 14 59.9940000  0  8G28G 2G26G 9G 7G 8G 4G11
  -3958740.58449  -3077396.41047  19763405.607    19763404.785    19763416.843
       242.000         205.000
   3882081.47349   3024791.26246  21866814.685    21866813.479    21866832.017
       221.000         172.000
 -12973981.11149 -10093547.19947  21229021.288    21229020.890    21229036.355
       232.000         189.000
  -5243144.47649  -4051097.88146  21819804.590    21819804.726    21819824.244
       221.000         169.000
 -19444383.12449 -15136445.79747  18583989.452    18583988.483    18584001.184
       233.000         205.000
   5833136.27049   4549716.69046  20861204.305    20861203.009    20861219.882
       223.000         177.000
 -15435472.34049 -12011585.81846  21195077.519    21195078.237    21195097.150
       220.000         168.000
  -5519414.82849  -4290471.00745  22757297.045    22757296.106    22757315.410
       213.000         156.000
 01 12 19 22 15 29.9940000  0  8G28G 2G26G 9G 7G 8G 4G11
  -3949278.36049  -3070023.26047  19765206.258    19765205.412    19765217.457
       241.000         205.000
   3911530.53049   3047738.42246  21872418.695    21872417.531    21872436.115
       222.000         172.000
 -12956065.65849 -10079587.18347  21232430.569    21232430.147    21232445.592
       231.000         188.000
  -5370330.70149  -4150203.76546  21795601.682    21795601.831    21795621.250
       222.000         171.000
 -19463784.28349 -15151563.57347  18580297.505    18580296.569    18580309.245
       232.000         205.000
   5903668.55449   4604676.73846  20874626.255    20874624.975    20874641.918
       223.000         177.000
 -15567113.93049 -12114163.44946  21170026.879    21170027.469    21170046.262
       223.000         170.000
  -5479209.35349  -4259142.20745  22764947.827    22764947.000    22764966.369
       213.000         155.000
 01 12 19 22 15 59.9940000  0  8G28G 2G26G 9G 7G 8G 4G11
  -3939638.07949  -3062511.36847  19767040.769    19767039.914    19767051.968
       242.000         205.000
   3941110.84149   3070787.85846  21878047.757    21878046.568    21878065.163
       220.000         172.000
 -12937734.95549 -10065303.59046  21235918.785    21235918.368    21235933.877
       231.000         187.000
  -5497328.16149  -4249162.55546  21771434.668    21771434.809    21771454.178
       221.000         170.000
 -19482809.79949 -15166388.64247  18576677.059    18576676.131    18576688.811
       234.000         205.000
   5974457.30849   4659836.63646  20888097.058    20888095.767    20888112.730
       223.000         176.000
 -15698594.73349 -12216615.83146  21145006.891    21145007.349    21145026.008
       221.000         171.000
  -5438625.64949  -4227518.68645  22772670.761    22772669.925    22772689.293
       214.000         155.000
 01 12 19 22 16 29.9940000  0  8G28G 2G26G 9G 7G 8G 4G11
  -3929808.01249  -3054851.58947  19768911.319    19768910.514    19768922.593
       241.000         204.000
   3970834.07549   3093948.66846  21883704.039    21883702.827    21883721.431
       222.000         172.000
 -12918979.64949 -10050689.15246  21239487.825    21239487.424    21239502.932
       231.000         187.000
  -5624122.68049  -4347963.22746  21747306.335    21747306.422    21747325.717
       221.000         169.000
 -19501449.29749 -15180912.91447  18573130.130    18573129.157    18573141.838
       233.000         205.000
   6045512.07149   4715203.82746  20901618.522    20901617.192    20901634.166
       224.000         177.000
 -15829900.09349 -12318931.49146  21120020.123    21120020.598    21120039.150
       222.000         170.000
  -5397654.29549  -4195593.08845  22780467.410    22780466.585    22780486.021
       211.000         154.000
 01 12 19 22 16 59.9940000  0  8G28G 2G26G 9G 7G 8G 4G11
  -3919799.88149  -3047053.05647  19770815.795    19770814.997    19770827.106
       241.000         204.000
   4000688.62449   3117211.79046  21889385.316    21889384.089    21889402.698
       221.000         172.000
 -12899814.24049 -10035755.14346  21243134.942    21243134.509    21243150.026
       231.000         187.000
  -5750723.73149  -4446613.12846  21723214.750    21723214.827    21723234.101
       218.000         166.000
 -19519716.16549 -15195146.83047  18569654.066    18569653.078    18569665.752
       233.000         204.000
   6116819.04049   4770767.52146  20915187.991    20915186.604    20915203.577
       223.000         176.000
 -15961038.75149 -12421117.29746  21095065.184    21095065.593    21095084.034
       223.000         171.000
  -5356309.40949  -4163376.43845  22788335.183    22788334.347    22788353.785
       214.000         154.000
 01 12 19 22 17 29.9940000  0  8G28G 2G26G 9G 7G 8G 4G11
  -3909611.13349  -3039113.78847  19772754.590    19772753.853    19772765.999
       241.000         204.000
   4030677.15549   3140579.33146  21895091.986    21895090.809    21895109.455
       220.000         171.000
 -12880238.66249 -10020501.52346  21246860.030    21246859.652    21246875.204
       230.000         186.000
  -5877126.58749  -4545108.60846  21699160.907    21699160.929    21699180.127
       217.000         164.000
 -19537609.16749 -15209089.42147  18566249.086    18566248.126    18566260.799
       233.000         204.000
   6188378.55949   4826528.02146  20928805.440    20928804.070    20928821.040
       223.000         176.000
 -16092005.09549 -12523168.81546  21070142.945    21070143.355    21070161.693
       221.000         172.000
  -5314590.61549  -4130868.44245  22796274.174    22796273.301    22796292.749
       214.000         155.000
 01 12 19 22 17 59.9940000  0  8G28G 2G26G 9G 7G 8G 4G11
  -3899252.95649  -3031042.50447  19774725.725    19774724.950    19774737.113
       242.000         204.000
   4060788.75649   3164042.78546  21900822.178    21900820.952    21900839.654
       221.000         171.000
 -12860266.61549 -10004938.96846  21250660.651    21250660.240    21250675.816
       230.000         187.000
  -6003340.22149  -4643456.62545  21675142.998    21675143.027    21675162.212
       218.000         161.000
 -19555140.93949 -15222750.53847  18562912.857    18562911.918    18562924.583
       233.000         204.000
   6260177.40249   4882475.00246  20942468.407    20942467.045    20942484.081
       223.000         175.000
 -16222807.08749 -12625092.25546  21045252.023    21045252.386    21045270.655
       222.000         171.000
  -5272511.18749  -4098079.39245  22804281.880    22804280.928    22804300.328
       215.000         155.000
 01 12 19 22 18 29.9940000  0  8G28G 2G26G 9G 7G 8G 4G11
  -3888714.51849  -3022830.75447  19776731.089    19776730.364    19776742.528
       241.000         204.000
   4091034.12649   3187610.45446  21906577.700    21906576.553    21906595.321
       220.000         171.000
 -12839890.02949  -9989061.18647  21254538.263    21254537.836    21254553.415
       232.000         188.000
  -6129351.48349  -4741646.98346  21651163.590    21651163.677    21651182.784
       218.000         164.000
 -19572302.25749 -15236122.98847  18559647.139    18559646.198    18559658.869
       233.000         203.000
   6332224.37349   4938615.31846  20956178.616    20956177.262    20956194.328
       223.000         175.000
 -16353431.23449 -12726877.12446  21020394.898    21020395.289    21020413.442
       222.000         171.000
  -5230062.76149  -4065002.80945  22812359.656    22812358.716    22812378.189
       214.000         154.000
 01 12 19 22 18 59.9940000  0  8G28G 2G26G 9G 7G 8G 4G11
  -3877998.25849  -3014480.44847  19778770.333    19778769.608    19778781.786
       240.000         203.000
   4121410.93549   3211280.54246  21912358.404    21912357.184    21912375.963
       221.000         171.000
 -12819114.03949  -9972872.17147  21258491.795    21258491.414    21258507.042
       232.000         188.000
  -6255160.35049  -4839679.62646  21627222.760    21627222.856    21627241.897
       222.000         168.000
 -19589097.13249 -15249209.90647  18556451.102    18556450.198    18556462.885
       232.000         203.000
   6404514.59149   4994945.18546  20969935.040    20969933.753    20969950.852
       222.000         175.000
 -16483876.66449 -12828522.71346  20995571.820    20995572.200    20995590.247
       221.000         171.000
  -5187250.06749  -4031642.39945  22820506.669    22820505.790    22820525.343
       214.000         155.000
 01 12 19 22 19 29.9940000  0  8G28G 2G26G 9G 7G 8G 4G11
  -3867081.59849  -3005973.98847  19780847.725    19780846.984    19780859.159
       240.000         203.000
   4151941.88049   3235070.72646  21918168.377    21918167.140    21918185.942
       221.000         170.000
 -12797918.61649  -9956356.32947  21262525.221    21262524.819    21262540.475
       232.000         188.000
  -6380742.05049  -4937535.25646  21603325.195    21603325.266    21603344.234
       224.000         171.000
 -19605504.27049 -15261994.68247  18553328.825    18553327.971    18553340.693
       232.000         203.000
   6477068.77649   5051480.74146  20983741.764    20983740.482    20983757.612
       222.000         174.000
 -16614117.94449 -12930009.20746  20970787.652    20970787.958    20970805.914
       224.000         172.000
  -5144052.79549  -3997982.30645  22828726.787    22828725.993    22828745.620
       212.000         153.000
 01 12 19 22 19 59.9940000  0  8G28G 2G26G 9G 7G 8G 4G11
  -3855985.98749  -2997328.08447  19782959.132    19782958.422    19782970.600
       240.000         203.000
   4182605.72749   3258964.48746  21924003.656    21924002.385    21924021.216
       221.000         170.000
 -12776327.93249  -9939532.49147  21266633.940    21266633.486    21266649.138
       233.000         188.000
  -6506116.09149  -5035229.09546  21579467.151    21579467.193    21579486.071
       225.000         172.000
 -19621546.77749 -15274495.33747  18550276.020    18550275.153    18550287.896
       233.000         203.000
   6549863.11949   5108203.44446  20997594.178    20997592.884    20997610.087
       221.000         174.000
 -16744173.52049 -13031350.98146  20946038.784    20946039.066    20946056.946
       223.000         173.000
  -5100494.86849  -3964041.18545  22837015.633    22837014.793    22837034.578
       213.000         153.000
 01 12 19 22 20 29.9940000  0  8G28G 2G26G 9G 7G 8G 4G11
  -3844711.41249  -2988542.73747  19785104.644    19785103.909    19785116.103
       240.000         203.000
   4213402.49549   3282961.80746  21929864.174    21929862.912    21929881.787
       220.000         169.000
 -12754344.52149  -9922402.63147  21270817.347    21270816.877    21270832.527
       232.000         188.000
  -6631280.11449  -5132759.25346  21555649.084    21555649.091    21555667.886
       225.000         172.000
 -19637226.07149 -15286712.96747  18547292.345    18547291.458    18547304.202
       233.000         204.000
   6622895.54549   5165111.63846  21011491.882    21011490.614    21011507.814
       221.000         173.000
 -16874040.23049 -13132545.57846  20921325.843    20921326.103    20921343.918
       223.000         174.000
  -5056578.24749  -3929820.57345  22845372.751    22845371.935    22845391.774
       212.000         154.000
 01 12 19 22 20 59.9930000  0  8G28G 2G26G 9G 7G 8G 4G11
  -3833265.97049  -2979624.24347  19787282.660    19787281.916    19787294.112
       240.000         203.000
   4244323.86649   3307056.23146  21935748.434    21935747.164    21935766.046
       220.000         169.000
 -12731979.52349  -9904975.42946  21275073.315    21275072.835    21275088.526
       231.000         187.000
  -6756235.03049  -5230126.48446  21531870.759    21531870.765    21531889.528
       223.000         170.000
 -19652550.70049 -15298654.23847  18544376.143    18544375.264    18544388.012
       233.000         204.000
   6696154.01949   5222195.98946  21025432.650    21025431.344    21025448.588
       222.000         173.000
 -17003718.37849 -13233593.20646  20896648.715    20896649.027    20896666.797
       225.000         173.000
  -5012314.50549  -3895329.46045  22853796.018    22853795.133    22853814.983
       213.000         153.000
 01 12 19 22 21 29.9930000  0  8G28G 2G26G 9G 7G 8G 4G11
  -3821641.95749  -2970566.60947  19789494.654    19789493.903    19789506.075
       240.000         203.000
   4275378.61049   3331254.58446  21941658.000    21941656.799    21941675.726
       220.000         168.000
 -12709227.28849  -9887246.49246  21279402.932    21279402.482    21279418.205
       229.000         186.000
  -6880980.06249  -5327330.17446  21508132.339    21508132.361    21508151.067
       221.000         170.000
 -19667516.44149 -15310315.85947  18541528.229    18541527.357    18541540.112
       232.000         204.000
   6769647.80249   5279463.69646  21039418.186    21039416.908    21039434.143
       221.000         171.000
 -17133206.79049 -13334492.97746  20872007.659    20872008.059    20872025.791
       225.000         174.000
  -4967696.11949  -3860561.99045  22862286.700    22862285.794    22862305.686
       214.000         154.000
 01 12 19 22 21 59.9930000  0  8G28G 2G26G 9G 7G 8G 4G11
  -3809824.64349  -2961358.35147  19791743.416    19791742.676    19791754.853
       241.000         202.000
   4306580.56149   3355567.63846  21947595.657    21947594.437    21947613.420
       219.000         168.000
 -12686076.39349  -9869206.90746  21283808.410    21283807.971    21283823.748
       230.000         186.000
  -7005494.00649  -5424353.77146  21484437.960    21484437.948    21484456.612
       222.000         171.000
 -19682109.60149 -15321687.15747  18538751.216    18538750.359    18538763.114
       233.000         204.000
   6843387.28549   5336922.84746  21053450.462    21053449.176    21053466.454
       222.000         172.000
 -17262483.16249 -13435227.51646  20847407.003    20847407.389    20847425.064
       225.000         175.000
  -4922711.95649  -3825509.51045  22870846.904    22870846.075    22870866.024
       214.000         153.000
 01 12 19 22 22 29.9930000  0  8G28G 2G26G 9G 7G 8G 4G11
  -3797811.12349  -2951997.21647  19794029.514    19794028.795    19794040.968
       240.000         202.000
   4337933.08949   3379998.03546  21953561.877    21953560.734    21953579.762
       218.000         168.000
 -12662526.32649  -9850856.28346  21288289.909    21288289.453    21288305.261
       231.000         186.000
  -7129771.35149  -5521193.02146  21460788.547    21460788.563    21460807.167
       225.000         173.000
 -19696328.26849 -15332766.64947  18536045.535    18536044.638    18536057.388
       233.000         204.000
   6917373.44749   5394574.22946  21067529.671    21067528.393    21067545.692
       221.000         170.000
 -17391541.32149 -13535791.97046  20822847.765    20822848.234    20822865.892
       224.000         175.000
  -4877361.25049  -3790171.37745  22879476.945    22879476.113    22879496.067
       213.000         153.000
 01 12 19 22 22 59.9930000  0  8G28G 2G26G 9G 7G 8G 4G11
  -3785626.27649  -2942502.58347  19796348.229    19796347.498    19796359.685
       240.000         203.000
   4369411.45649   3404526.48646  21959552.187    21959550.977    21959570.076
       218.000         167.000
 -12638604.79849  -9832216.20846  21292841.987    21292841.589    21292857.422
       231.000         185.000
  -7253834.88949  -5617865.69546  21437179.914    21437179.889    21437198.442
       227.000         175.000
 -19710199.12949 -15343575.12347  18533406.050    18533405.120    18533417.856
       234.000         204.000
   6991579.23649   5452396.72446  21081650.606    21081649.397    21081666.720
       220.000         171.000
 -17520403.29049 -13636203.58746  20798325.925    20798326.410    20798344.005
       225.000         174.000
  -4831671.22349  -3754568.83145  22888171.706    22888170.745    22888190.665
       214.000         152.000
 01 12 19 22 23 29.9930000  0  8G28G 2G26G 9G 7G 8G 4G11
  -3773285.32249  -2932886.30647  19798696.647    19798695.916    19798708.117
       240.000         202.000
   4401000.33749   3429141.05946  21965563.369    21965562.234    21965581.412
       218.000         167.000
 -12614329.88949  -9813300.76846  21297461.402    21297460.995    21297476.846
       229.000         184.000
  -7377697.40049  -5714381.72346  21413609.518    21413609.489    21413627.959
       227.000         178.000
 -19723738.93149 -15354125.63247  18530829.547    18530828.588    18530841.312
       234.000         205.000
   7065987.07049   5510376.67046  21095810.047    21095808.853    21095826.232
       221.000         172.000
 -17649081.48949 -13736471.99546  20773838.944    20773839.549    20773857.073
       225.000         175.000
  -4785659.70549  -3718715.77445  22896927.534    22896926.570    22896946.506
       214.000         154.000
 01 12 19 22 23 59.9930000  0  8G28G 2G26G 9G 7G 8G 4G11
  -3760773.17549  -2923136.64247  19801077.653    19801076.899    19801089.137
       240.000         202.000
   4432714.74749   3453853.45246  21971598.525    21971597.395    21971616.635
       219.000         168.000
 -12589689.18049  -9794100.29546  21302150.320    21302149.978    21302165.841
       230.000         183.000
  -7501341.47749  -5810727.54146  21390080.663    21390080.649    21390099.052
       226.000         178.000
 -19736934.15749 -15364407.63747  18528318.567    18528317.628    18528330.341
       234.000         205.000
   7140610.10549   5568524.30046  21110010.478    21110009.230    21110026.664
       220.000         171.000
 -17777557.61749 -13836582.96346  20749390.560    20749391.130    20749408.596
       224.000         176.000
  -4739313.91249  -3682602.26045  22905746.915    22905745.960    22905765.937
       215.000         153.000
 01 12 19 22 24 29.9930000  0  8G28G 2G26G 9G 7G 8G 4G11
  -3748084.20649  -2913249.19047  19803492.250    19803491.551    19803503.812
       239.000         202.000
   4464560.41949   3478668.12446  21977658.720    21977657.531    21977676.842
       220.000         167.000
 -12564679.98849  -9774612.69446  21306909.486    21306909.122    21306924.952
       230.000         182.000
  -7624759.35549  -5906897.10546  21366594.880    21366594.847    21366613.180
       225.000         175.000
 -19749780.87149 -15374418.07147  18525873.998    18525873.013    18525885.690
       235.000         205.000
   7215451.33149   5626841.94046  21124252.401    21124251.146    21124268.662
       219.000         170.000
 -17905823.16449 -13936529.83746  20724982.217    20724982.781    20725000.193
       226.000         176.000
  -4692630.73649  -3646225.87245  22914630.401    22914629.510    22914649.552
       216.000         153.000
 01 12 19 22 24 59.9930000  0  8G28G 2G26G 9G 7G 8G 4G11
  -3735200.18349  -2903209.75447  19805944.051    19805943.318    19805955.597
       240.000         202.000
   4496555.43549   3503599.16146  21983747.253    21983746.094    21983765.464
       219.000         166.000
 -12539286.85749  -9754825.92046  21311741.654    21311741.328    21311757.145
       230.000         182.000
  -7747930.74549  -6002874.61046  21343155.915    21343155.931    21343174.210
       224.000         175.000
 -19762262.51249 -15384144.03547  18523498.843    18523497.841    18523510.500
       234.000         205.000
   7290526.83249   5685342.13946  21138538.900    21138537.670    21138555.209
       218.000         170.000
 -18033857.01549 -14036296.19546  20700617.976    20700618.527    20700635.886
       225.000         176.000
  -4645594.38649  -3609574.26545  22923581.065    22923580.324    22923600.399
       213.000         152.000
 01 12 19 22 25 29.9930000  0  8G28G 2G26G 9G 7G 8G 4G11
  -3722150.97249  -2893041.59747  19808427.255    19808426.542    19808438.841
       240.000         202.000
   4528670.33849   3528623.62046  21989858.688    21989857.476    21989876.890
       218.000         166.000
 -12513542.29049  -9734765.29846  21316640.729    21316640.425    21316656.196
       231.000         182.000
  -7870882.78549  -6098681.17846  21319758.725    21319758.739    21319776.981
       225.000         174.000
 -19774410.29249 -15393609.84247  18521187.173    18521186.196    18521198.849
       234.000         205.000
   7365804.75649   5744000.07146  21152863.907    21152862.706    21152880.304
       219.000         169.000
 -18161685.74249 -14135902.71446  20676292.701    20676293.316    20676310.602
       226.000         177.000
  -4598236.95749  -3572672.45645  22932592.983    22932592.240    22932612.278
       213.000         152.000
 01 12 19 22 25 59.9930000  0  8G28G 2G26G 9G 7G 8G 4G11
  -3708922.43449  -2882733.70247  19810944.671    19810943.893    19810956.198
       240.000         202.000
   4560919.27549   3553752.50946  21995995.493    21995994.336    21996013.784
       219.000         166.000
 -12487435.22849  -9714422.21946  21321608.870    21321608.523    21321624.246
       231.000         182.000
  -7993599.19849  -6194304.17546  21296406.397    21296406.419    21296424.546
       226.000         177.000
 -19786211.96349 -15402805.95547  18518941.425    18518940.434    18518953.092
       235.000         205.000
   7441296.83749   5802824.87746  21167229.719    21167228.472    21167246.173
       219.000         169.000
 -18289292.55749 -14235336.34846  20652009.700    20652010.297    20652027.553
       225.000         177.000
  -4550546.79949  -3535511.40345  22941668.171    22941667.393    22941687.578
       214.000         152.000
 01 12 19 22 26 29.9930000  0  8G28G 2G26G 9G 7G 8G 4G11
  -3695521.81449  -2872291.71447  19813494.738    19813493.977    19813506.330
       240.000         203.000
   4593294.80949   3578980.05646  22002156.452    22002155.280    22002174.787
       218.000         166.000
 -12460975.58649  -9693804.39546  21326644.120    21326643.719    21326659.410
       231.000         183.000
  -8116084.99049  -6289747.45846  21273097.933    21273097.981    21273116.048
       227.000         177.000
 -19797676.18849 -15411739.12247  18516759.903    18516758.888    18516771.525
       235.000         205.000
   7516993.40449   5861809.03246  21181634.348    21181633.148    21181650.973
       218.000         170.000
 -18416681.62049 -14334600.30046  20627768.106    20627768.708    20627785.966
       225.000         177.000
  -4502533.52749  -3498098.57745  22950804.795    22950804.049    22950824.330
       213.000         153.000
 01 12 19 22 26 59.9930000  0  9G28G 2G26G 9G24G 7G 8G 4G11
  -3681951.23049  -2861717.29447  19816077.194    19816076.409    19816088.784
       239.000         203.000
   4625795.03149   3604304.75746  22008341.112    22008339.979    22008359.495
       218.000         165.000
 -12434168.40049  -9672915.77246  21331745.434    21331745.024    21331760.714
       231.000         184.000
  -8238339.87049  -6385010.82846  21249833.430    21249833.506    21249851.485
       228.000         178.000
    -20845.50353                  23156999.708
       209.000          74.000
 -19808806.66449 -15420412.22347  18514641.814    18514640.834    18514653.462
       234.000         205.000
   7592890.49149   5920949.42946  21196077.135    21196075.985    21196093.915
       219.000         168.000
 -18543852.08449 -14433693.93746  20603568.072    20603568.737    20603585.964
       225.000         177.000
  -4454201.74949  -3460437.55345  22960002.164    22960001.340    22960021.656
       214.000         153.000
 01 12 19 22 27 29.9930000  0  9G28G 2G26G 9G24G 7G 8G 4G11
  -3668193.08349  -2850996.72047  19818695.312    19818694.522    19818706.951
       240.000         202.000
   4658437.82149   3629740.56746  22014552.952    22014551.769    22014571.368
       218.000         165.000
 -12406998.68349  -9651744.65546  21336915.733    21336915.312    21336931.034
       230.000         184.000
  -8360343.74049  -6480078.60146  21226616.724    21226616.798    21226634.699
       226.000         179.000
   -128317.59043                  23130753.951
       201.000          65.000
 -19819587.35949 -15428812.76347  18512590.282    18512589.325    18512601.980
       234.000         205.000
   7669003.23949   5980257.87546  21210560.995    21210559.881    21210577.908
       218.000         169.000
 -18670783.03649 -14532600.96846  20579413.684    20579414.340    20579431.558
       225.000         178.000
  -4405536.23549  -3422516.47345  22969263.032    22969262.176    22969282.425
       215.000         152.000
 01 12 19 22 27 59.9930000  0  9G28G 2G26G 9G24G 7G 8G 4G11
  -3654249.78849  -2840131.87347  19821348.686    19821347.871    19821360.345
       240.000         203.000
   4691220.24749   3655285.16646  22020791.398    22020790.162    22020809.808
       218.000         165.000
 -12379472.17349  -9630295.51546  21342153.883    21342153.481    21342169.237
       230.000         183.000
  -8482097.18949  -6574951.21846  21203447.726    21203447.739    21203465.558
       226.000         180.000
   -235858.63243                  23104491.853
       202.000          91.000
 -19830022.63149 -15436944.14147  18510604.527    18510603.559    18510616.228
       235.000         205.000
   7745326.69949   6039730.52046  21225085.007    21225083.877    21225102.015
       218.000         168.000
 -18797474.40249 -14631321.31346  20555304.903    20555305.572    20555322.768
       227.000         179.000
  -4356542.16949  -3384339.38845  22978586.378    22978585.569    22978605.784
       215.000         152.000
 01 12 19 22 28 29.9930000  0  9G28G 2G26G 9G24G 7G 8G 4G11
  -3640120.28849  -2829121.93147  19824037.442    19824036.662    19824049.179
       239.000         203.000
   4724143.51549   3680939.51246  22027056.656    22027055.399    22027075.023
       217.000         164.000
 -12351590.38249  -9608569.54746  21347459.651    21347459.263    21347475.057
       229.000         183.000
  -8603596.66649  -6669625.93546  21180326.955    21180327.000    21180344.786
       227.000         182.000
    -10139.22043                  23078214.291
       201.000          74.000
 -19840112.96349 -15444806.74047  18508684.361    18508683.428    18508696.113
       234.000         205.000
   7821859.87049   6099366.57746  21239648.970    21239647.810    21239666.002
       218.000         169.000
 -18923921.94949 -14729851.68146  20531242.573    20531243.220    20531260.368
       227.000         180.000
  -4307220.78849  -3345907.25845  22987971.975    22987971.190    22987991.440
       213.000         148.000
 01 12 19 22 28 59.9930000  0  9G28G 2G26G 9G24G 7G 8G 4G11
  -3625810.39549  -2817971.41547  19826760.513    19826759.756    19826772.329
       239.000         203.000
   4757201.97249   3706699.22246  22033347.580    22033346.324    22033365.975
       217.000         163.000
 -12323362.18049  -9586573.64446  21352831.310    21352830.955    21352846.794
       229.000         182.000
  -8724845.54249  -6764105.36846  21157253.879    21157253.959    21157271.702
       229.000         183.000
   -117805.56841                  23051920.711
       200.000           1.000
 -19849865.75449 -15452406.32047  18506828.426    18506827.521    18506840.217
       234.000         205.000
   7898594.68349   6159159.74946  21254251.294    21254250.095    21254268.353
       219.000         168.000
 -19050128.52749 -14828194.28046  20507226.195    20507226.756    20507243.839
       227.000         179.000
  -4257580.40949  -3307226.53345  22997418.364    22997417.508    22997437.794
       211.000         150.000
 01 12 19 22 29 29.9930000  0  9G28G 2G26G 9G24G 7G 8G 4G11
  -3611321.21949  -2806681.19747  19829517.779    19829517.003    19829529.591
       239.000         203.000
   4790394.30649   3732563.23846  22039663.934    22039662.718    22039682.381
       217.000         163.000
 -12294791.46749  -9564310.84546  21358268.067    21358267.775    21358283.702
       229.000         182.000
  -8845842.82149  -6858388.75346  21134228.757    21134228.801    21134246.521
       230.000         183.000
   -225536.16843                  23025611.250
       201.000          83.000
 -19859283.74949 -15459745.02347  18505036.224    18505035.307    18505048.022
       234.000         205.000
   7975527.74949   6219107.40446  21268891.380    21268890.128    21268908.412
       219.000         169.000
 -19176092.04849 -14926347.50146  20483256.075    20483256.561    20483273.535
       227.000         179.000
  -4207624.44649  -3268299.92045  23006924.704    23006923.883    23006944.167
       212.000         148.000
 01 12 19 22 29 59.9930000  0  9G28G 2G26G 9G24G 7G 8G 4G11
  -3596647.96349  -2795247.54047  19832310.080    19832309.274    19832321.879
       239.000         202.000
   4823725.28249   3758535.28746  22046006.632    22046005.483    22046025.179
       215.000         163.000
 -12265876.53249  -9541779.82546  21363770.484    21363770.143    21363786.144
       230.000         183.000
  -8966581.46249  -6952470.62046  21111252.846    21111252.858    21111270.515
       228.000         181.000
                                  22999287.208
       202.000
 -19868363.99749 -15466820.55247  18503308.244    18503307.378    18503320.109
       234.000         204.000
   8052661.33749   6279211.30646  21283569.548    21283568.309    21283586.612
       218.000         167.000
 -19301805.26249 -15024305.66546  20459333.516    20459333.982    20459350.871
       228.000         180.000
  -4157350.69649  -3229125.65745  23016491.386    23016490.660    23016510.960
       213.000         149.000
 01 12 19 22 30 29.9930000  0  9G28G 2G26G 9G24G 7G 8G 4G11
  -3581791.05549  -2783670.76747  19835137.306    19835136.493    19835149.125
       240.000         203.000
   4857194.57749   3784615.11845  22052375.706    22052374.559    22052394.294
       216.000         162.000
 -12236620.73149  -9518983.19346  21369337.738    21369337.376    21369353.446
       228.000         181.000
  -9087059.59049  -7046349.46346  21088326.454    21088326.471    21088344.091
       226.000         179.000
   -107222.66944                  22972949.164
       205.000         113.000
 -19877108.54349 -15473634.49047  18501644.226    18501643.327    18501656.079
       234.000         204.000
   8129992.83649   6339469.41746  21298285.399    21298284.152    21298302.491
       220.000         168.000
 -19427265.53849 -15122066.74546  20435459.105    20435459.549    20435476.308
       228.000         180.000
  -4106762.17349  -3189706.10845  23026118.152    23026117.402    23026137.736
       211.000         149.000
 01 12 19 22 30 59.9930000  0  9G28G 2G26G 9G24G 7G 8G 4G11
  -3566754.38849  -2771953.92247  19837998.754    19837997.931    19838010.564
       240.000         203.000
   4890798.41549   3810799.79945  22058770.419    22058769.274    22058788.992
       216.000         162.000
 -12207030.70749  -9495926.12246  21374968.628    21374968.234    21374984.352
       230.000         183.000
  -9207278.77349  -7140026.53446  21065449.334    21065449.343    21065466.931
       227.000         179.000
   -215128.46245                  22946596.883
       207.000         133.000
 -19885522.93449 -15480191.16747  18500043.001    18500042.108    18500054.852
       234.000         205.000
   8207516.10349   6399876.95346  21313037.702    21313036.458    21313054.834
       219.000         168.000
 -19552473.47049 -15219631.19046  20411632.658    20411633.110    20411649.784
       228.000         180.000
  -4055865.11749  -3150046.13445  23035803.698    23035802.878    23035823.159
       211.000         145.000
 01 12 19 22 31 29.9930000  0  9G28G 2G26G 9G24G 7G 8G 4G11
  -3551531.48049  -2760091.95347  19840895.632    19840894.790    19840907.429
       239.000         203.000
   4924543.20149   3837094.29345  22065192.007    22065190.846    22065210.529
       215.000         162.000
 -12177102.93149  -9472605.88046  21380663.816    21380663.378    21380679.516
       229.000         181.000
  -9327230.06249  -7233494.87246  21042623.186    21042623.212    21042640.730
       228.000         178.000
  -1735238.46649   -323086.41145  22920231.600    22920227.213    22920257.473
       204.000         134.000
 -19893602.20349 -15486486.71047  18498505.584    18498504.670    18498517.425
       235.000         205.000
   8285235.31849   6460437.16246  21327827.266    21327826.058    21327844.488
       219.000         167.000
 -19677419.67849 -15316991.68246  20387855.989    20387856.460    20387873.096
       228.000         182.000
  -4004655.79349  -3110142.81345  23045548.584    23045547.777    23045568.064
       209.000         146.000
 01 12 19 22 31 59.9930000  0  9G28G 2G26G 9G24G 7G 8G 4G11
  -3536125.16349  -2748087.06347  19843827.335    19843826.524    19843839.216
       240.000         202.000
   4958426.34349   3863496.59945  22071639.949    22071638.738    22071658.402
       216.000         161.000
 -12146843.11149  -9449026.90346  21386422.124    21386421.714    21386437.847
       230.000         181.000
  -9446913.85649  -7326754.74446  21019847.907    21019847.966    21019865.442
       229.000         179.000
  -1873852.74349   -431096.53045  22893853.612    22893851.162    22893878.660
       203.000         134.000
 -19901350.81849 -15492524.60447  18497031.076    18497030.155    18497042.909
       234.000         205.000
   8363145.51849   6521146.20046  21342653.173    21342652.007    21342670.409
       218.000         165.000
 -19802104.01449 -15414148.11946  20364129.167    20364129.643    20364146.268
       227.000         182.000
  -3953139.09749  -3070000.01645  23055351.778    23055351.051    23055371.411
       212.000         145.000
 01 12 19 22 32 29.9930000  0  9G28G 2G26G 9G24G 7G 8G 4G11
  -3520535.33849  -2735939.18447  19846793.973    19846793.204    19846805.907
       239.000         202.000
   4992447.61749   3890006.54145  22078114.083    22078112.880    22078132.599
       215.000         160.000
 -12116254.31449  -9425191.58446  21392243.131    21392242.645    21392258.806
       228.000         181.000
  -9566327.90549  -7419804.46546  20997124.019    20997124.072    20997141.482
       227.000         179.000
  -2012532.02259   -539157.27255  22867463.200    22867460.368    22867488.897
       204.000         137.000
 -19908770.65849 -15498306.30847  18495619.129    18495618.203    18495630.973
       234.000         206.000
   8441244.22649   6582002.13046  21357514.994    21357513.844    21357532.251
       219.000         166.000
 -19926523.70349 -15511098.33146  20340452.681    20340453.195    20340469.816
       228.000         182.000
  -3901317.96849  -3029619.96945  23065213.076    23065212.327    23065232.704
       208.000         145.000
 01 12 19 22 32 59.9930000  0  9G28G 2G26G 9G24G 7G 8G 4G11
  -3504768.71149  -2723653.54047  19849794.353    19849793.540    19849806.225
       240.000         202.000
   5026600.35349   3916618.91645  22084613.134    22084612.018    22084631.775
       214.000         159.000
 -12085346.08149  -9401107.36646  21398124.846    21398124.364    21398140.542
       228.000         180.000
  -9685476.64049  -7512647.42546  20974450.559    20974450.644    20974468.023
       227.000         177.000
  -2151280.35449   -647271.77845  22841059.470    22841057.002    22841085.630
       203.000         132.000
 -19915869.75549 -15503838.08547  18494268.220    18494267.301    18494280.071
       235.000         206.000
   8519522.61949   6642998.06246  21372411.115    21372409.885    21372428.315
       219.000         166.000
 -20050682.26649 -15607845.08646  20316825.917    20316826.439    20316843.049
       228.000         181.000
  -3849201.24049  -2989009.61345  23075130.666    23075129.934    23075150.280
       209.000         143.000
 01 12 19 22 33 29.9930000  0  9G28G 2G26G 9G24G 7G 8G 4G11
  -3488816.78449  -2711223.50947  19852829.906    19852829.108    19852841.806
       240.000         202.000
   5060892.87949   3943340.23645  22091138.914    22091137.760    22091157.568
       214.000         159.000
 -12054113.23949  -9376770.19846  21404068.320    21404067.833    21404084.029
       227.000         179.000
  -9804349.58249  -7605275.48646  20951829.653    20951829.700    20951847.049
       228.000         178.000
  -2290087.43749   -755432.08145  22814644.661    22814642.519    22814671.209
       201.000         133.000
 -19922641.74349 -15509114.96747  18492979.592    18492978.639    18492991.429
       235.000         206.000
   8597986.37849   6704138.45046  21387342.493    21387341.208    21387359.673
       219.000         165.000
 -20174568.65649 -15704379.74946  20293251.006    20293251.467    20293268.074
       228.000         182.000
  -3796783.25549  -2948164.45745  23085105.624    23085104.836    23085125.180
       209.000         142.000
 01 12 19 22 33 59.9930000  0  9G28G 2G26G 9G24G 7G 8G 4G11
  -3472683.82749  -2698652.41247  19855899.891    19855899.125    19855911.839
       240.000         202.000
   5095321.13149   3970167.31345  22097690.383    22097689.300    22097709.190
       215.000         159.000
 -12022562.68549  -9352185.45246  21410072.251    21410071.778    21410087.974
       227.000         180.000
  -9922948.38749  -7697689.93546  20929260.825    20929260.917    20929278.227
       227.000         178.000
  -2428954.47649   -863639.07245  22788218.343    22788216.461    22788245.325
       204.000         132.000
 -19929092.28449 -15514141.36547  18491752.079    18491751.144    18491763.942
       235.000         206.000
   8676629.54949   6765418.62846  21402307.928    21402306.674    21402325.144
       217.000         164.000
 -20298183.79449 -15800703.04846  20269727.617    20269728.120    20269744.684
       228.000         182.000
  -3744070.54749  -2907089.70145  23095136.582    23095135.652    23095156.188
       209.000         143.000
 01 12 19 22 34 29.9930000  0  9G28G 2G26G 9G24G 7G 8G 4G11
  -3456373.63249  -2685943.21447  19859003.668    19859002.886    19859015.593
       239.000         201.000
   5129881.21649   3997097.12945  22104267.051    22104265.958    22104285.878
       213.000         158.000
 -11990701.16349  -9327358.39446  21416135.404    21416134.916    21416151.109
       228.000         180.000
 -10041274.54049  -7789891.92746  20906743.966    20906744.017    20906761.286
       226.000         177.000
  -2567882.81749   -971893.86745  22761780.281    22761778.824    22761807.871
       203.000         136.000
 -19935226.75949 -15518921.48347  18490584.692    18490583.783    18490596.600
       235.000         206.000
   8755445.83649   6826833.71946  21417306.379    21417305.075    21417323.546
       218.000         164.000
 -20421528.53249 -15896815.63246  20246255.717    20246256.218    20246272.767
       228.000         183.000
  -3691069.42449  -2865790.15145  23105222.456    23105221.530    23105241.980
       208.000         139.000
 01 12 19 22 34 59.9930000  0  9G28G 2G26G 9G24G 7G 8G 4G11
  -3439874.50649  -2673086.79947  19862143.358    19862142.579    19862155.310
       240.000         202.000
   5164584.56849   4024138.58345  22110870.944    22110869.872    22110889.867
       212.000         159.000
 -11958520.13449  -9302282.36946  21422259.309    21422258.838    21422275.041
       228.000         179.000
 -10159314.23349  -7881870.68246  20884281.512    20884281.625    20884298.864
       225.000         176.000
  -2706858.86449  -1080185.88545  22735333.171    22735332.232    22735361.198
       206.000         136.000
 -19941035.55649 -15523447.81947  18489479.367    18489478.417    18489491.213
       236.000         207.000
   8834444.36349   6888390.80946  21432339.522    21432338.175    21432356.644
       218.000         164.000
 -20544588.44949 -15992706.30146  20222838.081    20222838.539    20222855.040
       229.000         183.000
  -3637771.10249  -2824259.02845  23115364.904    23115363.989    23115384.482
       208.000         143.000
 01 12 19 22 35 29.9930000  0  9G28G 2G26G 9G24G 7G 8G 4G11
  -3423192.74849  -2660088.06847  19865317.811    19865317.042    19865329.799
       239.000         202.000
   5199424.89049   4051286.76245  22117500.927    22117499.792    22117519.943
       213.000         158.000
 -11926029.28149  -9276964.93546  21428442.218    21428441.736    21428457.934
       228.000         180.000
 -10277071.27049  -7973629.20046  20861872.950    20861873.022    20861890.220
       226.000         177.000
  -2845886.65649  -1188518.20945  22708876.233    22708875.768    22708904.724
       206.000         137.000
 -19946526.66049 -15527726.59247  18488434.518    18488433.528    18488446.315
       236.000         207.000
   8913616.31949   6950083.03746  21447405.609    21447404.245    21447422.784
       218.000         163.000
 -20667367.07449 -16088377.78146  20199473.961    20199474.403    20199490.841
       229.000         183.000
  -3584184.39249  -2782503.20445  23125562.177    23125561.260    23125581.794
       206.000         138.000
 01 12 19 22 35 59.9930000  0  9G28G 2G26G 9G24G 7G 8G 4G11
  -3406328.64349  -2646947.26047  19868526.946    19868526.182    19868538.978
       240.000         201.000
   5234402.30349   4078541.79745  22124157.014    22124155.922    22124176.097
       212.000         158.000
 -11893231.30549  -9251408.17746  21434683.496    21434683.033    21434699.275
       227.000         179.000
 -10394543.50549  -8065165.78446  20839518.562    20839518.635    20839535.800
       228.000         180.000
  -2984963.72249  -1296889.03245  22682409.867    22682409.862    22682438.758
       203.000         137.000
 -19951701.82849 -15531759.17947  18487449.704    18487448.727    18487461.533
       236.000         207.000
   8992959.54649   7011908.73546  21462504.210    21462502.890    21462521.497
       217.000         163.000
 -20789861.64349 -16183827.94046  20176163.947    20176164.340    20176180.693
       229.000         184.000
  -3530311.91349  -2740524.68745  23135813.815    23135812.945    23135833.483
       206.000         137.000
 01 12 19 22 36 29.9930000  0  9G28G 2G26G 9G24G 7G 8G 4G11
  -3389275.35549  -2633659.04447  19871772.112    19871771.349    19871784.150
       239.000         200.000
   5269523.29649   4105908.69645  22130840.592    22130839.371    22130859.576
       215.000         157.000
 -11860122.63549  -9225609.32246  21440983.922    21440983.459    21440999.766
       227.000         179.000
 -10511721.97049  -8156473.47846  20817220.111    20817220.170    20817237.252
       230.000         181.000
  -3124080.95349  -1405291.17245  22655936.000    22655936.268    22655965.123
       205.000         136.000
 -19956556.04049 -15535541.67147  18486525.946    18486524.986    18486537.819
       235.000         207.000
   9072478.30849   7073871.22246  21477636.231    21477634.909    21477653.583
       218.000         163.000
 -20912062.22949 -16279049.01246  20152909.852    20152910.210    20152926.494
       230.000         185.000
  -3476149.46549  -2698320.22045  23146120.527    23146119.680    23146140.326
       203.000         137.000
 01 12 19 22 36 59.9930000  0  9G28G 2G26G 9G24G 7G 8G 4G11
  -3372031.97949  -2620222.71047  19875053.475    19875052.699    19875065.481
       239.000         201.000
   5304788.65249   4133388.08945  22137551.564    22137550.306    22137570.496
       213.000         157.000
 -11826705.59449  -9199570.18246  21447343.042    21447342.569    21447358.950
       226.000         179.000
 -10628603.62749  -8247549.90046  20794978.136    20794978.164    20794995.177
       231.000         181.000
  -3263235.37149  -1513722.38445  22629454.954    22629455.578    22629484.256
       206.000         138.000
 -19961090.12049 -15539074.70447  18485663.103    18485662.178    18485675.019
       236.000         207.000
   9152171.08049   7135969.27446  21492801.400    21492800.070    21492818.814
       217.000         163.000
 -21033965.24349 -16374038.22546  20129712.341    20129712.707    20129728.930
       230.000         185.000
  -3421698.71049  -2655891.08945  23156482.242    23156481.361    23156501.958
       205.000         136.000
 01 12 19 22 37 29.9930000  0  9G28G 2G26G 9G24G 7G 8G 4G11
  -3354599.85949  -2606639.29247  19878370.763    19878369.956    19878382.767
       239.000         201.000
   5340196.87049   4160978.79045  22144289.708    22144288.393    22144308.592
       212.000         157.000
 -11792984.40349  -9173294.03746  21453760.002    21453759.545    21453776.018
       227.000         180.000
 -10745187.46749  -8338394.25046  20772792.839    20772792.857    20772809.750
       230.000         182.000
  -3402425.53749  -1622181.48845  22602967.117    22602968.014    22602996.480
       204.000         138.000
 -19965307.30049 -15542360.79747  18484860.597    18484859.670    18484872.507
       236.000         207.000
   9232034.27449   7198200.15546  21507999.042    21507997.665    21508016.457
       217.000         163.000
 -21155569.11949 -16468794.34546  20106571.781    20106572.129    20106588.291
       230.000         185.000
  -3366963.58149  -2613240.36145  23166897.952    23166897.187    23166917.698
       204.000         135.000
 01 12 19 22 37 59.9930000  0  9G28G 2G26G 9G24G 7G 8G 4G11
  -3336982.52149  -2592911.55547  19881723.242    19881722.453    19881735.277
       239.000         200.000
   5375744.47949   4188678.11745  22151054.279    22151052.997    22151073.221
       212.000         157.000
 -11758965.48749  -9146785.90946  21460233.692    21460233.222    21460249.760
       227.000         181.000
 -10861474.48149  -8429007.30746  20750663.958    20750664.024    20750680.851
       230.000         182.000
  -3541652.46349  -1730669.25745  22576472.334    22576473.408    22576501.732
       202.000         137.000
 -19969212.67149 -15545403.92947  18484117.398    18484116.487    18484129.332
       236.000         207.000
   9312062.01749   7260559.23245  21523227.844    21523226.575    21523245.431
       218.000         162.000
 -21276874.48049 -16563317.86646  20083487.976    20083488.346    20083504.464
       230.000         185.000
  -3311950.24149  -2570372.85945  23177366.713    23177365.935    23177386.397
       204.000         134.000
 01 12 19 22 38 29.9930000  0  9G28G 2G26G 9G24G 7G 8G 4G11
  -3319173.19049  -2579034.21247  19885112.336    19885111.512    19885124.348
       239.000         201.000
   5411438.18649   4216491.28845  22157846.590    22157845.373    22157865.637
       211.000         157.000
 -11724645.38049  -9120043.09046  21466764.664    21466764.192    21466780.819
       227.000         181.000
 -10977455.76049  -8519382.12546  20728593.325    20728593.360    20728610.164
       231.000         184.000
  -3680907.05849  -1839178.63945  22549972.536    22549973.627    22550001.749
       205.000         140.000
 -19972801.17749 -15548200.15747  18483434.543    18483433.613    18483446.438
       236.000         207.000
   9392258.67949   7323049.94845  21538488.909    21538487.655    21538506.538
       218.000         162.000
 -21397871.47449 -16657601.09946  20060462.837    20060463.233    20060479.324
       232.000         186.000
  -3256654.44549  -2527285.22745  23187889.058    23187888.411    23187908.788
       201.000         134.000
 01 12 19 22 38 59.9930000  0  9G28G 2G26G 9G24G 7G 8G 4G11
  -3301185.84549  -2565018.15547  19888535.257    19888534.432    19888547.275
       239.000         200.000
   5447263.94949   4244407.34845  22164664.127    22164662.890    22164683.216
       212.000         156.000
 -11690041.02349  -9093078.77546  21473349.779    21473349.260    21473365.933
       228.000         181.000
 -11093142.96349  -8609527.80446  20706578.657    20706578.659    20706595.432
       230.000         183.000
  -3820200.49349  -1947718.35445  22523465.255    22523466.470    22523494.378
       204.000         143.000
 -19976088.52749 -15550761.71947  18482808.960    18482808.031    18482820.872
       236.000         207.000
   9472607.74349   7385659.41846  21553778.988    21553777.736    21553796.643
       217.000         163.000
 -21518571.33049 -16751652.79846  20037494.305    20037494.676    20037510.740
       231.000         185.000
  -3201092.62749  -2483990.30945  23198462.091    23198461.415    23198481.816
       202.000         133.000
 01 12 19 22 39 29.9930000  0  9G28G 2G26G 9G24G 7G 8G 4G11
  -3283003.95049  -2550850.49947  19891995.210    19891994.372    19892007.224
       238.000         200.000
   5483238.24549   4272439.16745  22171509.860    22171508.645    22171529.077
       210.000         156.000
 -11655138.97249  -9065882.48046  21479991.488    21479990.977    21480007.721
       228.000         181.000
 -11208517.11949  -8699429.56546  20684623.546    20684623.541    20684640.246
       229.000         183.000
  -3959514.16049  -2056273.82545  22496954.294    22496955.450    22496983.105
       208.000         144.000
 -19979059.96549 -15553077.11747  18482243.503    18482242.583    18482255.415
       237.000         207.000
   9553123.55649   7448398.81745  21569100.795    21569099.549    21569118.525
       218.000         162.000
 -21638954.57649 -16845457.78146  20014586.068    20014586.396    20014602.416
       232.000         186.000
  -3145251.06349  -2440477.39645  23209088.483    23209087.893    23209108.246
       201.000         132.000
 01 12 19 22 39 59.9930000  0  9G28G 2G26G 9G24G 7G 8G 4G11
  -3264639.70849  -2536540.75147  19895489.816    19895489.008    19895501.883
       238.000         199.000
   5519348.80749   4300577.15545  22178381.621    22178380.404    22178400.829
       212.000         154.000
 -11619954.47349  -9038466.10346  21486687.014    21486686.471    21486703.231
       228.000         181.000
 -11323588.24749  -8789095.18646  20662726.081    20662726.061    20662742.752
       229.000         183.000
  -4098857.65749  -2164852.52545  22470437.650    22470438.809    22470466.270
       210.000         147.000
 -19981729.30649 -15555157.12647  18481735.561    18481734.628    18481747.465
       237.000         207.000
   9633791.50849   7511256.78445  21584451.576    21584450.329    21584469.314
       217.000         162.000
 -21759030.63449 -16939023.38946  19991736.270    19991736.560    19991752.557
       231.000         186.000
  -3089144.32649  -2396757.86144  23219765.212    23219764.692    23219785.113
       203.000         130.000
 01 12 19 22 40 29.9930000  0  8G28G 2G26G 9G24G 7G 8G 4
  -3246084.09649  -2522081.87847  19899020.895    19899020.057    19899032.958
       238.000         200.000
   5555604.47949   4328828.23045  22185280.899    22185279.702    22185300.180
       212.000         154.000
 -11584481.65649  -9010825.06046  21493437.403    21493436.839    21493453.583
       229.000         181.000
 -11438344.97049  -8878515.81646  20640888.406    20640888.409    20640905.051
       230.000         182.000
  -4238219.41749  -2273445.48445  22443917.623    22443918.720    22443946.030
       210.000         147.000
 -19984089.45349 -15556996.20747  18481286.462    18481285.515    18481298.327
       237.000         208.000
   9714618.26649   7574238.48945  21599832.589    21599831.336    21599850.328
       216.000         162.000
 -21878787.61349 -17032340.37346  19968947.113    19968947.453    19968963.404
       230.000         186.000
 01 12 19 22 40 59.9930000  0  8G28G 2G26G 9G24G 7G 8G 4
  -3227326.26349  -2507465.43247  19902590.435    19902589.607    19902602.527
       238.000         200.000
   5592016.10249   4357200.82145  22192209.943    22192208.689    22192229.135
       210.000         153.000
 -11548712.77749  -8982953.31746  21500244.116    21500243.552    21500260.268
       229.000         180.000
 -11552774.36049  -8967681.39746  20619113.048    20619113.049    20619129.664
       229.000         183.000
  -4377586.26649  -2382042.43845  22417396.674    22417397.651    22417424.734
       209.000         145.000
 -19986131.41849 -15558587.36147  18480897.939    18480896.951    18480909.733
       237.000         207.000
   9795612.14949   7637350.42245  21615245.351    21615244.088    21615263.178
       216.000         161.000
 -21998211.73449 -17125397.98346  19946221.293    19946221.663    19946237.578
       231.000         186.000
 01 12 19 22 41 29.9930000  0  8G28G 2G26G 9G24G 7G 8G 4
  -3208380.70749  -2492702.70847  19906195.708    19906194.867    19906207.811
       238.000         199.000
   5628569.10849   4385683.57945  22199165.802    22199164.564    22199185.021
       211.000         153.000
 -11512665.25349  -8954864.44746  21507103.830    21507103.264    21507119.956
       229.000         179.000
 -11666888.45349  -9056601.28646  20597397.752    20597397.717    20597414.285
       231.000         187.000
  -4516970.25749  -2490652.72645  22390872.380    22390873.217    22390900.180
       210.000         145.000
 -19987871.05749 -15559942.93747  18480566.905    18480565.916    18480578.667
       237.000         207.000
   9876756.39649   7700579.52345  21630686.814    21630685.446    21630704.614
       215.000         162.000
 -22117314.54849 -17218205.21846  19923556.665    19923557.017    19923572.902
       231.000         186.000
 01 12 19 22 41 59.9930000  0  8G28G 2G26G 9G24G 7G 8G 4
  -3189246.97749  -2477793.35647  19909836.716    19909835.926    19909848.882
       237.000         199.000
   5665263.77949   4414276.71945  22206148.539    22206147.403    22206167.897
       210.000         153.000
 -11476342.06849  -8926560.77346  21514016.058    21514015.455    21514032.107
       228.000         178.000
 -11780684.75449  -9145273.55847  20575742.908    20575742.881    20575759.404
       233.000         189.000
  -4656368.40849  -2599274.04145  22364345.297    22364346.190    22364372.983
       210.000         145.000
 -19989310.08849 -15561064.28147  18480293.051    18480292.070    18480304.834
       237.000         207.000
   9958049.03049   7763924.23845  21646156.430    21646155.075    21646174.327
       213.000         161.000
 -22236092.92549 -17310759.63446  19900953.800    19900954.133    19900969.964
       232.000         186.000
